[[{"header":{"parameterUnit":"m.s-1","parameterCategory":1,"la1":31.0,"la2":29.5877,"lo1":-88.7671,"lo2":-86.6584,"dy":0.0162,"dx":0.0185,"nx":115,"ny":88,"refTime":"2023-08-25T18:00:00:Z","depth":0,"parameterNumber":2,"parameterNumberName":"U-component_of_WINDS"},"data":[0.0,0.0,0.0,0.0,0.0,0.0,0.0,0.0,0.0,0.0,0.0,0.0,0.0,0.0,0.0,0.0,0.0,0.0,0.0,0.0,0.0,0.0,0.0,0.0,0.0,0.0,0.0,0.0,0.0,0.0,0.0,0.0,0.0,0.0,0.0,0.0,0.0,0.0,0.0,0.0,0.0,0.0,0.0,0.0,0.0,0.0,0.0,0.0,0.0,0.0,0.0,0.0,0.0,0.0,0.0,0.0,0.0,0.0,0.0,0.0,0.0,0.0,0.0,0.0,0.0,0.0,0.0,0.0,0.0,0.0,0.0,0.0,0.0,0.0,0.0,0.0,0.0,0.0,0.0,0.0,0.0,0.0,0.0,0.0,0.0,0.0,0.0,0.0,0.0,0.0,0.0,0.0,0.0,0.0,0.0,0.0,0.0,0.0,0.0,0.0,0.0,0.0,0.0,0.0,0.0,0.0,0.0,0.0,0.0,0.0,0.0,0.0,0.0,0.0,0.0,0.0,0.0,0.0,0.0,0.0,0.0,0.0,0.0,0.0,0.0,0.0,0.0,0.0,0.0,0.0,0.0,0.0,0.0,0.0,0.0,0.0,0.0,0.0,0.0,0.0,0.0,0.0,0.0,0.0,0.0,0.0,0.0,0.0,0.0,0.0,0.0,0.0,0.0,0.0,0.0,0.0,0.0,0.0,0.0,0.0,0.0,0.0,0.0,0.0,0.0,0.0,0.0,0.0,0.0,0.0,0.0,0.0,0.0,0.0,0.0,0.0,0.0,0.0,0.0,0.0,0.0,0.0,0.0,0.0,0.0,0.0,0.0,0.0,0.0,0.0,0.0,0.0,0.0,0.0,0.0,0.0,0.0,0.0,0.0,0.0,0.0,0.0,0.0,0.0,0.0,0.0,0.0,0.0,0.0,0.0,0.0,0.0,0.0,0.0,0.0,0.0,0.0,0.0,0.0,0.0,0.0,0.0,0.0,0.0,0.0,0.0,0.0,0.0,0.0,0.0,0.0,0.0,0.0,0.0,0.0,0.0,0.0,0.0,0.0,0.0,0.0,0.0,0.0,0.0,0.0,0.0,0.0,0.0,0.0,0.0,0.0,0.0,0.0,0.0,0.0,0.0,0.0,0.0,0.0,0.0,0.0,0.0,0.0,0.0,0.0,0.0,0.0,0.0,0.0,0.0,0.0,0.0,0.0,0.0,0.0,0.0,0.0,0.0,0.0,0.0,0.0,0.0,0.0,0.0,0.0,0.0,0.0,0.0,0.0,0.0,0.0,0.0,0.0,0.0,0.0,0.0,0.0,0.0,0.0,0.0,0.0,0.0,0.0,0.0,0.0,0.0,0.0,0.0,0.0,0.0,0.0,0.0,0.0,0.0,0.0,0.0,0.0,0.0,0.0,0.0,0.0,0.0,0.0,0.0,0.0,0.0,0.0,0.0,0.0,0.0,0.0,0.0,0.0,0.0,0.0,0.0,0.0,0.0,0.0,0.0,0.0,0.0,0.0,0.0,0.0,0.0,0.0,0.0,0.0,0.0,0.0,0.0,0.0,0.0,0.0,0.0,0.0,0.0,0.0,0.0,0.0,0.0,0.0,0.0,0.0,0.0,0.0,0.0,0.0,0.0,0.0,0.0,0.0,0.0,0.0,0.0,0.0,0.0,0.0,0.0,0.0,0.0,0.0,0.0,0.0,0.0,0.0,0.0,0.0,0.0,0.0,0.0,0.0,0.0,0.0,0.0,0.0,0.0,0.0,0.0,0.0,0.0,0.0,0.0,0.0,0.0,0.0,0.0,0.0,0.0,0.0,0.0,0.0,0.0,0.0,0.0,0.0,0.0,0.0,0.0,0.0,0.0,0.0,0.0,0.0,0.0,0.0,0.0,0.0,0.0,0.0,0.0,0.0,0.0,0.0,0.0,0.0,0.0,0.0,0.0,0.0,0.0,0.0,0.0,0.0,0.0,0.0,0.0,0.0,0.0,0.0,0.0,0.0,0.0,0.0,0.0,0.0,0.0,0.0,0.0,0.0,0.0,0.0,0.0,0.0,0.0,0.0,0.0,0.0,0.0,0.0,0.0,0.0,0.0,0.0,0.0,0.0,0.0,0.0,0.0,0.0,0.0,0.0,0.0,0.0,0.0,0.0,0.0,0.0,0.0,0.0,0.0,0.0,0.0,0.0,0.0,0.0,0.0,0.0,0.0,0.0,0.0,0.0,0.0,0.0,0.0,0.0,0.0,0.0,0.0,0.0,0.0,0.0,0.0,0.0,0.0,0.0,0.0,0.0,0.0,0.0,0.0,0.0,0.0,0.0,0.0,0.0,0.0,0.0,0.0,0.0,0.0,0.0,0.0,0.0,0.0,0.0,0.0,0.0,0.0,0.0,0.0,0.0,0.0,0.0,0.0,0.0,0.0,0.0,0.0,0.0,0.0,0.0,0.0,0.0,0.0,0.0,0.0,0.0,0.0,0.0,0.0,0.0,0.0,0.0,0.0,0.0,0.0,0.0,0.0,0.0,0.0,0.0,0.0,0.0,0.0,0.0,0.0,0.0,0.0,0.0,0.0,0.0,0.0,0.0,0.0,0.0,0.0,0.0,0.0,0.0,0.0,0.0,0.0,0.0,0.0,0.0,0.0,0.0,0.0,0.0,0.0,0.0,0.0,0.0,0.0,0.0,0.0,0.0,0.0,0.0,0.0,0.0,0.0,0.0,0.0,0.0,0.0,0.0,0.0,0.0,0.0,0.0,0.0,0.0,0.0,0.0,0.0,0.0,0.0,0.0,0.0,0.0,0.0,0.0,0.0,0.0,0.0,0.0,0.0,0.0,0.0,0.0,0.0,0.0,0.0,0.0,0.0,0.0,0.0,0.0,0.0,0.0,0.0,0.0,0.0,0.0,0.0,0.0,0.0,0.0,0.0,0.0,0.0,0.0,0.0,0.0,0.0,0.0,0.0,0.0,0.0,0.0,0.0,0.0,0.0,0.0,0.0,0.0,0.0,0.0,0.0,0.0,0.0,0.0,0.0,0.0,0.0,0.0,0.0,0.0,0.0,0.0,0.0,0.0,0.0,0.0,0.0,0.0,0.0,0.0,0.0,0.0,0.0,0.0,0.0,0.0,0.0,0.0,0.0,0.0,0.0,0.0,0.0,0.0,0.0,0.0,0.0,0.0,0.0,0.0,0.0,0.0,0.0,0.0,0.0,0.0,0.0,0.0,0.0,0.0,0.0,0.0,0.0,0.0,0.0,0.0,0.0,0.0,0.0,0.0,0.0,0.0,0.0,0.0,0.0,0.0,0.0,0.0,0.0,0.0,0.0,0.0,0.0,0.0,0.0,0.0,0.0,0.0,0.0,0.0,0.0,0.0,0.0,0.0,0.0,0.0,0.0,0.0,0.0,0.0,0.0,0.0,0.0,0.0,0.0,0.0,0.0,0.0,0.0,0.0,0.0,0.0,0.0,0.0,0.0,0.0,0.0,0.0,0.0,0.0,0.0,0.0,0.0,0.0,0.0,0.0,0.0,0.0,0.0,0.0,0.0,0.0,0.0,0.0,0.0,0.0,0.0,0.0,0.0,0.0,0.0,0.0,0.0,0.0,0.0,0.0,0.0,0.0,0.0,0.0,0.0,0.0,0.0,0.0,0.0,0.0,0.0,0.0,0.0,0.0,0.0,0.0,0.0,0.0,0.0,0.0,0.0,0.0,0.0,0.0,0.0,0.0,0.0,0.0,0.0,0.0,0.0,0.0,0.0,0.0,0.0,0.0,0.0,0.0,0.0,0.0,0.0,0.0,0.0,0.0,0.0,0.0,0.0,0.0,0.0,0.0,0.0,0.0,0.0,0.0,0.0,0.0,0.0,0.0,0.0,0.0,0.0,0.0,0.0,0.0,0.0,0.0,0.0,0.0,0.0,0.0,0.0,0.0,0.0,0.0,0.0,0.0,0.0,0.0,0.0,0.0,0.0,0.0,0.0,0.0,0.0,0.0,0.0,0.0,0.0,0.0,0.0,0.0,0.0,0.0,0.0,0.0,0.0,0.0,0.0,0.0,0.0,0.0,0.0,0.0,0.0,0.0,0.0,0.0,0.0,0.0,0.0,0.0,0.0,0.0,0.0,0.0,0.0,0.0,0.0,0.0,0.0,0.0,0.0,0.0,0.0,0.0,0.0,0.0,0.0,0.0,0.0,0.0,0.0,0.0,0.0,0.0,0.0,0.0,0.0,0.0,0.0,0.0,0.0,0.0,0.0,0.0,0.0,0.0,0.0,-0.5358,0.0,0.0,0.0,0.0,0.0,0.0,0.0,0.0,0.0,0.0,0.0,0.0,0.0,0.0,0.0,0.0,0.0,0.0,0.0,0.0,0.0,0.0,0.0,0.0,0.0,0.0,0.0,0.0,0.0,0.0,0.0,0.0,0.0,0.0,0.0,0.0,0.0,0.0,0.0,0.0,0.0,0.0,0.0,0.0,0.0,0.0,0.0,0.0,0.0,0.0,0.0,0.0,0.0,0.0,0.0,0.0,0.0,0.0,0.0,0.0,0.0,0.0,0.0,0.0,0.0,0.0,0.0,0.0,0.0,0.0,0.0,0.0,0.0,0.0,0.0,0.0,0.0,0.0,0.0,0.0,0.0,0.0,0.0,0.0,0.0,0.0,0.0,0.0,0.0,0.0,0.0,0.0,0.0,0.0,0.0,0.0,0.0,0.0,0.0,0.0,0.0,0.0,0.0,0.0,0.0,0.0,0.0,0.0,0.0,0.0,-0.3396,-0.4087,-0.3834,-0.3996,-0.4712,0.0,0.0,0.0,0.0,0.0,0.0,0.0,0.0,0.0,0.0,0.0,0.0,0.0,0.0,0.0,0.0,0.0,0.0,0.0,0.0,0.0,0.0,0.0,0.0,0.0,0.0,0.0,0.0,0.0,0.0,0.0,0.0,0.0,0.0,0.0,0.0,0.0,0.0,0.0,0.0,0.0,0.0,0.0,0.0,0.0,0.0,0.0,0.0,0.0,0.0,0.0,0.0,0.0,0.0,0.0,0.0,0.0,0.0,0.0,0.0,0.0,0.0,0.0,0.0,0.0,0.0,0.0,0.0,0.0,0.0,0.0,0.0,0.0,0.0,0.0,0.0,0.0,0.0,0.0,0.0,0.0,0.0,0.0,0.0,0.0,0.0,0.0,0.0,0.0,0.0,0.0,0.0,0.0,0.0,0.0,0.0,0.0,0.0,0.0,0.0,0.0,0.0,0.0,0.0,0.0,0.0,0.0,0.0,0.0,0.0,0.0,0.0,-0.3221,-0.337,-0.4128,0.0,0.0,0.0,0.0,0.0,0.0,0.0,0.0,0.0,0.0,0.0,0.0,0.0,0.0,0.0,0.0,0.0,0.0,0.0,0.0,0.0,0.0,0.0,0.0,0.0,0.0,0.0,0.0,0.0,0.0,0.0,0.0,0.0,0.0,0.0,0.0,0.0,0.0,0.0,0.0,0.0,0.0,0.0,0.0,0.0,0.0,0.0,0.0,0.0,0.0,0.0,0.0,0.0,0.0,0.0,0.0,0.0,0.0,0.0,0.0,0.0,0.0,0.0,0.0,0.0,0.0,0.0,0.0,0.0,0.0,0.0,0.0,0.0,0.0,0.0,0.0,0.0,0.0,0.0,0.0,0.0,0.0,0.0,0.0,0.0,0.0,0.0,0.0,0.0,0.0,0.0,0.0,0.0,0.0,0.0,0.0,0.0,0.0,0.0,0.0,0.0,0.0,0.0,0.0,0.0,0.0,0.0,0.0,0.0,0.0,-0.2944,-0.3022,-0.331,0.0,-0.3792,0.0,0.0,0.0,0.0,0.0,0.0,0.0,0.0,0.0,0.0,0.0,0.0,0.0,0.0,0.0,0.0,0.0,0.0,0.0,0.0,0.0,0.0,0.0,0.0,0.0,0.0,0.0,0.0,0.0,0.0,0.0,0.0,0.0,0.0,0.0,0.0,0.0,0.0,0.0,0.0,0.0,0.0,0.0,0.0,0.0,0.0,0.0,0.0,0.0,0.0,0.0,0.0,0.0,0.0,0.0,0.0,0.0,0.0,0.0,0.0,0.0,0.0,0.0,0.0,0.0,0.0,0.0,0.0,0.0,0.0,0.0,0.0,0.0,0.0,0.0,0.0,0.0,0.0,0.0,0.0,0.0,0.0,0.0,0.0,0.0,0.0,0.0,0.0,0.0,0.0,0.0,0.0,0.0,0.0,0.0,0.0,0.0,0.0,0.0,0.0,0.0,0.0,0.0,0.0,0.0,0.0,0.0,0.0,0.0,0.0,-0.198,-0.2188,-0.2928,-0.3144,0.0,0.0,0.0,0.0,0.0,0.0,0.0,0.0,0.0,0.0,0.0,0.0,0.0,0.0,0.0,0.0,0.0,0.0,0.0,0.0,0.0,0.0,0.0,0.0,0.0,0.0,0.0,0.0,0.0,0.0,0.0,0.0,0.0,0.0,0.0,0.0,0.0,0.0,0.0,0.0,0.0,0.0,0.0,0.0,0.0,0.0,0.0,0.0,0.0,0.0,0.0,0.0,0.0,0.0,0.0,0.0,0.0,0.0,0.0,0.0,0.0,0.0,0.0,0.0,0.0,0.0,0.0,0.0,0.0,0.0,0.0,0.0,0.0,0.0,0.0,0.0,0.0,0.0,0.0,0.0,0.0,0.0,0.0,0.0,0.0,0.0,0.0,0.0,0.0,0.0,0.0,0.0,0.0,0.0,0.0,0.0,0.0,0.0,0.0,0.0,0.0,0.0,0.0,0.0,0.0,0.0,0.0,0.0,0.0,0.0,-0.0691,-0.1162,-0.1592,-0.2277,-0.2325,-0.1646,0.0,0.0,0.0,0.0,0.0,0.0,0.0,0.0,0.0,0.0,0.0,0.0,0.0,0.0,0.0,0.0,0.0,0.0,0.0,0.0,0.0,0.0,0.0,0.0,0.0,0.0,0.0,0.0,0.0,0.0,0.0,0.0,0.0,0.0,0.0,0.0,0.0,0.0,0.0,0.0,0.0,0.0,0.0,0.0,0.0,0.0,0.0,0.0,0.0,0.0,0.0,0.0,0.0,0.0,0.0,0.0,0.0,0.0,0.0,0.0,0.0,0.0,0.0,0.0,0.0,0.0,0.0,0.0,0.0,0.0,0.0,0.0,0.0,0.0,0.0,0.0,0.0,0.0,0.0,0.0,0.0,0.0,0.0,0.0,0.0,0.0,0.0,0.0,0.0,0.0,0.0,0.0,0.0,0.0,0.0,0.0,0.0,0.0,0.0,0.0,0.0,0.0,0.0,0.0,0.0,0.0,0.0,0.0,0.0681,-0.0049,-0.0676,-0.12,-0.1253,-0.1203,0.0,0.0,0.0,0.0,0.0,0.0,0.0,0.0,0.0,0.0,0.0,0.0,0.0,0.0,0.0,0.0,0.0,0.0,0.0,0.0,0.0,0.0,0.0,0.0,0.0,0.0,0.0,0.0,0.0,0.0,0.0,0.0,0.0,0.0,0.0,0.0,0.0,0.0,0.0,0.0,0.0,0.0,0.0,0.0,0.0,0.0,0.0,0.0,0.0,0.0,0.0,0.0,0.0,0.0,0.0,0.0,0.0,0.0,0.0,0.0,0.0,0.0,0.0,0.0,0.0,0.0,0.0,0.0,0.0,0.0,0.0,0.0,0.0,0.0,0.0,0.0,0.0,0.0,0.0,0.0,0.0,0.0,0.0,0.0,0.0,0.0,0.0,0.0,0.0,0.0,0.0,0.0,0.0,0.0,0.0,0.0,0.0,0.0,0.0,0.0,0.0,0.0,0.0,0.0,0.0,0.0,0.0,0.0,0.0,0.0717,0.0478,0.0146,-0.0301,-0.0098,0.0098,0.0,0.0,0.0,0.0,0.0,0.0,0.0,0.0,0.0,0.0,0.0,0.0,0.0,0.0,0.0,0.0,0.0,0.0,0.0,0.0,0.0,0.0,0.0,0.0,0.0,0.0,0.0,0.0,0.0,0.0,0.0,0.0,0.0,0.0,0.0,0.0,0.0,0.0,0.0,0.0,0.0,0.0,0.0,0.0,0.0,0.0,0.0,0.0,0.0,0.0,0.0,0.0,0.0,0.0,0.0,0.0,0.0,0.0,0.0,0.0,0.0,0.0,0.0,0.0,0.0,0.0,0.0,0.0,0.0,0.0,0.0,0.0,0.0,0.0,0.0,0.0,0.0,0.0,0.0,0.0,0.0,0.0,0.0,0.0,0.0,0.0,0.0,0.0,0.0,0.0,0.0,0.0,0.0,0.0,0.0,0.0,0.0,0.0,0.0,0.0,0.0,0.0,0.0,0.0,0.0,0.0,0.0,0.0,0.0,0.1027,0.0,0.0821,0.0346,0.0588,0.0738,0.0,0.0,0.0,0.0,0.0,0.0,0.0,0.0,0.0,0.0,0.0,0.0,0.0,0.0,0.0,0.0,0.0,0.0,0.0,0.0,0.0,0.0,0.0,0.0,0.0,0.0,0.0,0.0,0.0,0.0,0.0,0.0,0.0,0.0,0.0,0.0,0.0,0.0,0.0,0.0,0.0,0.0,0.0,0.0,0.0,0.0,0.0,0.0,0.0,0.0,0.0,0.0,0.0,0.0,0.0,0.0,0.0,0.0,0.0,0.0,0.0,0.0,0.0,0.0,0.0,0.0,0.0,0.0,0.0,0.0,0.0,0.0,0.0,0.0,0.0,0.0,0.0,0.0,0.0,0.0,0.0,0.0,0.0,0.0,0.0,0.0,0.0,0.0,0.0,0.0,0.0,0.0,0.0,0.0,0.0,0.0,0.0,0.0,0.0,0.0,0.0,0.0,0.0,0.0,0.0,0.0,0.0,0.0,0.1656,0.1655,0.1503,0.1197,0.0815,0.0792,0.0806,0.0,0.0,0.0,0.0,0.0,0.0,0.0,0.0,0.0,0.0,0.0,0.0,0.0,0.0,0.0,0.0,0.0,0.0,0.0,0.0,0.0,0.0,0.0,0.0,0.0,0.0,0.0,0.0,0.0,0.0,0.0,0.0,0.0,0.0,0.0,0.0,0.0,0.0,0.0,0.0,0.0,0.0,0.0,0.0,0.0,0.0,0.0,0.0,0.0,0.0,0.0,0.0,0.0,0.0,0.0,0.0,0.0,0.0,0.0,0.0,0.0,0.0,0.0,0.0,0.0,0.0,0.0,0.0,0.0,0.0,0.0,0.0,0.0,0.0,0.0,0.0,0.0,0.0,0.0,0.0,0.0,0.0,0.0,0.0,0.0,0.0,0.0,0.0,0.0,0.0,0.0,0.0,0.0,0.0,0.0,0.0,0.0,0.0,0.0,0.0,0.0,0.0,0.0,0.0,0.0,0.0,0.0,0.0,0.0,0.1108,0.1022,0.0943,0.0851,0.0805,0.0806,0.0,0.0,0.0,0.0,0.0,0.0,0.0,0.0,0.0,0.0,0.0,0.0,0.0,0.0,0.0,0.0,0.0,0.0,0.0,0.0,0.0,0.0,0.0,0.0,0.0,0.0,0.0,0.0,0.0,0.0,0.0,0.0,0.0,0.0,0.0,0.0,0.0,0.0,0.0,0.0,0.0,0.0,0.0,0.0,0.0,0.0,0.0,0.0,0.0,0.0,0.0,0.0,0.0,0.0,0.0,0.0,0.0,0.0,0.0,0.0,0.0,0.0,0.0,0.0,0.0,0.0,0.0,0.0,0.0,0.0,0.0,0.0,0.0,0.0,0.0,0.0,0.0,0.0,0.0,0.0,0.0,0.0,0.0,0.0,0.0,0.0,0.0,0.0,0.0,0.0,0.0,0.0,0.0,0.0,0.0,0.0,0.0,0.0,0.0,0.0,0.0,0.0,0.0,0.0,0.0,0.0,0.0,0.0,0.0,0.0874,0.0981,0.0988,0.0847,0.0865,0.0869,0.0861,0.0,0.0,0.0,0.0,0.0,0.0,0.0,0.0,0.0,0.0,0.0,0.0,0.0,0.0,0.0,0.0,0.0,0.0,0.0,0.0,0.0,0.0,0.0,0.0,0.0,0.0,0.0,0.0,0.0,0.0,0.0,0.0,0.0,0.0,0.0,0.0,0.0,0.0,0.0,0.0,0.0,0.0,0.0,0.0,0.0,0.0,0.0,0.0,0.0,0.0,0.0,0.0,0.0,0.0,0.0,0.0,0.0,0.0,0.0,0.0,0.0,0.0,0.0,0.0,0.0,0.0,0.0,0.0,0.0,0.0,0.0,0.0,0.0,0.0,0.0,0.0,0.0,0.0,0.0,0.0,0.0,0.0,0.0,0.0,0.0,0.0,0.0,0.0,0.0,0.0,0.0,0.0,0.0,0.0,0.0,0.0,0.0,0.0,0.0,0.0,0.0,0.0,0.0,0.0,0.0,0.0,0.0,0.0,0.0958,0.1298,0.1258,0.0831,0.0881,0.0894,0.0,0.0,0.0,0.0,0.0,0.0,0.0,0.0,0.0,0.0,0.0,0.0,0.0,0.0,0.0,0.0,0.0,0.0,0.0,0.0,0.0,0.0,0.0,0.0,0.0,0.0,0.0,0.0,0.0,0.0,0.0,0.0,0.0,0.0,0.0,0.0,0.0,0.0,0.0,0.0,0.0,0.0,0.0,0.0,0.0,0.0,0.0,0.0,0.0,0.0,0.0,0.0,0.0,0.0,0.0,0.0,0.0,0.0,0.0,0.0,0.0,0.0,0.0,0.0,0.0,0.0,0.0,0.0,0.0,0.0,0.0,0.0,0.0,0.0,0.0,0.0,0.0,0.0,0.0,0.0,0.0,0.0,0.0,0.0,0.0,0.0,0.0,0.0,0.0,0.0,0.0,0.0,0.0,0.0,0.0,0.0,0.0,0.0,0.0,0.0,0.0,0.0,0.0,0.0,0.0,0.0,0.0,0.0,0.0,0.1489,0.118,0.0994,0.0927,0.0901,0.1171,0.0,0.0,0.0,0.0,0.0,0.0,0.0,0.0,0.0,0.0,0.0,0.0,0.0,0.0,0.0,0.0,0.0,0.0,0.0,0.0,0.0,0.0,0.0,0.0,0.0,0.0,0.0,0.0,0.0,0.0,0.0,0.0,0.0,0.0,0.0,0.0,0.0,0.0,0.0,0.0,0.0,0.0,0.0,0.0,0.0,0.0,0.0,0.0,0.0,0.0,0.0,0.0,0.0,0.0,0.0,0.0,0.0,0.0,0.0,0.0,0.0,0.0,0.0,0.0,0.0,0.0,0.0,0.0,0.0,0.0,0.0,0.0,0.0,0.0,0.0,0.0,0.0,0.0,0.0,0.0,0.0,0.0,0.0,0.0,0.0,0.0,0.0,0.0,0.0,0.0,0.0,0.0,0.0,0.0,0.0,0.0,0.0,0.0,0.0,0.0,0.0,0.0,0.0,0.0,0.0,0.0,0.0,0.0,0.1026,0.1384,0.1076,0.1018,0.1257,0.1034,0.1173,0.0,0.0,0.0,0.0,0.0,0.0,0.0,0.0,0.0,0.0,0.0,0.0,0.0,0.0,0.0,0.0,0.0,0.0,0.0,0.0,0.0,0.0,0.0,0.0,0.0,0.0,0.0,0.0,0.0,0.0,0.0,0.0,0.0,0.0,0.0,0.0,0.0,0.0,0.0,0.0,0.0,0.0,0.0,0.0,0.0,0.0,0.0,0.0,0.0,0.0,0.0,0.0,0.0,0.0,0.0,0.0,0.0,0.0,0.0,0.0,0.0,0.0,0.0,0.0,0.0,0.0,0.0,0.0,0.0,0.0,0.0,0.0,0.0,0.0,0.0,0.0,0.0,0.0,0.0,0.0,0.0,0.0,0.0,0.0,0.0,0.0,0.0,0.0,0.0,0.0,0.0,0.0,0.0,0.0,0.0,0.0,0.0,0.0,0.0,0.0,0.0,0.0,0.0,0.0,0.0,0.0,0.0,0.0,0.0881,0.0912,0.0946,0.1193,0.148,0.1159,0.116,0.0,0.0,0.0,0.0,0.0,0.0,0.0,0.0,0.0,0.0,0.0,0.0,0.0,0.0,0.0,0.0,0.0,0.0,0.0,0.0,0.0,0.0,0.0,0.0,0.0,0.0,0.0,0.0,0.0,0.0,0.0,0.0,0.0,0.0,0.0,0.0,0.0,0.0,0.0,0.0,0.0,0.0,0.0,0.0,0.0,0.0,0.0,0.0,0.0,0.0,0.0,0.0,0.0,0.0,0.0,0.0,0.0,0.0,0.0,0.0,0.0,0.0,0.0,0.0,0.0,0.0,0.0,0.0,0.0,0.0,0.0,0.0,0.0,0.0,0.0,0.0,0.0,0.0,0.0,0.0,0.0,0.0,0.0,0.0,0.0,0.0,0.0,0.0,0.0,0.0,0.0,0.0,0.0,0.0,0.0,0.0,0.0,0.0,0.0,0.0,0.0,0.0,0.0,0.0,0.0,0.0,0.0,0.0,0.087,0.089,0.0977,0.1027,0.1097,0.1073,0.152,0.0,0.0,0.0,0.0,0.0,0.0,0.0,0.0,0.0,0.0,0.0,0.0,0.0,0.0,0.0,0.0,0.0,0.0,0.0,0.0,0.0,0.0,0.0,0.0,0.0,0.0,0.0,0.0,0.0,0.0,0.0,0.0,0.0,0.0,0.0,0.0,0.0,0.0,0.0,0.0,0.0,0.0,0.0,0.0,0.0,0.0,0.0,0.0,0.744,0.0,0.0,0.0,0.0,0.0,0.0,0.0,0.0,0.0,0.0,0.0,0.0,0.0,0.0,0.0,0.0,0.0,0.0,0.0,0.0,0.0,0.0,0.0,0.0,0.0,0.0,0.0,0.0,0.0,0.0,0.0,0.0,0.0,0.0,0.0,0.0,0.0,0.0,0.0,0.0,0.0,0.0,0.0,0.0,0.0,0.0,0.0,0.0,0.0,0.0,0.0,0.0,0.0,0.0,0.0,0.0,0.0,0.0,0.0,0.1055,0.092,0.1304,0.1484,0.1482,0.1442,0.1761,0.0,0.0,0.0,0.0,0.0,0.0,0.0,0.0,0.0,0.0,0.0,0.0,0.0,0.0,0.0,0.0,0.0,0.0,0.0,0.0,0.0,0.0,0.0,0.0,0.0,0.0,0.0,0.0,0.0,0.0,0.0,0.0,0.0,0.0,0.0,0.0,0.0,0.0,0.0,0.0,0.0,0.0,0.0,0.0,0.0,0.0,0.0,0.0,0.0,0.0,0.0,0.0,0.0,0.0,0.0,0.0,0.0,0.0,0.0,0.0,0.0,0.0,0.0,0.0,0.0,0.0,0.0,0.0,0.0,0.0,0.0,0.0,0.0,0.0,0.0,0.0,0.0,0.0,0.0,0.0,0.0,0.0,0.0,0.0,0.0,0.0,0.0,0.0,0.0,0.0,0.0,0.0,0.0,0.0,0.0,0.0,0.0,0.0,0.0,0.0,0.0,0.0,0.0,0.0,0.0,0.0,0.0,0.1272,0.1315,0.1127,0.1755,0.2064,0.1997,0.2057,0.2054,0.2,0.0,0.0,0.0,0.0,0.0,0.0,0.0,0.0,0.0,0.0,0.0,0.0,0.0,0.0,0.0,0.0,0.0,0.0,0.0,0.0,0.0,0.0,0.0,0.0,0.0,0.0,0.0,0.0,0.0,0.0,0.0,0.0,0.0,0.0,0.0,0.0,0.0,0.0,0.6789,0.6934,0.0,0.0,0.0,0.0,0.0,0.0,0.0,0.0,0.8303,0.0,0.0,0.0,0.0,0.0,0.0,0.0,0.0,0.0,0.0,0.0,0.0,0.0,0.0,0.0,0.0,0.0,0.0,0.0,0.0,0.0,0.0,0.0,0.0,0.0,0.0,0.0,0.0,0.0,0.0,0.0,0.0,0.0,0.0,0.0,0.0,0.0,0.0,0.0,0.0,0.0,0.0,0.0,0.0,0.0,0.0,0.0,0.0,0.0,0.0,0.0,0.0,0.0,0.0,0.0,0.0,0.1664,0.151,0.1501,0.1833,0.1963,0.1998,0.1996,0.214,0.2425,0.2817,0.0,0.0,0.0,0.0,0.0,0.0,0.0,0.0,0.0,0.0,0.0,0.0,0.0,0.0,0.0,0.0,0.0,0.0,0.0,0.0,0.0,0.0,0.0,0.0,0.0,0.0,0.0,0.0,0.0,0.0,0.0,0.0,0.0,0.0,0.0,0.0,0.0,0.0,0.0,0.6857,0.6918,0.0,0.0,0.0,0.0,0.0,0.0,0.0,0.0,0.7911,0.0,0.0,0.0,0.0,0.0,0.0,0.0,0.0,0.0,0.0,0.0,0.0,0.0,0.0,0.0,0.0,0.0,0.0,0.0,0.0,0.0,0.0,0.0,0.0,0.0,0.0,0.0,0.0,0.0,0.0,0.0,0.0,0.0,0.0,0.0,0.0,0.0,0.0,0.0,0.0,0.0,0.0,0.0,0.0,0.0,0.0,0.0,0.0,0.0,0.0,0.0,0.0,0.0,0.0,0.0,0.1561,0.1707,0.1805,0.1921,0.2293,0.2376,0.2153,0.2354,0.2809,0.0,0.0,0.0,0.0,0.0,0.0,0.0,0.0,0.0,0.0,0.0,0.0,0.0,0.0,0.0,0.0,0.0,0.0,0.0,0.0,0.0,0.0,0.0,0.0,0.0,0.0,0.0,0.0,0.0,0.0,0.0,0.0,0.0,0.0,0.0,0.0,0.0,0.0,0.0,0.0,0.6888,0.7045,0.6514,0.0,0.0,0.0,0.0,0.0,0.0,0.7924,0.7716,0.0,0.0,0.0,0.0,0.0,0.0,0.0,0.0,0.0,0.0,0.0,0.0,0.0,0.0,0.0,0.0,0.0,0.0,0.0,0.0,0.0,0.0,0.0,0.0,0.0,0.0,0.0,0.0,0.0,0.0,0.0,0.0,0.0,0.0,0.0,0.0,0.0,0.0,0.0,0.0,0.0,0.0,0.0,0.0,0.0,0.0,0.0,0.0,0.0,0.0,0.0,0.0,0.0,0.0,0.0,0.1564,0.2017,0.2158,0.2053,0.2651,0.2775,0.2413,0.2567,0.3135,0.0,0.0,0.0,0.0,0.0,0.0,0.0,0.0,0.0,0.0,0.0,0.0,0.0,0.0,0.0,0.0,0.0,0.0,0.0,0.0,0.0,0.0,0.0,0.0,0.0,0.0,0.0,0.0,0.0,0.0,0.0,0.0,0.0,0.0,0.0,0.0,0.0,0.0,0.0,0.0,0.0,0.7179,0.6536,0.7019,0.0,0.0,0.0,0.0,0.8507,0.805,0.0,0.0,0.0,0.0,0.0,0.0,0.0,0.0,0.0,0.0,0.0,0.0,0.0,0.0,0.0,0.0,0.0,0.0,0.0,0.0,0.0,0.0,0.0,0.0,0.0,0.0,0.0,0.0,0.0,0.0,0.0,0.0,0.0,0.0,0.0,0.0,0.0,0.0,0.0,0.0,0.0,0.0,0.0,0.0,0.0,0.0,0.0,0.0,0.0,0.0,0.0,0.0,0.0,0.0,0.0,0.0,0.2462,0.2343,0.2326,0.2646,0.2777,0.2779,0.2767,0.2738,0.3135,0.0,0.0,0.0,0.0,0.0,0.0,0.0,0.0,0.0,0.0,0.0,0.0,0.0,0.0,0.0,0.0,0.0,0.0,0.0,0.0,0.0,0.0,0.0,0.0,0.0,0.0,0.0,0.0,0.0,0.0,0.0,0.0,0.0,0.0,0.0,0.0,0.0,0.0,0.0,0.0,0.0,0.7094,0.7214,0.7151,0.7321,0.0,0.0,0.7803,0.892,0.8673,0.0,0.0,0.0,0.0,0.0,0.0,0.0,0.0,0.0,0.0,0.0,0.0,0.0,0.0,0.0,0.0,0.0,0.0,0.0,0.0,0.0,0.0,0.0,0.0,0.0,0.0,0.0,0.0,0.0,0.0,0.0,0.0,0.0,0.0,0.0,0.0,0.0,0.0,0.0,0.0,0.0,0.0,0.0,0.0,0.0,0.0,0.0,0.0,0.0,0.0,0.0,0.0,0.0,0.0,0.0,0.1912,0.24,0.2372,0.2441,0.2744,0.275,0.275,0.2748,0.2611,0.3011,0.0,0.0,0.0,0.0,0.0,0.0,0.0,0.0,0.0,0.0,0.0,0.0,0.0,0.0,0.0,0.0,0.0,0.0,0.0,0.0,0.0,0.0,0.0,0.0,0.0,0.0,0.0,0.0,0.0,0.0,0.0,0.0,0.0,0.0,0.0,0.0,0.0,0.0,0.0,0.0,0.0,0.0,0.7494,0.7267,0.0,0.0,0.0,0.74,0.8584,0.0,0.0,0.0,0.0,0.0,0.0,0.0,0.0,0.0,0.0,0.0,0.0,0.0,0.0,0.0,0.0,0.0,0.0,0.0,0.0,0.0,0.0,0.0,0.0,0.0,0.0,0.0,0.0,0.0,0.0,0.0,0.0,0.0,0.0,0.0,0.0,0.0,0.0,0.0,0.0,0.0,0.0,0.0,0.0,0.0,0.0,0.0,0.0,0.0,0.0,0.0,0.0,0.0,0.0,0.0,0.0,0.0,0.2289,0.2353,0.2505,0.2685,0.2691,0.2691,0.2689,0.2536,0.0,0.0,0.0,0.0,0.0,0.0,0.0,0.0,0.0,0.0,0.0,0.0,0.0,0.0,0.0,0.0,0.0,0.0,0.0,0.0,0.0,0.0,0.0,0.0,0.0,0.0,0.0,0.6418,0.0,0.0,0.0,0.0,0.0,0.0,0.0,0.0,0.0,0.0,0.0,0.0,0.0,0.0,0.8004,0.7616,0.7253,0.7053,0.0,0.0,0.735,0.8541,0.8254,0.8209,0.0,0.0,0.0,0.0,0.0,0.0,0.0,0.0,0.0,0.0,0.0,0.0,0.0,0.0,0.0,0.0,0.0,0.0,0.0,0.0,0.0,0.0,0.0,0.0,0.0,0.0,0.0,0.0,0.0,0.0,0.0,0.0,0.0,0.0,0.0,0.0,0.0,0.0,0.0,0.0,0.0,0.0,0.0,0.0,0.0,0.0,0.0,0.0,0.0,0.0,0.0,0.0,0.0,0.0,0.2198,0.2621,0.2509,0.2507,0.2683,0.2691,0.2691,0.2689,0.2649,0.2857,0.0,0.0,0.0,0.0,0.0,0.0,0.0,0.0,0.0,0.0,0.0,0.0,0.0,0.0,0.0,0.0,0.0,0.0,0.0,0.0,0.0,0.0,0.0,0.0,0.0,0.0,0.0,0.0,0.0,0.0,0.0,0.0,0.0,0.0,0.0,0.0,0.0,0.0,0.0,0.0,0.0,0.7776,0.7694,0.7119,0.7126,0.0,0.7913,0.8072,0.9354,0.9435,0.9363,0.9351,0.0,0.0,0.0,0.0,0.0,0.0,0.0,0.0,0.0,0.0,0.0,0.0,0.0,0.0,0.0,0.0,0.0,0.0,0.0,0.0,0.0,0.0,0.0,0.0,0.0,0.0,0.0,0.0,0.0,0.0,0.0,0.0,0.0,0.0,0.0,0.0,0.0,0.0,0.0,0.0,0.0,0.0,0.0,0.0,0.0,0.0,0.0,0.0,0.0,0.0,0.0,0.0,0.0,0.2405,0.2685,0.2511,0.2507,0.2683,0.2691,0.2691,0.2691,0.2548,0.2722,0.0,0.0,0.0,0.0,0.0,0.0,0.0,0.0,0.0,0.0,0.0,0.0,0.0,0.0,0.0,0.0,0.0,0.0,0.0,0.0,0.0,0.0,0.0,0.0,0.0,0.0,0.0,0.0,0.6783,0.7184,0.718,0.0,0.0,0.0,0.0,0.0,0.0,0.0,0.0,0.0,0.0,0.7495,0.7439,0.7376,0.0,0.0,0.8196,0.862,0.9361,0.9619,0.9602,0.9435,0.9999,0.0,0.0,0.0,0.0,0.0,0.0,0.0,0.0,0.0,0.0,0.0,0.0,0.0,0.0,0.0,0.0,0.0,0.0,0.0,0.0,0.0,0.0,0.0,0.0,0.0,0.0,0.0,0.0,0.0,0.0,0.0,0.0,0.0,0.0,0.0,0.0,0.0,0.0,0.0,0.0,0.0,0.0,0.0,0.0,0.0,0.0,0.0,0.0,0.0,0.0,0.0,0.0,0.2534,0.2689,0.2538,0.2534,0.2689,0.2691,0.2691,0.2687,0.254,0.2641,0.0,0.0,0.0,0.0,0.0,0.0,0.0,0.0,0.0,0.0,0.0,0.0,0.0,0.0,0.0,0.0,0.0,0.0,0.0,0.0,0.0,0.0,0.0,0.0,0.0,0.0,0.0,0.0,0.6958,0.7708,0.7936,0.0,0.0,0.0,0.0,0.0,0.0,0.0,0.0,0.0,0.0,0.7396,0.7396,0.768,0.7895,0.7997,0.8661,0.9261,0.9477,0.9907,1.0136,0.988,0.0,0.0,0.0,0.0,0.0,0.0,0.0,0.0,0.0,0.0,0.0,0.0,0.0,0.0,0.0,0.0,0.0,0.0,0.0,0.0,0.0,0.0,0.0,0.0,0.0,0.0,0.0,0.1567,0.0,0.0,0.3028,0.0,0.0,0.0,0.0,0.0,0.0,0.0,0.0,0.0,0.0,0.0,0.0,0.0,0.0,0.0,0.0,0.0,0.0,0.0,0.0,0.0,0.0,0.2597,0.2687,0.2597,0.2595,0.2687,0.2691,0.2691,0.2689,0.2599,0.2605,0.2605,0.0,0.0,0.0,0.0,0.0,0.0,0.0,0.0,0.0,0.0,0.0,0.0,0.0,0.0,0.0,0.0,0.0,0.0,0.0,0.0,0.0,0.0,0.0,0.0,0.0,0.0,0.6661,0.7114,0.7635,0.0,0.0,0.0,0.0,0.0,0.0,0.0,0.0,0.0,0.7777,0.767,0.767,0.767,0.7995,0.8299,0.8577,0.9389,0.9928,0.9778,1.0479,1.1025,0.0,0.0,0.0,0.0,0.0,0.0,0.0,0.0,0.0,0.0,0.0,0.0,0.0,0.0,0.0,0.0,0.0,0.0,0.0,0.0,0.0,0.0,0.0,0.0,0.0,0.0,0.0,0.0924,0.0576,0.0,0.0,0.0,0.0,0.0,0.0,0.0,0.0,0.0,0.0,0.0,0.0347,-0.0116,0.0,0.0,0.0,0.0,0.0,0.0,0.0,0.0,0.0,0.0,0.0,0.0,0.2054,0.2065,0.2,0.2054,0.2125,0.2521,0.2691,0.2689,0.2657,0.2578,0.2466,0.0,0.0,0.0,0.0,0.0,0.0,0.0,0.0,0.0,0.0,0.0,0.0,0.0,0.0,0.0,0.0,0.0,0.0,0.0,0.0,0.0,0.0,0.0,0.0,0.0,0.6966,0.0,0.0,0.0,0.0,0.0,0.0,0.0,0.0,0.0,0.0,0.0,0.761,0.7079,0.7025,0.702,0.7025,0.78,0.8346,0.0,0.0,0.0,0.0,0.0,0.0,0.0,0.0,0.0,0.0,0.0,0.0,0.0,0.0,1.1603,1.05,1.0632,1.0922,1.0922,0.0,0.0,0.0,0.0,0.0,0.0,0.0,0.0,0.0,0.0,0.0,0.0,0.0,0.0,-0.0235,-0.0302,0.0119,0.0,0.0,0.0,0.0,0.0,0.0,0.0,0.0,0.0765,0.018,-0.0365,-0.0731,-0.099,-0.1016,-0.0561,-0.0182,0.0,0.0,0.0,0.0,0.0,0.0,0.0,0.0,0.1771,0.1789,0.1532,0.1531,0.1789,0.2184,0.2465,0.2689,0.2655,0.258,0.2466,0.2771,0.2803,0.0,0.0,0.0,0.0,0.0,0.0,0.0,0.0,0.0,0.0,0.0,0.0,0.0,0.0,0.0,0.0,0.0,0.0,0.0,0.0,0.0,0.0,0.0,0.73,0.0,0.0,0.0,0.0,0.0,0.0,0.0,0.0,0.0,0.8156,0.7717,0.7376,0.7247,0.7133,0.7214,0.7623,0.0,0.0,0.0,0.0,0.0,0.0,0.0,1.1148,1.0568,1.1133,1.147,1.1025,1.1069,1.1367,1.1699,0.0,0.0,1.0155,1.0289,1.0574,1.0581,1.1308,1.179,1.1177,1.1283,1.124,0.0,0.0,0.0,0.0,0.0,0.0,0.0,0.0,-0.1901,-0.1854,0.0,-0.0975,0.0,0.0,0.0,0.0,0.1297,0.1282,0.0,0.0,0.0122,-0.0314,-0.097,-0.0972,-0.1051,-0.1078,-0.1076,-0.1061,-0.0902,0.0236,0.0,0.0,0.0,0.0,0.0,0.0,0.1791,0.1681,0.1173,0.1174,0.1679,0.1734,0.2071,0.2633,0.2607,0.2613,0.2607,0.2603,0.2607,0.2607,0.3498,0.0,0.0,0.0,0.0,0.0,0.0,0.0,0.0,0.0,0.0,0.0,0.0,0.0,0.0,0.0,0.0,0.0,0.0,0.0,0.0,0.7133,0.0,0.0,0.0,0.0,0.0,0.0,0.0,0.0,0.0,0.0,0.767,0.767,0.7823,0.8143,0.0,0.0,0.0,0.0,0.8948,0.928,0.9932,1.0361,1.0308,1.1243,1.1905,1.1517,0.0,0.0,1.1577,1.1018,1.0785,1.107,1.1233,1.1241,1.1563,1.1301,1.1092,1.1099,1.1409,1.163,1.1582,1.1619,1.1648,-0.1406,0.0,0.0,0.0,0.0,-0.0843,-0.118,-0.1802,-0.1591,-0.1588,-0.179,-0.1306,0.0,0.0,0.0,0.0,0.0,0.0,0.0453,-0.0,-0.0467,-0.0883,-0.1096,-0.1095,-0.1111,-0.1139,-0.1118,-0.1104,-0.1026,-0.072,-0.025,0.0359,0.0,0.0,0.0,0.0,0.0509,0.0504,0.0336,0.0336,0.0504,0.0951,0.1454,0.2015,0.2443,0.2621,0.2609,0.2607,0.2607,0.2607,0.3374,0.0,0.0,0.0,0.0,0.0,0.0,0.0,0.0,0.0,0.0,0.0,0.0,0.0,0.0,0.0,0.0,0.0,0.0,0.0,0.7079,0.7133,0.7187,0.0,0.0,0.0,0.0,0.0,0.0,0.0,0.0,0.0,0.73,0.73,0.7455,0.0,0.0,0.7505,0.8155,0.8569,0.8837,0.8955,0.9888,0.0,1.0151,1.0826,1.124,1.0763,1.1253,1.1735,1.1848,1.1748,1.1728,1.2036,1.2109,1.2109,1.221,1.1784,1.145,1.1443,1.1677,1.1889,1.1911,1.208,1.2248,-0.1328,-0.1181,-0.1157,-0.114,-0.113,-0.1129,-0.1424,-0.1732,-0.1358,-0.1364,-0.1742,-0.1338,-0.1098,-0.1076,-0.0591,0.0,0.0,0.0,-0.0273,-0.0479,-0.0913,-0.1145,-0.1156,-0.1157,-0.1172,-0.1275,-0.1172,-0.1157,-0.1156,-0.1126,-0.0951,-0.0519,0.0,0.0238,0.0597,0.0232,0.0057,-0.0,-0.0226,-0.0224,-0.0,0.0559,0.1174,0.179,0.2128,0.2441,0.2611,0.2663,0.2609,0.2663,0.3091,0.3447,0.0,0.0,0.0,0.0,0.0,0.0,0.0,0.0,0.0,0.0,0.0,0.7509,0.7574,0.0,0.0,0.0,0.7133,0.7031,0.6972,0.7031,0.0,0.0,0.0,0.0,0.0,0.0,0.0,0.732,0.7176,0.7122,0.7214,0.7225,0.7394,0.7907,0.7684,0.7695,0.8264,0.0,0.8726,0.8896,0.9479,0.9899,0.986,1.0456,1.0894,1.0574,1.0926,1.1227,1.1205,1.1189,1.1293,1.1577,1.175,1.1881,1.1992,1.1798,1.1622,1.1609,1.186,1.1999,1.1736,1.1978,1.2193,-0.1357,-0.135,-0.1294,-0.1252,-0.1223,-0.1223,-0.1222,-0.1221,-0.1193,-0.1226,-0.1294,-0.1214,-0.1191,-0.1211,-0.1155,0.0,-0.1091,-0.1117,-0.113,-0.1133,-0.1161,-0.1188,-0.1215,-0.1215,-0.123,-0.1335,-0.1229,-0.1215,-0.1213,-0.1187,-0.1157,-0.1053,-0.04,-0.0,0.0123,0.006,-0.0,-0.0059,-0.0629,-0.0619,-0.0056,0.0503,0.1118,0.1679,0.179,0.2071,0.2635,0.2691,0.2691,0.2691,0.2805,0.2916,0.2916,0.0,0.0,0.0,0.0,0.0,0.0,0.0,0.0,0.0,0.0,0.0,0.0,0.0,0.0,0.0,0.7085,0.0,0.6756,0.6977,0.0,0.0,0.0,0.7408,0.8209,0.7568,0.7252,0.7645,0.0,0.0,0.7394,0.7426,0.7591,0.809,0.814,0.8348,0.9045,0.8729,0.8599,0.9011,0.9059,0.9162,0.9672,1.0236,1.071,1.064,1.0737,1.0618,1.0283,1.0187,1.0212,1.0597,1.0759,1.1096,1.1209,1.1563,1.1694,1.1507,1.183,1.1891,1.1501,1.1614,1.1793,-0.1705,-0.1679,-0.1486,-0.1363,-0.1316,-0.1316,-0.1316,-0.1316,-0.1308,-0.1304,-0.1301,-0.1279,-0.1262,-0.1244,-0.1207,-0.1199,-0.1213,-0.1198,-0.1203,-0.1225,-0.1232,-0.1239,-0.1247,-0.1247,-0.125,-0.1335,-0.1249,-0.1247,-0.1246,-0.1316,-0.1209,-0.1156,-0.0978,-0.0805,-0.0703,-0.0744,-0.0724,-0.0707,-0.0819,-0.0806,-0.0673,-0.0112,0.0503,0.1118,0.1566,0.2071,0.2691,0.2691,0.2691,0.2691,0.2805,0.297,0.3023,0.3437,0.0,0.0,0.0,0.0,0.0,0.0,0.0,0.0,0.0,0.6834,0.7079,0.0,0.6598,0.0,0.7101,0.7085,0.7031,0.7031,0.0,0.0,0.7139,0.7192,0.7408,0.7246,0.7209,0.7455,0.7359,0.7451,0.7688,0.772,0.7715,0.7885,0.7891,0.8045,0.8578,0.8736,0.8798,0.8943,0.9377,0.9794,0.9857,1.004,1.0218,1.0218,1.0218,1.0219,1.0366,1.0536,1.0772,1.1121,1.1325,1.1522,1.15,1.1668,1.1514,1.1169,1.142,1.1822,1.1872,1.1898,1.2005,-0.1646,-0.1615,-0.1436,-0.1416,-0.13,-0.13,-0.13,-0.13,-0.13,-0.1378,-0.1361,-0.1348,-0.1318,-0.1277,-0.126,-0.1254,-0.1257,-0.1254,-0.1254,-0.1336,-0.1351,-0.135,-0.1336,-0.1336,-0.1336,-0.1336,-0.1336,-0.1336,-0.1336,-0.1336,-0.131,-0.1187,-0.1156,-0.1118,-0.1005,-0.1016,-0.098,-0.0963,-0.0936,-0.0857,-0.0898,-0.0561,-0.0,0.0913,0.124,0.1804,0.2691,0.2713,0.2711,0.2748,0.2864,0.3033,0.3031,0.3261,0.3705,0.0,0.0,0.0,0.0,0.0,0.0,0.0,0.0,0.0,0.0,0.0,0.6436,0.7058,0.7095,0.7133,0.7133,0.7133,0.7133,0.7133,0.7133,0.7133,0.7139,0.7182,0.73,0.7378,0.7485,0.7698,0.7925,0.7957,0.8,0.8102,0.8124,0.8172,0.8375,0.857,0.8691,0.876,0.9053,0.9454,0.9646,0.9709,0.9703,0.9709,0.9703,0.9701,0.9652,0.9735,0.9926,1.0257,1.0438,1.0658,1.0692,1.0822,1.0738,1.0588,1.0663,1.0988,1.1224,1.1189,1.1201,-0.1838,-0.18,-0.171,-0.1618,-0.1614,-0.1436,-0.1436,-0.1436,-0.1436,-0.1436,-0.1433,-0.1407,-0.1367,-0.132,-0.1315,-0.1299,-0.1276,-0.1298,-0.1294,-0.135,-0.1296,-0.1292,-0.1342,-0.1346,-0.1346,-0.1342,-0.1342,-0.1342,-0.1341,-0.1338,-0.1242,-0.1212,-0.1185,-0.1157,-0.1125,-0.1046,-0.0999,-0.0988,-0.0932,-0.0903,-0.0903,-0.0903,-0.0286,0.0937,0.091,0.1474,0.2687,0.2732,0.2728,0.2803,0.2982,0.3036,0.2978,0.3166,0.3587,0.0,0.4193,0.0,0.0,0.0,0.0,0.0,0.0,0.0,0.0,0.5994,0.6263,0.681,0.6869,0.6864,0.6864,0.6864,0.6933,0.7014,0.7019,0.7084,0.7176,0.7365,0.7453,0.7537,0.7725,0.793,0.8218,0.8256,0.8285,0.8441,0.8474,0.8414,0.8269,0.8382,0.856,0.8517,0.8517,0.8765,0.9081,0.921,0.921,0.921,0.921,0.9022,0.8652,0.863,0.8651,0.8956,0.9216,0.9433,0.9583,0.9798,0.9916,0.9922,0.9997,1.0079,1.0285,1.0225,1.0126,-0.4074,-0.3851,-0.3119,-0.2729,-0.251,-0.1704,-0.1436,-0.1436,-0.1436,-0.1436,-0.1435,-0.1429,-0.142,-0.1408,-0.1384,-0.137,-0.1363,-0.1347,-0.1336,-0.1331,-0.1337,-0.1323,-0.1296,-0.132,-0.1318,-0.1295,-0.1294,-0.1294,-0.1293,-0.1348,-0.1242,-0.1213,-0.1206,-0.1188,-0.1157,0.0,0.0,0.0,-0.0953,-0.0876,-0.0875,-0.0875,-0.0292,0.088,0.091,0.0,0.2657,0.2701,0.2699,0.2715,0.2886,0.0,0.0,0.0,0.0,0.0,0.0,0.0,0.0,0.0,0.0,0.0,0.3854,0.4149,0.4912,0.4982,0.5175,0.5605,0.566,0.5664,0.5664,0.5664,0.594,0.6604,0.668,0.6924,0.7576,0.7704,0.7801,0.7995,0.8115,0.8172,0.8393,0.8447,0.8458,0.8501,0.8517,0.8501,0.8452,0.8479,0.8511,0.8517,0.8517,0.8511,0.8646,0.8705,0.8705,0.8641,0.8641,0.8641,0.8522,0.8673,0.8867,0.9082,0.934,0.9567,0.9798,0.9895,0.9922,0.9922,0.9922,0.9997,1.0239,1.0256,1.0304,-0.4708,-0.4491,-0.3519,-0.3301,0.0,-0.207,-0.1704,-0.2061,-0.1614,-0.1436,-0.1436,-0.1436,-0.1427,-0.1412,-0.1397,-0.1382,-0.1369,-0.1369,-0.1361,-0.1349,-0.1363,-0.1353,-0.1325,-0.1341,-0.134,-0.1326,-0.1325,-0.1325,-0.1324,-0.1294,-0.1272,-0.1256,-0.1227,-0.1204,-0.1187,-0.1128,-0.107,-0.1011,-0.0981,-0.0958,-0.0944,-0.0943,-0.0471,0.047,0.0796,0.0,0.0,0.0,0.0,0.0,0.0,0.0,0.0,0.3193,0.0,0.3613,0.3776,0.3841,0.4017,0.4022,0.3931,0.3686,0.352,0.3738,0.4355,0.4459,0.4681,0.5121,0.5237,0.5293,0.5297,0.5429,0.5686,0.6065,0.6136,0.642,0.7116,0.7355,0.7649,0.8135,0.8321,0.8382,0.8495,0.8517,0.8517,0.8517,0.8517,0.8517,0.8517,0.8517,0.8517,0.8517,0.8517,0.8517,0.8517,0.8517,0.8517,0.8517,0.8517,0.8517,0.8517,0.8608,0.877,0.8996,0.9233,0.9464,0.9701,0.9836,0.9922,0.9922,0.9922,0.9954,1.0089,1.0105,1.0223,-0.5439,-0.5244,-0.4206,-0.416,-0.4601,-0.28,-0.2419,-0.2868,-0.1883,0.0,0.0,-0.1436,-0.1421,-0.1398,-0.1397,-0.1386,-0.128,-0.1388,-0.1385,-0.1279,-0.1387,-0.1382,-0.1271,-0.1276,-0.1276,-0.127,-0.127,-0.1356,-0.1354,-0.1325,-0.1308,-0.1299,-0.1252,-0.1222,-0.1208,-0.1138,-0.1083,-0.0984,-0.1014,-0.0984,-0.09,-0.0959,-0.0657,0.0059,0.0517,0.1083,0.1687,0.2273,0.256,0.2642,0.2882,0.3004,0.3021,0.3218,0.3287,0.3271,0.3341,0.3487,0.3692,0.3703,0.3703,0.3724,0.3525,0.3491,0.3966,0.4074,0.4299,0.467,0.4872,0.494,0.4973,0.5166,0.5453,0.554,0.5609,0.586,0.6576,0.6839,0.7269,0.7918,0.8191,0.8382,0.8511,0.8517,0.8517,0.8517,0.8517,0.8517,0.8517,0.8517,0.8517,0.8517,0.8517,0.8517,0.8517,0.8517,0.8517,0.8517,0.8517,0.8517,0.8517,0.8549,0.8662,0.8921,0.9114,0.9373,0.9604,0.9803,0.9916,0.9922,0.9922,0.9846,0.9841,0.9841,1.0051,-0.7815,-0.7578,-0.657,-0.5983,-0.5606,-0.4961,-0.4117,-0.3138,-0.1973,-0.1436,-0.1436,-0.1436,-0.1433,-0.1429,-0.1429,-0.1427,-0.1334,-0.1427,-0.1427,-0.1423,-0.1427,-0.1413,-0.1386,-0.1411,-0.141,-0.1385,-0.1384,-0.1384,-0.1381,-0.1355,-0.1329,-0.1305,-0.1294,-0.1263,-0.1215,-0.1199,-0.1165,-0.111,-0.1055,-0.1025,-0.1021,-0.1021,-0.0692,-0.0122,0.0059,0.0404,0.1014,0.1628,0.1932,0.2053,0.2472,0.2799,0.299,0.2946,0.3009,0.3182,0.3256,0.327,0.3413,0.3542,0.3594,0.3476,0.327,0.3223,0.3498,0.3547,0.3507,0.3538,0.3675,0.3688,0.3725,0.3936,0.4362,0.5143,0.529,0.559,0.6282,0.6461,0.6742,0.7464,0.7632,0.7857,0.8317,0.8447,0.8447,0.8517,0.8517,0.8517,0.8517,0.8517,0.8517,0.8517,0.8517,0.8517,0.8517,0.8517,0.8517,0.8517,0.8517,0.8517,0.8517,0.8667,0.8861,0.9109,0.933,0.9577,0.9809,0.989,0.9916,0.9922,0.9922,0.9771,0.9549,0.97,0.9954,-0.8393,-0.8203,-0.72,-0.6886,-0.6999,-0.5888,-0.483,-0.3758,-0.2688,-0.1883,-0.1436,-0.1436,-0.1436,-0.1436,-0.1436,-0.1436,-0.1436,-0.1436,-0.1436,-0.1436,-0.1436,-0.1427,-0.1416,-0.1428,-0.1428,-0.1415,-0.1414,-0.1414,-0.1412,-0.1385,-0.1356,-0.1326,-0.1295,-0.1272,-0.126,-0.1228,-0.1198,-0.117,-0.1111,-0.1065,-0.1035,-0.1034,-0.0891,-0.0556,-0.0243,0.006,0.0354,0.0943,0.1247,0.1325,0.1749,0.1943,0.1783,0.2062,0.2271,0.2526,0.2624,0.2906,0.3427,0.3538,0.3563,0.3624,0.3361,0.3213,0.3301,0.3249,0.3263,0.3219,0.3321,0.3393,0.3473,0.3622,0.3963,0.4466,0.4537,0.4885,0.5657,0.5807,0.6071,0.6728,0.6929,0.719,0.7857,0.7982,0.8117,0.8382,0.8517,0.8517,0.8517,0.8517,0.8517,0.8517,0.8517,0.8517,0.8517,0.8517,0.8517,0.8517,0.8517,0.8517,0.8528,0.8711,0.8937,0.9168,0.941,0.9653,0.9879,0.9922,0.9922,0.9922,0.9922,0.9771,0.97,0.9771,0.9846,-0.863,-0.8506,-0.7706,-0.7546,-0.7752,-0.6613,-0.5539,-0.4645,-0.3956,-0.2967,-0.1973,-0.1524,-0.1436,-0.1436,-0.1436,-0.1436,-0.1436,-0.1436,-0.1436,-0.1436,-0.1436,-0.1436,-0.1436,-0.1436,-0.1436,-0.1436,-0.1436,-0.1436,-0.1432,-0.1412,-0.1385,-0.1355,-0.1304,-0.1286,-0.1301,-0.1256,-0.1226,-0.121,-0.1166,-0.1112,-0.1056,-0.0987,-0.1036,-0.1001,-0.0561,-0.031,-0.0246,0.0246,0.0617,0.0621,0.1057,0.1123,0.088,0.0899,0.1236,0.1759,0.1923,0.235,0.3159,0.3362,0.3496,0.3625,0.336,0.3226,0.3222,0.3162,0.3109,0.3097,0.3236,0.3374,0.3423,0.3561,0.3828,0.3961,0.403,0.4289,0.4951,0.508,0.5345,0.6001,0.6137,0.6465,0.706,0.726,0.7521,0.8052,0.8382,0.8517,0.8517,0.8517,0.8517,0.8517,0.8517,0.8517,0.8517,0.8517,0.8517,0.8517,0.8517,0.8517,0.8549,0.8711,0.8937,0.9168,0.9405,0.9647,0.9863,0.9922,0.9922,0.9922,0.9922,0.9846,0.9846,0.9771,0.9771,-0.9137,-0.9083,-0.8665,-0.8162,-0.7563,-0.734,-0.6786,-0.5994,-0.5918,-0.5001,-0.3317,-0.1973,-0.1437,-0.1436,-0.1436,-0.1437,-0.1436,-0.1436,-0.1436,-0.1436,-0.1436,-0.1436,-0.1436,-0.1436,-0.1436,-0.1436,-0.1436,-0.1436,-0.1436,-0.143,-0.1415,-0.1386,-0.1354,-0.1326,-0.1306,-0.1296,-0.1267,-0.1213,-0.1206,-0.1174,-0.1117,-0.1112,-0.1086,-0.1031,-0.0965,-0.0889,-0.0869,-0.0369,-0.0,0.0128,0.0577,0.0908,0.0929,-0.0134,-0.0201,0.1202,0.1405,0.1743,0.2417,0.2956,0.3159,0.3228,0.323,0.3163,0.3161,0.3222,0.3179,0.3128,0.3166,0.3304,0.337,0.3506,0.3694,0.3961,0.403,0.4097,0.4364,0.4367,0.4628,0.5342,0.5408,0.5672,0.633,0.6531,0.6859,0.7456,0.8052,0.8382,0.8382,0.8452,0.8517,0.8517,0.8517,0.8517,0.8517,0.8517,0.8517,0.8517,0.8517,0.8517,0.856,0.8711,0.901,0.9163,0.941,0.9653,0.9836,0.9922,0.9922,0.9922,0.9922,0.9922,0.9841,0.9695,0.9544,-0.9137,-0.9201,-0.9052,-0.852,-0.7959,-0.7768,-0.7499,-0.7153,-0.675,-0.5769,-0.447,-0.3138,-0.2293,-0.1617,-0.1544,-0.1453,-0.1436,-0.1436,-0.1436,-0.1436,-0.1436,-0.1436,-0.1436,-0.1436,-0.1436,-0.1436,-0.1436,-0.1436,-0.1433,-0.1418,-0.141,-0.1411,-0.1371,-0.135,-0.1351,-0.132,-0.129,-0.1266,-0.1247,-0.1217,-0.1176,-0.1139,-0.111,-0.1087,-0.1067,-0.1053,-0.1042,-0.0844,-0.0718,-0.066,-0.0462,-0.0266,-0.0201,-0.0806,-0.0605,0.0402,0.094,0.1342,0.1743,0.188,0.2014,0.208,0.2797,0.301,0.2695,0.3046,0.333,0.3203,0.3205,0.3276,0.3447,0.3476,0.3629,0.3828,0.3961,0.4097,0.43,0.4303,0.4431,0.4694,0.4691,0.4951,0.5609,0.6133,0.6461,0.6859,0.7456,0.7857,0.7917,0.8252,0.8517,0.8517,0.8517,0.8517,0.8517,0.8517,0.8517,0.8517,0.8517,0.8517,0.8544,0.8711,0.9005,0.9157,0.9394,0.9631,0.9873,0.9916,0.9922,0.9922,0.9922,0.9922,0.9922,0.9771,0.9771,-0.9331,-0.9284,-0.92,-0.8898,-0.8345,-0.8166,-0.8166,-0.8095,-0.7506,-0.6713,-0.5768,-0.4676,-0.3594,-0.2473,-0.1844,-0.1468,-0.1448,-0.1439,-0.1436,-0.1436,-0.1444,-0.1444,-0.1437,-0.1453,-0.1455,-0.1448,-0.1448,-0.1444,-0.1434,-0.1414,-0.1414,-0.1425,-0.1393,-0.1378,-0.1383,-0.1338,-0.1311,-0.13,-0.1273,-0.1324,-0.122,-0.1173,-0.1138,-0.1121,-0.1099,-0.1084,-0.1076,-0.1076,-0.1076,-0.1075,-0.1076,-0.108,-0.1088,-0.1089,-0.0887,-0.0343,0.041,0.0815,0.095,0.1012,0.1141,0.1277,0.2273,0.264,0.2476,0.2981,0.3434,0.3397,0.3279,0.333,0.35,0.3431,0.356,0.3825,0.3894,0.403,0.4233,0.4303,0.4303,0.4303,0.4367,0.4431,0.5017,0.5609,0.6067,0.6133,0.6728,0.7326,0.7456,0.7917,0.8247,0.8447,0.8517,0.8517,0.8517,0.8517,0.8517,0.8517,0.8517,0.8517,0.8517,0.8678,0.8907,0.9007,0.9297,0.9545,0.9739,0.982,0.983,0.9916,0.9922,0.9922,0.9922,0.9922,0.9922,-0.9525,-0.96,-0.9421,-0.9127,-0.8683,-0.8672,-0.8676,-0.8664,-0.8764,-0.8372,-0.7335,-0.6301,-0.5301,-0.4074,-0.243,-0.1481,-0.1475,-0.1451,-0.1441,-0.1443,-0.1467,-0.1463,-0.144,-0.1493,-0.1506,-0.148,-0.1478,-0.1466,-0.144,-0.1436,-0.1433,-0.1435,-0.1431,-0.1416,-0.1392,-0.1362,-0.1332,-0.1309,-0.1277,-0.1335,-0.1252,-0.1224,-0.1179,-0.1132,-0.1121,-0.1106,-0.1082,-0.1076,-0.1076,-0.1076,-0.1078,-0.1089,-0.1115,-0.1119,-0.1131,-0.1008,-0.0354,0.007,0.0139,0.0616,0.1013,0.1082,0.1389,0.1963,0.2101,0.2737,0.3352,0.3763,0.3545,0.3477,0.3522,0.3435,0.3496,0.3894,0.3894,0.3961,0.4233,0.4303,0.4303,0.4303,0.4303,0.4367,0.4431,0.4951,0.5279,0.5474,0.6001,0.6597,0.7125,0.7391,0.7787,0.8252,0.8447,0.8511,0.8517,0.8517,0.8517,0.8517,0.8517,0.8517,0.8517,0.8554,0.8694,0.8845,0.9002,0.9237,0.9545,0.9717,0.9761,0.9809,0.9911,0.9916,0.9922,0.9922,0.9922,-0.9555,-0.9449,-0.938,-0.925,-0.9003,-0.8995,-0.8995,-0.9015,-0.9184,-0.8649,-0.7767,-0.7242,-0.6374,-0.5312,-0.3575,-0.2477,-0.1793,-0.1592,-0.1493,-0.1494,-0.1505,-0.1504,-0.1498,-0.1517,-0.1521,-0.1511,-0.151,-0.1504,-0.1495,-0.1493,-0.1483,-0.1467,-0.1464,-0.1449,-0.1419,-0.1389,-0.1369,-0.1355,-0.1312,-0.1286,-0.1282,-0.1256,-0.1221,-0.1181,-0.1159,-0.1136,-0.1106,-0.1105,-0.1105,-0.1105,-0.1105,-0.1118,-0.1146,-0.115,-0.1155,-0.1164,-0.0939,-0.079,-0.0718,-0.0499,-0.0354,-0.0355,-0.0145,0.0292,0.0944,0.1637,0.2565,0.3603,0.3901,0.3905,0.3894,0.3603,0.3493,0.3825,0.3894,0.403,0.4233,0.4303,0.4303,0.4303,0.4303,0.4303,0.4367,0.4498,0.4625,0.4758,0.5282,0.5741,0.6067,0.6465,0.706,0.7657,0.7852,0.7982,0.8511,0.8517,0.8517,0.8517,0.8517,0.8517,0.8517,0.8517,0.8624,0.8708,0.8811,0.8896,0.9143,0.9285,0.9479,0.9675,0.9707,0.9916,0.9922,0.9922,0.9922,-0.9555,-0.9449,-0.9441,-0.938,-0.9275,-0.9267,-0.9267,-0.9283,-0.9393,-0.9053,-0.8391,-0.798,-0.7319,-0.6415,-0.4954,-0.3823,-0.3004,-0.2014,-0.1526,-0.1528,-0.1536,-0.1535,-0.1531,-0.1546,-0.155,-0.1542,-0.154,-0.1536,-0.1527,-0.1526,-0.151,-0.1482,-0.148,-0.1466,-0.1436,-0.1405,-0.1386,-0.1369,-0.1328,-0.1299,-0.1288,-0.1347,-0.1248,-0.1228,-0.1206,-0.1176,-0.1138,-0.1136,-0.1136,-0.1136,-0.1136,-0.1149,-0.1178,-0.1191,-0.1196,-0.127,-0.1186,-0.1181,-0.1179,-0.1172,-0.1166,-0.1168,-0.1118,-0.0751,0.0148,0.0843,0.1998,0.3247,0.4124,0.4313,0.4109,0.383,0.3734,0.3904,0.3961,0.4113,0.4276,0.4325,0.4306,0.4303,0.4303,0.4303,0.4303,0.4303,0.43,0.4303,0.4691,0.5017,0.5345,0.5672,0.633,0.6994,0.7125,0.7451,0.7852,0.8052,0.8317,0.8382,0.8517,0.8517,0.8517,0.8517,0.8495,0.8578,0.8576,0.8569,0.8679,0.8893,0.9078,0.9348,0.9675,0.9922,0.9922,0.9922,0.9846,-0.9624,-0.9612,-0.9624,-0.9604,-0.9579,-0.9575,-0.9608,-0.9587,-0.9604,-0.9497,-0.9296,-0.8524,-0.812,-0.7621,-0.6307,-0.5511,-0.507,-0.3009,-0.1824,-0.1729,-0.1657,-0.1558,-0.1538,-0.1585,-0.1594,-0.1573,-0.1571,-0.1558,-0.1536,-0.1535,-0.1519,-0.149,-0.1486,-0.1471,-0.1438,-0.141,-0.138,-0.1357,-0.1326,-0.1294,-0.1342,-0.1339,-0.1256,-0.1333,-0.133,-0.1225,-0.1172,-0.1168,-0.1167,-0.1166,-0.1166,-0.1181,-0.1211,-0.1235,-0.1332,-0.1323,-0.1227,-0.1214,-0.1209,-0.1188,-0.1176,-0.118,-0.1198,-0.0912,-0.0152,0.0619,0.1487,0.2484,0.3832,0.4463,0.4117,0.3975,0.4035,0.4263,0.4131,0.4157,0.4423,0.4371,0.4306,0.4314,0.4311,0.4303,0.4303,0.4303,0.4303,0.43,0.4364,0.4625,0.5017,0.5213,0.5606,0.6133,0.64,0.6662,0.7125,0.7526,0.7922,0.8252,0.8447,0.8517,0.8517,0.8517,0.8447,0.8427,0.8368,0.8358,0.8142,0.8348,0.862,0.8932,0.9357,0.9669,0.962,0.9539,0.962,-0.9624,-0.9624,-0.9624,-0.9624,-0.9624,-0.9624,-0.9624,-0.9624,-0.9624,-0.9624,-0.9525,-0.9225,-0.9126,-0.8722,-0.7422,-0.6722,-0.6515,-0.4664,-0.3364,-0.2676,-0.1995,-0.1597,-0.1593,-0.1607,-0.1612,-0.1604,-0.1603,-0.1598,-0.1589,-0.1588,-0.1573,-0.1545,-0.1521,-0.1496,-0.1465,-0.1437,-0.1415,-0.1404,-0.1358,-0.1328,-0.1316,-0.1278,-0.1337,-0.1336,-0.1336,-0.1325,-0.1306,-0.1209,-0.1198,-0.1198,-0.1198,-0.1212,-0.1239,-0.1252,-0.1336,-0.1335,-0.1249,-0.1243,-0.1243,-0.1234,-0.1303,-0.1306,-0.1238,-0.1165,-0.0932,-0.0625,-0.0,0.1096,0.3189,0.4791,0.4699,0.4556,0.4447,0.4204,0.4127,0.4255,0.455,0.4563,0.4428,0.4406,0.4349,0.4306,0.4303,0.4306,0.4303,0.4303,0.4303,0.4431,0.4561,0.4691,0.4888,0.5477,0.5609,0.5935,0.6465,0.6793,0.7125,0.7657,0.8052,0.8447,0.8447,0.8517,0.8447,0.8268,0.8139,0.7969,0.7749,0.7859,0.8217,0.8461,0.8778,0.8965,0.9054,0.916,0.9236,-0.9624,-0.9624,-0.9624,-0.9624,-0.9624,-0.9624,-0.9529,-0.943,-0.9426,-0.9426,-0.9327,-0.9324,-0.9324,-0.9122,-0.8124,-0.7624,-0.7524,-0.6027,-0.5027,-0.4227,-0.2823,-0.2019,-0.1617,-0.1617,-0.1617,-0.1617,-0.1617,-0.1617,-0.1617,-0.1615,-0.1601,-0.157,-0.1541,-0.151,-0.148,-0.1451,-0.1431,-0.1415,-0.1382,-0.1358,-0.134,-0.1299,-0.1274,-0.1352,-0.1342,-0.1337,-0.1256,-0.1239,-0.1228,-0.1229,-0.1228,-0.1239,-0.1256,-0.1336,-0.1336,-0.1336,-0.1336,-0.1335,-0.1336,-0.1333,-0.1336,-0.1336,-0.1336,-0.1336,-0.1257,-0.1179,-0.0785,0.0078,0.172,0.3663,0.4699,0.4941,0.4672,0.435,0.4352,0.4443,0.4635,0.4629,0.4583,0.4537,0.4442,0.4379,0.4363,0.4317,0.4306,0.4303,0.4303,0.4303,0.4303,0.43,0.4628,0.4821,0.4888,0.5282,0.587,0.6133,0.6334,0.6929,0.7591,0.8117,0.8382,0.8447,0.8447,0.8052,0.7836,0.7536,0.7382,0.759,0.7865,0.8075,0.8286,0.8665,0.8856,0.8856,0.8856,-0.9624,-0.9624,-0.9624,-0.9624,-0.9624,-0.9529,-0.943,-0.9236,-0.9137,-0.9031,-0.8924,-0.8924,-0.8825,-0.8726,-0.8428,-0.823,-0.8131,-0.7132,-0.6334,-0.5732,-0.4327,-0.3025,-0.202,-0.1717,-0.1617,-0.1617,-0.1617,-0.1617,-0.1617,-0.1616,-0.1603,-0.1577,-0.1548,-0.1517,-0.1492,-0.1456,-0.1429,-0.1411,-0.1395,-0.1375,-0.1352,-0.1322,-0.1302,-0.1299,-0.1277,-0.1341,-0.1335,-0.1333,-0.1333,-0.1256,-0.1254,-0.1333,-0.1336,-0.1336,-0.1336,-0.1336,-0.1336,-0.1336,-0.1336,-0.1336,-0.1336,-0.1336,-0.1336,-0.1336,-0.1258,-0.1021,-0.0706,-0.047,0.0157,0.1566,0.4062,0.4783,0.4686,0.466,0.4664,0.4711,0.4759,0.4768,0.4746,0.4664,0.4561,0.4474,0.4461,0.4374,0.433,0.4303,0.4303,0.4303,0.4303,0.4303,0.4303,0.4367,0.4498,0.4691,0.5282,0.5282,0.5547,0.6133,0.6793,0.7391,0.8117,0.8317,0.8317,0.7922,0.7606,0.7242,0.7103,0.7285,0.7459,0.7671,0.7977,0.8468,0.8551,0.8399,0.8399,-0.9624,-0.9624,-0.9624,-0.9624,-0.9529,-0.943,-0.9236,-0.9137,-0.9031,-0.8931,-0.8931,-0.8829,-0.8726,-0.8623,-0.8432,-0.8432,-0.8233,-0.7839,-0.7039,-0.6437,-0.5934,-0.4427,-0.2923,-0.2019,-0.1617,-0.1617,-0.1617,-0.1617,-0.1617,-0.1617,-0.1612,-0.1604,-0.1573,-0.1555,-0.1542,-0.1492,-0.1467,-0.1451,-0.141,-0.1388,-0.1377,-0.1351,-0.1324,-0.1303,-0.1295,-0.1279,-0.134,-0.1336,-0.1336,-0.1336,-0.1336,-0.1336,-0.1336,-0.1336,-0.1336,-0.1336,-0.1336,-0.1336,-0.1336,-0.1336,-0.1336,-0.1336,-0.1336,-0.1336,-0.1336,-0.1179,-0.0786,-0.0392,-0.0,0.1019,0.3136,0.3818,0.4051,0.4768,0.4862,0.4901,0.4896,0.4863,0.4819,0.4779,0.4675,0.4583,0.4507,0.4452,0.4401,0.4341,0.4317,0.4314,0.4325,0.4303,0.4303,0.4303,0.4367,0.4431,0.4495,0.4561,0.4824,0.5408,0.5935,0.6396,0.7321,0.8052,0.7982,0.7722,0.7526,0.7202,0.6924,0.6867,0.702,0.7385,0.7575,0.7999,0.7859,0.7787,0.7787,-1.089,-1.0886,-1.089,-1.0699,-1.0306,-1.001,-0.9521,-0.9031,-0.873,-0.8634,-0.8634,-0.8535,-0.8432,-0.8329,-0.8233,-0.8233,-0.8237,-0.8038,-0.7637,-0.7138,-0.6537,-0.5432,-0.3925,-0.2823,-0.2322,-0.222,-0.1819,-0.1617,-0.1617,-0.1617,-0.1617,-0.161,-0.1586,-0.1566,-0.1545,-0.1508,-0.1474,-0.1457,-0.1425,-0.1409,-0.1406,-0.138,-0.1361,-0.1339,-0.1328,-0.1307,-0.128,-0.1344,-0.1336,-0.1336,-0.1336,-0.1336,-0.1336,-0.1336,-0.1336,-0.1336,-0.1336,-0.1336,-0.1336,-0.1336,-0.1336,-0.1336,-0.1336,-0.1179,-0.11,-0.1022,-0.0786,-0.0629,-0.0235,0.0628,0.1804,0.3134,0.4231,0.4859,0.5018,0.5018,0.5018,0.4955,0.4917,0.4885,0.4806,0.4708,0.4624,0.458,0.4591,0.4463,0.4412,0.4395,0.4379,0.4338,0.4303,0.4303,0.4308,0.4378,0.4381,0.4381,0.447,0.4928,0.5339,0.5792,0.6519,0.7447,0.7424,0.7297,0.7279,0.7202,0.698,0.6945,0.7216,0.7425,0.745,0.7536,0.7553,0.7557,0.7557,-1.2732,-1.263,-1.263,-1.2145,-1.1272,-1.0877,-1.0002,-0.9019,-0.8531,-0.8233,-0.8141,-0.8038,-0.8038,-0.8038,-0.8038,-0.8038,-0.8038,-0.8038,-0.8038,-0.7637,-0.7036,-0.6134,-0.5325,-0.3925,-0.3324,-0.3024,-0.212,-0.1818,-0.1616,-0.1617,-0.1617,-0.1612,-0.159,-0.1566,-0.155,-0.1513,-0.1478,-0.1465,-0.145,-0.144,-0.1434,-0.1412,-0.1391,-0.1377,-0.1353,-0.1328,-0.1301,-0.1279,-0.1342,-0.1336,-0.1336,-0.1336,-0.1336,-0.1336,-0.1336,-0.1336,-0.1336,-0.1336,-0.1336,-0.1336,-0.1336,-0.1336,-0.1336,-0.1179,-0.0943,-0.0864,-0.1022,-0.11,-0.055,-0.0,0.0942,0.3059,0.4394,0.4862,0.5018,0.494,0.5018,0.5018,0.5018,0.5015,0.4912,0.4863,0.4809,0.4749,0.4662,0.4637,0.4518,0.448,0.4461,0.4436,0.4368,0.4303,0.4314,0.433,0.433,0.4333,0.4365,0.4589,0.495,0.5358,0.5823,0.6415,0.6572,0.6635,0.6937,0.7185,0.7255,0.7292,0.7513,0.7703,0.7921,0.7753,0.7638,0.7714,0.7714,-1.2533,-1.2339,-1.2431,-1.2155,-1.1673,-1.069,-1.0002,-0.9608,-0.8528,-0.8038,-0.8038,-0.8038,-0.8038,-0.8038,-0.8038,-0.8038,-0.8038,-0.8038,-0.8038,-0.7939,-0.7836,-0.7537,-0.683,-0.5427,-0.4124,-0.3524,-0.3024,-0.2422,-0.1818,-0.1717,-0.1617,-0.1615,-0.1609,-0.1603,-0.1589,-0.1558,-0.1549,-0.1534,-0.1495,-0.1472,-0.1466,-0.1444,-0.1418,-0.1396,-0.1366,-0.1335,-0.1309,-0.1297,-0.1282,-0.1343,-0.1336,-0.1336,-0.1336,-0.1336,-0.1336,-0.1336,-0.1336,-0.1336,-0.1336,-0.1336,-0.1336,-0.1336,-0.1336,-0.1258,-0.1179,-0.11,-0.1179,-0.1258,-0.11,-0.0314,0.0941,0.2275,0.3686,0.4548,0.4859,0.4859,0.494,0.5018,0.5018,0.501,0.4991,0.4944,0.4855,0.4833,0.476,0.4751,0.4693,0.464,0.4621,0.4537,0.4466,0.4387,0.4404,0.4433,0.4428,0.4425,0.4431,0.445,0.474,0.4944,0.5424,0.5682,0.5942,0.6333,0.6838,0.6999,0.7233,0.7662,0.7868,0.8128,0.8298,0.8134,0.8021,0.7944,0.7791,-1.3986,-1.3794,-1.3794,-1.3414,-1.2549,-1.1272,-1.0489,-0.9801,-0.8528,-0.8038,-0.8038,-0.8038,-0.8038,-0.8038,-0.8038,-0.8038,-0.8038,-0.8038,-0.8038,-0.8038,-0.7939,-0.7939,-0.7939,-0.693,-0.5729,-0.4728,-0.4126,-0.3425,-0.2622,-0.2321,-0.2119,-0.1617,-0.1617,-0.1604,-0.1597,-0.1581,-0.1561,-0.1544,-0.1521,-0.1502,-0.1498,-0.1487,-0.1463,-0.1429,-0.1393,-0.1358,-0.1346,-0.1315,-0.1296,-0.128,-0.1345,-0.1336,-0.1336,-0.1336,-0.1336,-0.1336,-0.1336,-0.1336,-0.1336,-0.1336,-0.1336,-0.1336,-0.1336,-0.1179,-0.1179,-0.1179,-0.1336,-0.1336,-0.1178,-0.0706,0.0314,0.1961,0.3137,0.4314,0.4701,0.4779,0.494,0.5018,0.5018,0.5018,0.5012,0.4982,0.4942,0.4909,0.4904,0.4844,0.4762,0.4711,0.4681,0.4659,0.4588,0.4537,0.4542,0.4618,0.461,0.4599,0.4515,0.452,0.4591,0.4756,0.5041,0.5237,0.5431,0.5882,0.6248,0.6853,0.7107,0.7693,0.819,0.8541,0.8622,0.8495,0.825,0.8102,0.7868,-1.5642,-1.5445,-1.5452,-1.4771,-1.3511,-1.2247,-1.1268,-1.0391,-0.8821,-0.8333,-0.8237,-0.8137,-0.8038,-0.8038,-0.8038,-0.8038,-0.8038,-0.8038,-0.8038,-0.8038,-0.8038,-0.8038,-0.7939,-0.7736,-0.7335,-0.6534,-0.5529,-0.4528,-0.3624,-0.3224,-0.2723,-0.2019,-0.1617,-0.1608,-0.1585,-0.1579,-0.1574,-0.1555,-0.1541,-0.1532,-0.153,-0.1525,-0.1503,-0.147,-0.1436,-0.1397,-0.1376,-0.1341,-0.1308,-0.1301,-0.1273,-0.1339,-0.1336,-0.1336,-0.1336,-0.1336,-0.1336,-0.1336,-0.1336,-0.1336,-0.1336,-0.1336,-0.1336,-0.1179,-0.1022,-0.1179,-0.1258,-0.1336,-0.1258,-0.1258,-0.11,0.0549,0.2431,0.3686,0.4231,0.4623,0.4859,0.5018,0.5018,0.5018,0.5018,0.4999,0.4999,0.4988,0.5007,0.5004,0.4915,0.4844,0.4811,0.4784,0.4719,0.4654,0.4648,0.4621,0.4679,0.4711,0.4686,0.4635,0.4621,0.4705,0.4803,0.4919,0.5179,0.5231,0.5656,0.6302,0.6985,0.7638,0.8166,0.868,0.8906,0.8817,0.8556,0.8183,0.7949,-1.5547,-1.5178,-1.5172,-1.4777,-1.4004,-1.3022,-1.2339,-1.195,-1.0092,-0.9312,-0.9213,-0.8435,-0.8038,-0.8038,-0.8038,-0.8038,-0.8038,-0.8038,-0.8038,-0.8038,-0.8038,-0.8038,-0.8038,-0.8038,-0.7839,-0.7537,-0.6634,-0.5629,-0.4526,-0.3725,-0.3324,-0.3126,-0.2221,-0.171,-0.1608,-0.1609,-0.1603,-0.1588,-0.1574,-0.1564,-0.156,-0.1541,-0.1516,-0.1488,-0.1464,-0.1436,-0.1394,-0.136,-0.1328,-0.1303,-0.1274,-0.1341,-0.1338,-0.1338,-0.1336,-0.1336,-0.1336,-0.1336,-0.1336,-0.1336,-0.1336,-0.1336,-0.1336,-0.1336,-0.1258,-0.1258,-0.1336,-0.1336,-0.1336,-0.1336,-0.1258,-0.0078,0.1175,0.235,0.329,0.3839,0.4545,0.4937,0.5018,0.5018,0.5018,0.5018,0.5018,0.5018,0.5018,0.5018,0.4977,0.4909,0.4866,0.4868,0.4863,0.4798,0.4741,0.47,0.4662,0.4819,0.4887,0.48,0.4781,0.4814,0.4874,0.4852,0.4902,0.5084,0.5336,0.5904,0.6689,0.7388,0.8071,0.8524,0.884,0.9089,0.8865,0.856,0.8178,-1.5267,-1.4885,-1.4885,-1.4688,-1.41,-1.3125,-1.2732,-1.2339,-1.0583,-0.9608,-0.9316,-0.8531,-0.8038,-0.8038,-0.8038,-0.8038,-0.8038,-0.8038,-0.8038,-0.8038,-0.8038,-0.8038,-0.8038,-0.8038,-0.8038,-0.7839,-0.7437,-0.6634,-0.5729,-0.5229,-0.4126,-0.282,-0.2319,-0.2221,-0.1718,-0.1615,-0.1617,-0.1612,-0.1602,-0.1594,-0.1592,-0.1564,-0.1535,-0.1509,-0.1487,-0.1457,-0.142,-0.1385,-0.1365,-0.1343,-0.1305,-0.1286,-0.1277,-0.1346,-0.1337,-0.1338,-0.1337,-0.1336,-0.1336,-0.1336,-0.1336,-0.1336,-0.1336,-0.1336,-0.1336,-0.1336,-0.1336,-0.1336,-0.1336,-0.1336,-0.1258,-0.0549,0.0783,0.2271,0.2898,0.3524,0.4467,0.4859,0.494,0.494,0.5018,0.5018,0.5018,0.5018,0.5018,0.5018,0.5018,0.4977,0.4923,0.4931,0.4947,0.492,0.4857,0.4825,0.4781,0.486,0.4963,0.4906,0.4798,0.4909,0.4939,0.4912,0.4871,0.4902,0.5261,0.5644,0.6063,0.6708,0.7493,0.8289,0.8571,0.8765,0.8932,0.8865,0.8349,-1.4981,-1.4688,-1.4688,-1.4592,-1.4298,-1.3511,-1.3125,-1.2829,-1.1268,-1.0293,-0.9899,-0.8924,-0.8237,-0.8041,-0.8038,-0.8038,-0.8038,-0.8038,-0.8038,-0.8038,-0.8038,-0.8038,-0.8038,-0.8038,-0.8038,-0.7939,-0.7939,-0.7537,-0.6836,-0.6334,-0.4926,-0.3924,-0.3626,-0.2923,-0.2221,-0.1818,-0.1718,-0.1617,-0.1617,-0.1617,-0.161,-0.1593,-0.1562,-0.153,-0.1502,-0.1474,-0.1433,-0.1402,-0.1388,-0.1371,-0.1342,-0.1312,-0.1307,-0.1283,-0.1349,-0.1273,-0.1343,-0.1337,-0.1336,-0.1336,-0.1336,-0.1336,-0.1336,-0.1336,-0.1336,-0.1336,-0.1336,-0.1336,-0.1336,-0.1336,-0.1257,-0.0706,0.047,0.1643,0.2348,0.2974,0.3915,0.4465,0.4623,0.4779,0.4937,0.5018,0.5018,0.5018,0.5018,0.5018,0.5018,0.5018,0.4974,0.4982,0.4996,0.5002,0.4977,0.4955,0.492,0.4879,0.4934,0.4906,0.4876,0.4887,0.4934,0.4966,0.492,0.4879,0.4936,0.5295,0.5628,0.6049,0.6775,0.7495,0.8049,0.8376,0.8546,0.8467,0.8065,-1.4981,-1.4688,-1.4688,-1.4688,-1.4592,-1.4496,-1.4592,-1.4496,-1.3125,-1.2145,-1.1142,-0.9998,-0.8825,-0.8137,-0.8038,-0.8038,-0.8038,-0.8038,-0.8038,-0.8038,-0.8038,-0.8038,-0.8038,-0.8038,-0.8038,-0.8038,-0.8038,-0.7939,-0.7537,-0.6839,-0.6745,-0.6245,-0.4329,-0.3325,-0.3327,-0.2322,-0.1617,-0.1617,-0.1617,-0.1617,-0.1616,-0.1611,-0.1579,-0.1542,-0.1518,-0.1493,-0.1444,-0.1413,-0.1395,-0.139,-0.1362,-0.1344,-0.1337,-0.1313,-0.1316,-0.1312,-0.1293,-0.1337,-0.1343,-0.1343,-0.1346,-0.1346,-0.134,-0.1337,-0.1336,-0.1336,-0.1336,-0.1336,-0.1336,-0.1336,-0.1336,-0.1178,-0.0549,0.0157,0.0939,0.18,0.2818,0.399,0.4148,0.4701,0.4937,0.494,0.5018,0.5018,0.5018,0.5018,0.5018,0.5018,0.5018,0.5018,0.5018,0.5018,0.5015,0.4993,0.4985,0.4955,0.4939,0.4917,0.4906,0.4896,0.4942,0.4988,0.4969,0.4953,0.5002,0.4999,0.5248,0.5619,0.6126,0.6685,0.7226,0.7693,0.8084,0.7871,0.7679,-1.4592,-1.449,-1.4592,-1.4688,-1.4688,-1.4885,-1.4987,-1.479,-1.3806,-1.2748,-1.1611,-1.0347,-0.9118,-0.8233,-0.8038,-0.8038,-0.8038,-0.8038,-0.8038,-0.8038,-0.8038,-0.8038,-0.8038,-0.8038,-0.8038,-0.8038,-0.8038,-0.8038,-0.7839,-0.754,-0.7444,-0.6848,-0.5737,-0.4728,-0.4329,-0.3124,-0.2622,-0.2422,-0.2019,-0.1617,-0.1617,-0.1613,-0.1596,-0.1553,-0.1536,-0.1502,-0.1465,-0.1432,-0.1416,-0.141,-0.1388,-0.1372,-0.1365,-0.1346,-0.1335,-0.1341,-0.1326,-0.1311,-0.1308,-0.1293,-0.1292,-0.1292,-0.128,-0.1336,-0.1336,-0.1336,-0.1336,-0.1336,-0.1336,-0.1336,-0.1336,-0.1336,-0.0706,-0.0157,0.0078,0.1253,0.2348,0.3049,0.3752,0.4307,0.4859,0.494,0.5018,0.5018,0.5018,0.5018,0.5018,0.5018,0.5018,0.5018,0.5018,0.5018,0.5012,0.5002,0.4999,0.4988,0.4988,0.4974,0.4974,0.4969,0.498,0.4996,0.4982,0.4982,0.5007,0.4985,0.4939,0.5186,0.5693,0.6009,0.6395,0.6887,0.739,0.7493,0.7388,-1.4394,-1.4394,-1.4592,-1.4688,-1.4688,-1.4987,-1.5178,-1.5077,-1.4388,-1.3307,-1.197,-1.0617,-0.9316,-0.8531,-0.8137,-0.8038,-0.8038,-0.8038,-0.8038,-0.8038,-0.8038,-0.8038,-0.8038,-0.8038,-0.8038,-0.8038,-0.8038,-0.8038,-0.8038,-0.7839,-0.7537,-0.6836,-0.6437,-0.5932,-0.5129,-0.4227,-0.3525,-0.3024,-0.212,-0.1617,-0.1617,-0.1617,-0.1598,-0.1571,-0.1542,-0.1512,-0.1482,-0.1451,-0.1435,-0.1428,-0.1414,-0.1401,-0.1397,-0.1375,-0.1367,-0.1371,-0.1363,-0.1361,-0.135,-0.1335,-0.1326,-0.132,-0.1307,-0.1273,-0.1349,-0.1344,-0.1336,-0.1336,-0.1336,-0.1336,-0.1338,-0.1343,-0.0948,-0.0553,-0.0237,0.11,0.2195,0.2666,0.3368,0.4304,0.4701,0.4859,0.494,0.494,0.5018,0.5018,0.5018,0.5018,0.5018,0.5018,0.5018,0.5018,0.5015,0.501,0.501,0.501,0.5015,0.5018,0.5018,0.5018,0.5012,0.5012,0.5007,0.5012,0.5018,0.5007,0.4977,0.5076,0.5171,0.5479,0.5799,0.625,0.6627,0.6802,0.704,-1.4688,-1.4688,-1.44,-1.449,-1.4688,-1.4981,-1.5267,-1.5363,-1.535,-1.4459,-1.2967,-1.0956,-0.9686,-0.9316,-0.863,-0.8137,-0.8041,-0.8038,-0.8038,-0.8038,-0.8038,-0.8038,-0.8038,-0.8038,-0.8038,-0.8038,-0.8038,-0.8038,-0.8038,-0.8038,-0.7939,-0.7836,-0.7036,-0.6537,-0.5932,-0.5127,-0.3924,-0.3224,-0.212,-0.1617,-0.1617,-0.1614,-0.1603,-0.1574,-0.1543,-0.1512,-0.1483,-0.1453,-0.1436,-0.1435,-0.1429,-0.1426,-0.1418,-0.1401,-0.1397,-0.1406,-0.1397,-0.1398,-0.1396,-0.1358,-0.1328,-0.1329,-0.1321,-0.1299,-0.1299,-0.1273,-0.1341,-0.1347,-0.1275,-0.1349,-0.1274,-0.1277,-0.1126,-0.0964,-0.0643,0.016,0.1193,0.1891,0.2753,0.3999,0.4636,0.4739,0.4849,0.4862,0.4883,0.4878,0.5018,0.5018,0.5018,0.5018,0.5018,0.5018,0.5018,0.5015,0.5015,0.5018,0.5018,0.5018,0.5018,0.5018,0.5018,0.5018,0.5018,0.5018,0.5018,0.5018,0.5018,0.5018,0.5096,0.5018,0.5274,0.572,0.618,0.6476,0.6733,-1.479,-1.4981,-1.479,-1.4885,-1.4981,-1.5077,-1.5178,-1.5274,-1.5261,-1.4484,-1.3216,-1.1438,-1.0674,-1.0266,-0.9509,-0.9019,-0.8825,-0.8233,-0.8038,-0.8038,-0.8038,-0.8038,-0.8038,-0.8038,-0.8038,-0.8038,-0.8038,-0.8038,-0.8038,-0.8038,-0.8038,-0.7839,-0.7437,-0.7437,-0.6933,-0.5627,-0.4325,-0.3224,-0.222,-0.1617,-0.1617,-0.1617,-0.1611,-0.1599,-0.1547,-0.1525,-0.1504,-0.1459,-0.1443,-0.1436,-0.1436,-0.1436,-0.1436,-0.1421,-0.1423,-0.1433,-0.142,-0.1424,-0.1426,-0.1385,-0.1358,-0.1341,-0.1337,-0.133,-0.1331,-0.1317,-0.1313,-0.1314,-0.1309,-0.1305,-0.1316,-0.1323,-0.1243,-0.132,-0.0985,-0.0491,0.0323,0.12,0.2308,0.3738,0.4314,0.4576,0.4688,0.4718,0.4803,0.4813,0.4953,0.5021,0.5031,0.5021,0.5018,0.5018,0.5018,0.5018,0.5018,0.5018,0.5018,0.5018,0.5018,0.5018,0.5018,0.5018,0.5018,0.5018,0.5018,0.5018,0.5018,0.5018,0.5018,0.5018,0.505,0.5181,0.5656,0.6098,0.6337,-1.5012,-1.5153,-1.5082,-1.5007,-1.5077,-1.5083,-1.5083,-1.5083,-1.5083,-1.4586,-1.3499,-1.2374,-1.1707,-1.1336,-1.0194,-0.9608,-0.9213,-0.8528,-0.8137,-0.8038,-0.8038,-0.8038,-0.8038,-0.8038,-0.8038,-0.8038,-0.8038,-0.8038,-0.8038,-0.8038,-0.8038,-0.8038,-0.8038,-0.7939,-0.7434,-0.5927,-0.4423,-0.3624,-0.2321,-0.1617,-0.1617,-0.1617,-0.1617,-0.1605,-0.1557,-0.1528,-0.1507,-0.147,-0.1439,-0.1436,-0.1436,-0.1436,-0.1436,-0.1436,-0.1436,-0.1436,-0.1436,-0.1436,-0.1429,-0.1417,-0.139,-0.1369,-0.1363,-0.1361,-0.136,-0.1354,-0.1339,-0.1342,-0.1344,-0.1349,-0.1351,-0.1352,-0.1348,-0.1341,-0.1352,-0.0842,0.0082,0.1057,0.2187,0.3474,0.3972,0.4546,0.444,0.455,0.4695,0.4778,0.5044,0.5105,0.5089,0.5064,0.5018,0.5018,0.5018,0.5018,0.5018,0.5018,0.5018,0.5018,0.5018,0.5018,0.5018,0.5018,0.5018,0.5018,0.5018,0.5018,0.5021,0.5021,0.5021,0.5018,0.5072,0.514,0.5366,0.5788,0.5832,-1.5481,-1.5386,-1.4958,-1.4916,-1.514,-1.5083,-1.5083,-1.5083,-1.4987,-1.4783,-1.4394,-1.338,-1.2893,-1.2339,-1.0877,-1.0194,-0.9801,-0.8821,-0.8137,-0.8237,-0.8038,-0.8038,-0.8038,-0.8038,-0.8038,-0.8038,-0.8038,-0.8038,-0.8038,-0.8038,-0.8038,-0.8038,-0.8038,-0.8038,-0.7839,-0.5929,-0.4824,-0.4524,-0.2723,-0.2019,-0.1818,-0.1717,-0.1617,-0.1603,-0.1558,-0.1527,-0.1513,-0.1467,-0.1438,-0.1436,-0.1436,-0.1436,-0.1436,-0.1436,-0.1436,-0.1436,-0.1436,-0.1436,-0.1435,-0.1433,-0.1416,-0.1392,-0.1386,-0.1384,-0.1382,-0.1371,-0.136,-0.1284,-0.1277,-0.1358,-0.1361,-0.1371,-0.137,-0.1373,-0.1385,-0.1207,-0.0253,0.0832,0.2074,0.3054,0.3852,0.4421,0.4408,0.4373,0.4552,0.4755,0.5086,0.5117,0.5002,0.4957,0.4907,0.4859,0.4859,0.4859,0.4859,0.494,0.5018,0.5018,0.5018,0.5018,0.5018,0.5018,0.5018,0.5021,0.5048,0.5072,0.505,0.5026,0.5048,0.5078,0.5127,0.5205,0.5341,0.5466,0.5586,-1.5493,-1.5518,-1.516,-1.508,-1.5291,-1.5,-1.4885,-1.4783,-1.4598,-1.4496,-1.4394,-1.4004,-1.3902,-1.3318,-1.2431,-1.1453,-1.1268,-0.9702,-0.9118,-0.892,-0.8432,-0.8038,-0.8038,-0.8038,-0.8038,-0.8038,-0.8038,-0.8038,-0.8038,-0.8038,-0.8038,-0.8038,-0.8038,-0.8038,-0.7637,-0.6531,-0.5832,-0.5429,-0.3925,-0.2621,-0.2622,-0.2019,-0.1716,-0.1713,-0.1653,-0.1622,-0.1614,-0.1556,-0.1438,-0.1436,-0.1436,-0.1436,-0.1436,-0.1436,-0.1436,-0.1436,-0.1436,-0.1436,-0.1436,-0.1434,-0.1431,-0.1417,-0.1403,-0.1402,-0.1412,-0.1412,-0.1319,-0.1315,-0.1311,-0.1399,-0.1412,-0.1414,-0.1413,-0.1413,-0.1416,-0.1316,-0.0692,0.06,0.179,0.262,0.3357,0.3921,0.4068,0.3802,0.3888,0.4042,0.4233,0.4463,0.4412,0.4613,0.4646,0.4572,0.4543,0.4701,0.4787,0.4836,0.4985,0.4969,0.4956,0.5018,0.5018,0.5034,0.5037,0.505,0.5091,0.5129,0.5127,0.5124,0.5127,0.5154,0.5197,0.5257,0.5371,0.5483,0.5499,-1.5718,-1.5479,-1.5037,-1.4962,-1.5022,-1.4924,-1.4796,-1.4592,-1.4496,-1.4394,-1.4298,-1.4394,-1.4394,-1.398,-1.3137,-1.2689,-1.2512,-1.0891,-0.9682,-0.9592,-0.892,-0.8432,-0.8137,-0.8038,-0.8038,-0.8038,-0.8038,-0.8038,-0.8038,-0.8038,-0.8038,-0.8038,-0.8038,-0.8038,-0.7637,-0.7036,-0.6337,-0.5832,-0.4628,-0.3725,-0.3624,-0.3221,-0.2813,-0.2678,-0.2425,-0.209,-0.1874,-0.1652,-0.1436,-0.1436,-0.1436,-0.1436,-0.1436,-0.1436,-0.1436,-0.1436,-0.1436,-0.1436,-0.1436,-0.1436,-0.1434,-0.1432,-0.1414,-0.1416,-0.1431,-0.1429,-0.1431,-0.1431,-0.1436,-0.1435,-0.1433,-0.1436,-0.1435,-0.1434,-0.143,-0.1329,-0.1058,0.0175,0.0957,0.1811,0.2494,0.3072,0.3385,0.3296,0.3103,0.3171,0.332,0.3493,0.3739,0.4035,0.4082,0.3947,0.4239,0.4508,0.4686,0.4864,0.4919,0.4933,0.501,0.502,0.5075,0.5099,0.5089,0.5097,0.5175,0.5233,0.5233,0.5233,0.5214,0.5224,0.5262,0.5333,0.5412,0.5419,0.5518,-1.593,-1.5266,-1.4697,-1.4412,-1.4379,-1.4878,-1.4841,-1.4388,-1.458,-1.4478,-1.4298,-1.4496,-1.4496,-1.4052,-1.2981,-1.2702,-1.2603,-1.1416,-1.0513,-0.9824,-0.9355,-0.8791,-0.8226,-0.8038,-0.8038,-0.8038,-0.8038,-0.8038,-0.8038,-0.8038,-0.8038,-0.8038,-0.8038,-0.8038,-0.7637,-0.7238,-0.6739,-0.6334,-0.5629,-0.4926,-0.4728,-0.4524,-0.4189,-0.3832,-0.337,-0.2832,-0.2414,-0.1908,-0.153,-0.1436,-0.1436,-0.1436,-0.1436,-0.1436,-0.1436,-0.1436,-0.1436,-0.1436,-0.1436,-0.1436,-0.1436,-0.1436,-0.1433,-0.1435,-0.1435,-0.1436,-0.1436,-0.1436,-0.1436,-0.1436,-0.1436,-0.1436,-0.1436,-0.1436,-0.1436,-0.1341,-0.1248,-0.0621,-0.0,0.0615,0.1224,0.1764,0.196,0.1968,0.2237,0.214,0.2123,0.1845,0.2233,0.3293,0.335,0.3069,0.3557,0.4329,0.4499,0.4554,0.4777,0.4799,0.5002,0.5096,0.5138,0.5092,0.5017,0.5049,0.521,0.5328,0.5306,0.529,0.5276,0.5301,0.5344,0.5388,0.5464,0.5542,0.5545,-1.5929,-1.5099,-1.4695,-1.4287,-1.3977,-1.4248,-1.4229,-1.425,-1.4212,-1.4206,-1.4298,-1.4394,-1.4339,-1.4274,-1.3738,-1.3491,-1.3034,-1.2301,-1.1288,-1.0505,-0.9837,-0.8931,-0.8297,-0.8031,-0.8035,-0.8035,-0.8035,-0.8038,-0.8038,-0.8038,-0.8038,-0.8038,-0.8021,-0.8024,-0.7826,-0.7637,-0.7521,-0.7214,-0.6305,-0.6014,-0.5712,-0.5304,-0.5046,-0.4671,-0.3922,-0.3379,-0.2948,-0.2083,-0.1616,-0.1435,-0.1436,-0.1436,-0.1436,-0.1436,-0.1436,-0.1436,-0.1436,-0.1436,-0.1436,-0.1436,-0.1436,-0.1436,-0.1436,-0.1436,-0.1436,-0.1436,-0.1436,-0.1436,-0.1436,-0.1436,-0.1436,-0.1436,-0.1436,-0.1436,-0.1436,-0.1345,-0.1253,-0.0894,-0.0356,-0.0089,0.0531,0.0797,0.0983,0.1074,0.1253,0.1075,0.0894,0.0623,0.0885,0.1997,0.2405,0.2128,0.2629,0.3406,0.3802,0.3942,0.4349,0.4753,0.488,0.4974,0.4914,0.4879,0.4789,0.4906,0.5142,0.5309,0.536,0.5341,0.524,0.5385,0.5431,0.5469,0.5515,0.5591,0.5566,-1.5873,-1.5083,-1.4573,-1.4025,-1.3542,-1.3434,-1.3592,-1.39,-1.3815,-1.3857,-1.3978,-1.3972,-1.399,-1.3924,-1.3609,-1.3531,-1.3626,-1.2865,-1.207,-1.1313,-1.0274,-0.9501,-0.8807,-0.8188,-0.7991,-0.7991,-0.8004,-0.8038,-0.8028,-0.8035,-0.8038,-0.8031,-0.7997,-0.7957,-0.7828,-0.7774,-0.7748,-0.7576,-0.7309,-0.7045,-0.6645,-0.6216,-0.593,-0.5465,-0.4622,-0.4187,-0.3749,-0.2698,-0.2064,-0.1883,-0.1793,-0.1436,-0.1436,-0.1436,-0.1436,-0.1436,-0.1436,-0.1436,-0.1436,-0.1436,-0.1436,-0.1436,-0.1436,-0.1436,-0.1436,-0.1436,-0.1436,-0.1436,-0.1436,-0.1436,-0.1436,-0.1436,-0.1436,-0.1436,-0.1436,-0.1436,-0.1166,-0.0897,-0.0717,-0.0537,-0.0268,-0.0,0.0179,0.0358,0.0358,0.0269,0.0179,-0.0089,0.0268,0.1239,0.1317,0.1048,0.1651,0.2429,0.2838,0.3422,0.402,0.446,0.4839,0.4918,0.4765,0.477,0.4881,0.4886,0.4979,0.5129,0.5265,0.522,0.5207,0.5347,0.5464,0.5474,0.5529,0.5635,0.5598,-1.5769,-1.5123,-1.4391,-1.3664,-1.3069,-1.2795,-1.2982,-1.3423,-1.3429,-1.3489,-1.3532,-1.3532,-1.3574,-1.3586,-1.3375,-1.3344,-1.3357,-1.2963,-1.24,-1.2213,-1.1199,-1.0198,-0.9156,-0.8589,-0.8153,-0.7962,-0.7885,-0.7913,-0.7977,-0.7977,-0.797,-0.8001,-0.7899,-0.7831,-0.7787,-0.7712,-0.7685,-0.76,-0.7627,-0.7459,-0.7564,-0.7573,-0.7529,-0.7142,-0.635,-0.5665,-0.5133,-0.4115,-0.2867,-0.2598,-0.2062,-0.1436,-0.1436,-0.1436,-0.1436,-0.1436,-0.1436,-0.1436,-0.1436,-0.1436,-0.1436,-0.1436,-0.1436,-0.1436,-0.1436,-0.1436,-0.1436,-0.1256,-0.1256,-0.1346,-0.1436,-0.1436,-0.1436,-0.1436,-0.1436,-0.1436,-0.1256,-0.1077,-0.1076,-0.0987,-0.0896,-0.0717,-0.0717,-0.0538,-0.0448,-0.0448,-0.0538,-0.0717,-0.0448,0.0357,0.0357,-0.0,0.0708,0.1498,0.2382,0.2987,0.3689,0.4142,0.4597,0.475,0.4592,0.4724,0.4893,0.492,0.4844,0.5021,0.5167,0.5183,0.522,0.5344,0.5453,0.5461,0.5537,0.5654,0.5706,-1.5413,-1.4702,-1.3612,-1.2864,-1.2487,-1.2439,-1.259,-1.2892,-1.2898,-1.3133,-1.3453,-1.3495,-1.3483,-1.3405,-1.32,-1.3151,-1.3127,-1.2919,-1.2334,-1.1991,-1.1359,-1.0643,-0.9401,-0.9033,-0.8441,-0.7861,-0.7689,-0.7835,-0.7767,-0.7807,-0.7814,-0.774,-0.7716,-0.7729,-0.7648,-0.7573,-0.7553,-0.7536,-0.7509,-0.7556,-0.76,-0.7604,-0.7529,-0.7135,-0.6515,-0.6,-0.5305,-0.4115,-0.3223,-0.2688,-0.1882,-0.1524,-0.1436,-0.1436,-0.1436,-0.1436,-0.1436,-0.1436,-0.1436,-0.1436,-0.1436,-0.1436,-0.1436,-0.1436,-0.1436,-0.1436,-0.1346,-0.1166,-0.1166,-0.1346,-0.1436,-0.1436,-0.1436,-0.1436,-0.1436,-0.1436,-0.1436,-0.1436,-0.1436,-0.1436,-0.1436,-0.1436,-0.1346,-0.1346,-0.1256,-0.1256,-0.1166,-0.1256,-0.1166,-0.0717,-0.0537,-0.0625,-0.0179,0.0625,0.1522,0.2415,0.3112,0.3824,0.4364,0.4431,0.4401,0.4504,0.4612,0.4651,0.4779,0.4849,0.4981,0.5247,0.5307,0.532,0.5325,0.532,0.5534,0.5665,0.5706,-1.5224,-1.479,-1.3988,-1.3194,-1.2606,-1.2544,-1.2535,-1.2506,-1.253,-1.2765,-1.3115,-1.3151,-1.3151,-1.3151,-1.2994,-1.2922,-1.2898,-1.2783,-1.2667,-1.2263,-1.1671,-1.114,-1.0313,-0.9749,-0.9376,-0.8814,-0.8322,-0.8175,-0.7688,-0.7651,-0.7672,-0.7594,-0.7634,-0.7587,-0.7492,-0.7451,-0.7411,-0.7383,-0.7312,-0.7339,-0.7414,-0.7394,-0.7366,-0.7001,-0.6796,-0.6394,-0.593,-0.4917,-0.4383,-0.3669,-0.2865,-0.224,-0.1973,-0.1704,-0.1436,-0.1436,-0.1436,-0.1436,-0.1436,-0.1436,-0.1436,-0.1436,-0.1436,-0.1436,-0.1436,-0.1436,-0.1346,-0.1256,-0.1256,-0.1436,-0.1436,-0.1436,-0.1436,-0.1436,-0.1436,-0.1436,-0.1436,-0.1436,-0.1436,-0.1436,-0.1346,-0.1256,-0.1346,-0.1436,-0.1346,-0.1346,-0.1436,-0.1346,-0.1346,-0.1346,-0.1346,-0.1256,-0.0718,-0.0179,0.0627,0.1522,0.2413,0.3221,0.4032,0.4194,0.4347,0.4244,0.4316,0.447,0.4521,0.4558,0.4768,0.4977,0.5077,0.5059,0.5154,0.525,0.5411,0.5646,0.5659,-1.4988,-1.5009,-1.4645,-1.3867,-1.2903,-1.2745,-1.25,-1.2234,-1.2264,-1.2385,-1.2584,-1.2608,-1.2614,-1.265,-1.2602,-1.2602,-1.2596,-1.2578,-1.2697,-1.2563,-1.2031,-1.1513,-1.1138,-1.0795,-1.0106,-0.9384,-0.871,-0.811,-0.7485,-0.7539,-0.755,-0.7522,-0.7455,-0.7366,-0.7309,-0.7238,-0.7183,-0.72,-0.7177,-0.716,-0.7149,-0.7139,-0.716,-0.7156,-0.7139,-0.7139,-0.6782,-0.634,-0.5719,-0.5006,-0.3935,-0.3133,-0.2598,-0.2152,-0.1704,-0.1524,-0.1436,-0.1436,-0.1436,-0.1436,-0.1436,-0.1436,-0.1436,-0.1436,-0.1436,-0.1436,-0.1346,-0.1346,-0.1436,-0.1436,-0.1436,-0.1436,-0.1436,-0.1436,-0.1436,-0.1436,-0.1436,-0.1436,-0.1436,-0.1436,-0.1346,-0.1256,-0.1256,-0.1346,-0.1436,-0.1436,-0.1346,-0.1346,-0.1346,-0.1346,-0.1346,-0.1346,-0.1166,-0.0628,-0.0,0.0627,0.1611,0.2776,0.3583,0.3941,0.4204,0.4273,0.4253,0.432,0.4367,0.4422,0.4449,0.4655,0.4672,0.4871,0.4971,0.5103,0.5278,0.5483,0.5502,-1.4198,-1.4084,-1.4005,-1.3508,-1.2832,-1.2601,-1.2211,-1.1876,-1.1912,-1.2035,-1.2095,-1.2101,-1.2168,-1.2373,-1.2149,-1.2113,-1.2222,-1.2306,-1.2379,-1.2296,-1.2225,-1.1871,-1.1559,-1.1234,-1.0197,-0.9257,-0.8391,-0.7492,-0.7322,-0.7383,-0.7353,-0.7261,-0.738,-0.7305,-0.719,-0.7139,-0.7139,-0.7139,-0.7139,-0.7139,-0.7139,-0.7139,-0.7139,-0.7139,-0.7139,-0.7139,-0.6874,-0.6163,-0.5811,-0.5364,-0.4736,-0.3846,-0.331,-0.2865,-0.233,-0.1793,-0.1614,-0.1524,-0.1524,-0.1436,-0.1436,-0.1436,-0.1436,-0.1436,-0.1436,-0.1436,-0.1436,-0.1436,-0.1436,-0.1436,-0.1436,-0.1436,-0.1436,-0.1436,-0.1436,-0.1436,-0.1436,-0.1346,-0.1346,-0.1346,-0.1256,-0.1256,-0.1346,-0.1436,-0.1436,-0.1436,-0.1436,-0.1346,-0.1166,-0.1166,-0.1346,-0.1346,-0.1346,-0.0807,-0.0179,-0.0179,0.0717,0.197,0.304,0.3382,0.3739,0.4206,0.4277,0.4236,0.4416,0.4496,0.4517,0.4413,0.4582,0.4799,0.4946,0.5058,0.5212,0.5333,0.5446]},{"header":{"parameterUnit":"m.s-1","parameterCategory":1,"la1":31.0,"la2":29.5877,"lo1":-88.7671,"lo2":-86.6584,"dy":0.0162,"dx":0.0185,"nx":115,"ny":88,"refTime":"2023-08-25T18:00:00:Z","depth":0,"parameterNumber":3,"parameterNumberName":"V-component_of_WINDS"},"data":[0.0,0.0,0.0,0.0,0.0,0.0,0.0,0.0,0.0,0.0,0.0,0.0,0.0,0.0,0.0,0.0,0.0,0.0,0.0,0.0,0.0,0.0,0.0,0.0,0.0,0.0,0.0,0.0,0.0,0.0,0.0,0.0,0.0,0.0,0.0,0.0,0.0,0.0,0.0,0.0,0.0,0.0,0.0,0.0,0.0,0.0,0.0,0.0,0.0,0.0,0.0,0.0,0.0,0.0,0.0,0.0,0.0,0.0,0.0,0.0,0.0,0.0,0.0,0.0,0.0,0.0,0.0,0.0,0.0,0.0,0.0,0.0,0.0,0.0,0.0,0.0,0.0,0.0,0.0,0.0,0.0,0.0,0.0,0.0,0.0,0.0,0.0,0.0,0.0,0.0,0.0,0.0,0.0,0.0,0.0,0.0,0.0,0.0,0.0,0.0,0.0,0.0,0.0,0.0,0.0,0.0,0.0,0.0,0.0,0.0,0.0,0.0,0.0,0.0,0.0,0.0,0.0,0.0,0.0,0.0,0.0,0.0,0.0,0.0,0.0,0.0,0.0,0.0,0.0,0.0,0.0,0.0,0.0,0.0,0.0,0.0,0.0,0.0,0.0,0.0,0.0,0.0,0.0,0.0,0.0,0.0,0.0,0.0,0.0,0.0,0.0,0.0,0.0,0.0,0.0,0.0,0.0,0.0,0.0,0.0,0.0,0.0,0.0,0.0,0.0,0.0,0.0,0.0,0.0,0.0,0.0,0.0,0.0,0.0,0.0,0.0,0.0,0.0,0.0,0.0,0.0,0.0,0.0,0.0,0.0,0.0,0.0,0.0,0.0,0.0,0.0,0.0,0.0,0.0,0.0,0.0,0.0,0.0,0.0,0.0,0.0,0.0,0.0,0.0,0.0,0.0,0.0,0.0,0.0,0.0,0.0,0.0,0.0,0.0,0.0,0.0,0.0,0.0,0.0,0.0,0.0,0.0,0.0,0.0,0.0,0.0,0.0,0.0,0.0,0.0,0.0,0.0,0.0,0.0,0.0,0.0,0.0,0.0,0.0,0.0,0.0,0.0,0.0,0.0,0.0,0.0,0.0,0.0,0.0,0.0,0.0,0.0,0.0,0.0,0.0,0.0,0.0,0.0,0.0,0.0,0.0,0.0,0.0,0.0,0.0,0.0,0.0,0.0,0.0,0.0,0.0,0.0,0.0,0.0,0.0,0.0,0.0,0.0,0.0,0.0,0.0,0.0,0.0,0.0,0.0,0.0,0.0,0.0,0.0,0.0,0.0,0.0,0.0,0.0,0.0,0.0,0.0,0.0,0.0,0.0,0.0,0.0,0.0,0.0,0.0,0.0,0.0,0.0,0.0,0.0,0.0,0.0,0.0,0.0,0.0,0.0,0.0,0.0,0.0,0.0,0.0,0.0,0.0,0.0,0.0,0.0,0.0,0.0,0.0,0.0,0.0,0.0,0.0,0.0,0.0,0.0,0.0,0.0,0.0,0.0,0.0,0.0,0.0,0.0,0.0,0.0,0.0,0.0,0.0,0.0,0.0,0.0,0.0,0.0,0.0,0.0,0.0,0.0,0.0,0.0,0.0,0.0,0.0,0.0,0.0,0.0,0.0,0.0,0.0,0.0,0.0,0.0,0.0,0.0,0.0,0.0,0.0,0.0,0.0,0.0,0.0,0.0,0.0,0.0,0.0,0.0,0.0,0.0,0.0,0.0,0.0,0.0,0.0,0.0,0.0,0.0,0.0,0.0,0.0,0.0,0.0,0.0,0.0,0.0,0.0,0.0,0.0,0.0,0.0,0.0,0.0,0.0,0.0,0.0,0.0,0.0,0.0,0.0,0.0,0.0,0.0,0.0,0.0,0.0,0.0,0.0,0.0,0.0,0.0,0.0,0.0,0.0,0.0,0.0,0.0,0.0,0.0,0.0,0.0,0.0,0.0,0.0,0.0,0.0,0.0,0.0,0.0,0.0,0.0,0.0,0.0,0.0,0.0,0.0,0.0,0.0,0.0,0.0,0.0,0.0,0.0,0.0,0.0,0.0,0.0,0.0,0.0,0.0,0.0,0.0,0.0,0.0,0.0,0.0,0.0,0.0,0.0,0.0,0.0,0.0,0.0,0.0,0.0,0.0,0.0,0.0,0.0,0.0,0.0,0.0,0.0,0.0,0.0,0.0,0.0,0.0,0.0,0.0,0.0,0.0,0.0,0.0,0.0,0.0,0.0,0.0,0.0,0.0,0.0,0.0,0.0,0.0,0.0,0.0,0.0,0.0,0.0,0.0,0.0,0.0,0.0,0.0,0.0,0.0,0.0,0.0,0.0,0.0,0.0,0.0,0.0,0.0,0.0,0.0,0.0,0.0,0.0,0.0,0.0,0.0,0.0,0.0,0.0,0.0,0.0,0.0,0.0,0.0,0.0,0.0,0.0,0.0,0.0,0.0,0.0,0.0,0.0,0.0,0.0,0.0,0.0,0.0,0.0,0.0,0.0,0.0,0.0,0.0,0.0,0.0,0.0,0.0,0.0,0.0,0.0,0.0,0.0,0.0,0.0,0.0,0.0,0.0,0.0,0.0,0.0,0.0,0.0,0.0,0.0,0.0,0.0,0.0,0.0,0.0,0.0,0.0,0.0,0.0,0.0,0.0,0.0,0.0,0.0,0.0,0.0,0.0,0.0,0.0,0.0,0.0,0.0,0.0,0.0,0.0,0.0,0.0,0.0,0.0,0.0,0.0,0.0,0.0,0.0,0.0,0.0,0.0,0.0,0.0,0.0,0.0,0.0,0.0,0.0,0.0,0.0,0.0,0.0,0.0,0.0,0.0,0.0,0.0,0.0,0.0,0.0,0.0,0.0,0.0,0.0,0.0,0.0,0.0,0.0,0.0,0.0,0.0,0.0,0.0,0.0,0.0,0.0,0.0,0.0,0.0,0.0,0.0,0.0,0.0,0.0,0.0,0.0,0.0,0.0,0.0,0.0,0.0,0.0,0.0,0.0,0.0,0.0,0.0,0.0,0.0,0.0,0.0,0.0,0.0,0.0,0.0,0.0,0.0,0.0,0.0,0.0,0.0,0.0,0.0,0.0,0.0,0.0,0.0,0.0,0.0,0.0,0.0,0.0,0.0,0.0,0.0,0.0,0.0,0.0,0.0,0.0,0.0,0.0,0.0,0.0,0.0,0.0,0.0,0.0,0.0,0.0,0.0,0.0,0.0,0.0,0.0,0.0,0.0,0.0,0.0,0.0,0.0,0.0,0.0,0.0,0.0,0.0,0.0,0.0,0.0,0.0,0.0,0.0,0.0,0.0,0.0,0.0,0.0,0.0,0.0,0.0,0.0,0.0,0.0,0.0,0.0,0.0,0.0,0.0,0.0,0.0,0.0,0.0,0.0,0.0,0.0,0.0,0.0,0.0,0.0,0.0,0.0,0.0,0.0,0.0,0.0,0.0,0.0,0.0,0.0,0.0,0.0,0.0,0.0,0.0,0.0,0.0,0.0,0.0,0.0,0.0,0.0,0.0,0.0,0.0,0.0,0.0,0.0,0.0,0.0,0.0,0.0,0.0,0.0,0.0,0.0,0.0,0.0,0.0,0.0,0.0,0.0,0.0,0.0,0.0,0.0,0.0,0.0,0.0,0.0,0.0,0.0,0.0,0.0,0.0,0.0,0.0,0.0,0.0,0.0,0.0,0.0,0.0,0.0,0.0,0.0,0.0,0.0,0.0,0.0,0.0,0.0,0.0,0.0,0.0,0.0,0.0,0.0,0.0,0.0,0.0,0.0,0.0,0.0,0.0,0.0,0.0,0.0,0.0,0.0,0.0,0.0,0.0,0.0,0.0,0.0,0.0,0.0,0.0,0.0,0.0,0.0,0.0,0.0,0.0,0.0,0.0,0.0,0.0,0.0,0.0,0.0,0.0,0.0,0.0,0.0,0.0,0.0,0.0,0.0,0.0,0.0,0.0,0.0,0.0,0.0,0.0,0.0,0.0,0.0,0.0,0.0,0.0,0.0,0.0,0.0,0.0,0.0,0.0,0.0,0.0,0.0,0.0,0.0,0.0,0.0,0.0,0.0,0.0,0.0,0.0,0.0,0.0,0.0,0.0,0.0,0.0,0.0,0.0,0.0,0.0,0.0,0.0,0.0,0.0,0.0,0.0,0.0,0.0,0.0,0.0,0.0,0.0,0.0,0.0,0.0,0.0,0.0,0.0,0.0,0.0,0.0,0.0,0.0,0.0,0.0,0.0,0.0,0.0,0.0,0.0,0.0,-1.8233,0.0,0.0,0.0,0.0,0.0,0.0,0.0,0.0,0.0,0.0,0.0,0.0,0.0,0.0,0.0,0.0,0.0,0.0,0.0,0.0,0.0,0.0,0.0,0.0,0.0,0.0,0.0,0.0,0.0,0.0,0.0,0.0,0.0,0.0,0.0,0.0,0.0,0.0,0.0,0.0,0.0,0.0,0.0,0.0,0.0,0.0,0.0,0.0,0.0,0.0,0.0,0.0,0.0,0.0,0.0,0.0,0.0,0.0,0.0,0.0,0.0,0.0,0.0,0.0,0.0,0.0,0.0,0.0,0.0,0.0,0.0,0.0,0.0,0.0,0.0,0.0,0.0,0.0,0.0,0.0,0.0,0.0,0.0,0.0,0.0,0.0,0.0,0.0,0.0,0.0,0.0,0.0,0.0,0.0,0.0,0.0,0.0,0.0,0.0,0.0,0.0,0.0,0.0,0.0,0.0,0.0,0.0,0.0,0.0,0.0,-1.8321,-1.9438,-1.7295,-1.7138,-1.9256,0.0,0.0,0.0,0.0,0.0,0.0,0.0,0.0,0.0,0.0,0.0,0.0,0.0,0.0,0.0,0.0,0.0,0.0,0.0,0.0,0.0,0.0,0.0,0.0,0.0,0.0,0.0,0.0,0.0,0.0,0.0,0.0,0.0,0.0,0.0,0.0,0.0,0.0,0.0,0.0,0.0,0.0,0.0,0.0,0.0,0.0,0.0,0.0,0.0,0.0,0.0,0.0,0.0,0.0,0.0,0.0,0.0,0.0,0.0,0.0,0.0,0.0,0.0,0.0,0.0,0.0,0.0,0.0,0.0,0.0,0.0,0.0,0.0,0.0,0.0,0.0,0.0,0.0,0.0,0.0,0.0,0.0,0.0,0.0,0.0,0.0,0.0,0.0,0.0,0.0,0.0,0.0,0.0,0.0,0.0,0.0,0.0,0.0,0.0,0.0,0.0,0.0,0.0,0.0,0.0,0.0,0.0,0.0,0.0,0.0,0.0,0.0,-1.8035,-1.7749,-2.0287,0.0,0.0,0.0,0.0,0.0,0.0,0.0,0.0,0.0,0.0,0.0,0.0,0.0,0.0,0.0,0.0,0.0,0.0,0.0,0.0,0.0,0.0,0.0,0.0,0.0,0.0,0.0,0.0,0.0,0.0,0.0,0.0,0.0,0.0,0.0,0.0,0.0,0.0,0.0,0.0,0.0,0.0,0.0,0.0,0.0,0.0,0.0,0.0,0.0,0.0,0.0,0.0,0.0,0.0,0.0,0.0,0.0,0.0,0.0,0.0,0.0,0.0,0.0,0.0,0.0,0.0,0.0,0.0,0.0,0.0,0.0,0.0,0.0,0.0,0.0,0.0,0.0,0.0,0.0,0.0,0.0,0.0,0.0,0.0,0.0,0.0,0.0,0.0,0.0,0.0,0.0,0.0,0.0,0.0,0.0,0.0,0.0,0.0,0.0,0.0,0.0,0.0,0.0,0.0,0.0,0.0,0.0,0.0,0.0,0.0,-2.0946,-2.2572,-2.1505,0.0,-2.1504,0.0,0.0,0.0,0.0,0.0,0.0,0.0,0.0,0.0,0.0,0.0,0.0,0.0,0.0,0.0,0.0,0.0,0.0,0.0,0.0,0.0,0.0,0.0,0.0,0.0,0.0,0.0,0.0,0.0,0.0,0.0,0.0,0.0,0.0,0.0,0.0,0.0,0.0,0.0,0.0,0.0,0.0,0.0,0.0,0.0,0.0,0.0,0.0,0.0,0.0,0.0,0.0,0.0,0.0,0.0,0.0,0.0,0.0,0.0,0.0,0.0,0.0,0.0,0.0,0.0,0.0,0.0,0.0,0.0,0.0,0.0,0.0,0.0,0.0,0.0,0.0,0.0,0.0,0.0,0.0,0.0,0.0,0.0,0.0,0.0,0.0,0.0,0.0,0.0,0.0,0.0,0.0,0.0,0.0,0.0,0.0,0.0,0.0,0.0,0.0,0.0,0.0,0.0,0.0,0.0,0.0,0.0,0.0,0.0,0.0,-2.104,-2.2217,-2.1875,-2.1687,0.0,0.0,0.0,0.0,0.0,0.0,0.0,0.0,0.0,0.0,0.0,0.0,0.0,0.0,0.0,0.0,0.0,0.0,0.0,0.0,0.0,0.0,0.0,0.0,0.0,0.0,0.0,0.0,0.0,0.0,0.0,0.0,0.0,0.0,0.0,0.0,0.0,0.0,0.0,0.0,0.0,0.0,0.0,0.0,0.0,0.0,0.0,0.0,0.0,0.0,0.0,0.0,0.0,0.0,0.0,0.0,0.0,0.0,0.0,0.0,0.0,0.0,0.0,0.0,0.0,0.0,0.0,0.0,0.0,0.0,0.0,0.0,0.0,0.0,0.0,0.0,0.0,0.0,0.0,0.0,0.0,0.0,0.0,0.0,0.0,0.0,0.0,0.0,0.0,0.0,0.0,0.0,0.0,0.0,0.0,0.0,0.0,0.0,0.0,0.0,0.0,0.0,0.0,0.0,0.0,0.0,0.0,0.0,0.0,0.0,-2.1102,-2.1277,-2.2072,-2.2129,-2.2124,-2.2146,0.0,0.0,0.0,0.0,0.0,0.0,0.0,0.0,0.0,0.0,0.0,0.0,0.0,0.0,0.0,0.0,0.0,0.0,0.0,0.0,0.0,0.0,0.0,0.0,0.0,0.0,0.0,0.0,0.0,0.0,0.0,0.0,0.0,0.0,0.0,0.0,0.0,0.0,0.0,0.0,0.0,0.0,0.0,0.0,0.0,0.0,0.0,0.0,0.0,0.0,0.0,0.0,0.0,0.0,0.0,0.0,0.0,0.0,0.0,0.0,0.0,0.0,0.0,0.0,0.0,0.0,0.0,0.0,0.0,0.0,0.0,0.0,0.0,0.0,0.0,0.0,0.0,0.0,0.0,0.0,0.0,0.0,0.0,0.0,0.0,0.0,0.0,0.0,0.0,0.0,0.0,0.0,0.0,0.0,0.0,0.0,0.0,0.0,0.0,0.0,0.0,0.0,0.0,0.0,0.0,0.0,0.0,0.0,-2.3994,-2.2578,-2.2119,-2.2898,-2.2954,-2.2957,0.0,0.0,0.0,0.0,0.0,0.0,0.0,0.0,0.0,0.0,0.0,0.0,0.0,0.0,0.0,0.0,0.0,0.0,0.0,0.0,0.0,0.0,0.0,0.0,0.0,0.0,0.0,0.0,0.0,0.0,0.0,0.0,0.0,0.0,0.0,0.0,0.0,0.0,0.0,0.0,0.0,0.0,0.0,0.0,0.0,0.0,0.0,0.0,0.0,0.0,0.0,0.0,0.0,0.0,0.0,0.0,0.0,0.0,0.0,0.0,0.0,0.0,0.0,0.0,0.0,0.0,0.0,0.0,0.0,0.0,0.0,0.0,0.0,0.0,0.0,0.0,0.0,0.0,0.0,0.0,0.0,0.0,0.0,0.0,0.0,0.0,0.0,0.0,0.0,0.0,0.0,0.0,0.0,0.0,0.0,0.0,0.0,0.0,0.0,0.0,0.0,0.0,0.0,0.0,0.0,0.0,0.0,0.0,0.0,-2.1902,-2.1889,-2.2246,-2.3006,-2.2558,-2.2539,0.0,0.0,0.0,0.0,0.0,0.0,0.0,0.0,0.0,0.0,0.0,0.0,0.0,0.0,0.0,0.0,0.0,0.0,0.0,0.0,0.0,0.0,0.0,0.0,0.0,0.0,0.0,0.0,0.0,0.0,0.0,0.0,0.0,0.0,0.0,0.0,0.0,0.0,0.0,0.0,0.0,0.0,0.0,0.0,0.0,0.0,0.0,0.0,0.0,0.0,0.0,0.0,0.0,0.0,0.0,0.0,0.0,0.0,0.0,0.0,0.0,0.0,0.0,0.0,0.0,0.0,0.0,0.0,0.0,0.0,0.0,0.0,0.0,0.0,0.0,0.0,0.0,0.0,0.0,0.0,0.0,0.0,0.0,0.0,0.0,0.0,0.0,0.0,0.0,0.0,0.0,0.0,0.0,0.0,0.0,0.0,0.0,0.0,0.0,0.0,0.0,0.0,0.0,0.0,0.0,0.0,0.0,0.0,0.0,-2.1382,0.0,-2.2133,-2.2673,-2.2453,-2.2546,0.0,0.0,0.0,0.0,0.0,0.0,0.0,0.0,0.0,0.0,0.0,0.0,0.0,0.0,0.0,0.0,0.0,0.0,0.0,0.0,0.0,0.0,0.0,0.0,0.0,0.0,0.0,0.0,0.0,0.0,0.0,0.0,0.0,0.0,0.0,0.0,0.0,0.0,0.0,0.0,0.0,0.0,0.0,0.0,0.0,0.0,0.0,0.0,0.0,0.0,0.0,0.0,0.0,0.0,0.0,0.0,0.0,0.0,0.0,0.0,0.0,0.0,0.0,0.0,0.0,0.0,0.0,0.0,0.0,0.0,0.0,0.0,0.0,0.0,0.0,0.0,0.0,0.0,0.0,0.0,0.0,0.0,0.0,0.0,0.0,0.0,0.0,0.0,0.0,0.0,0.0,0.0,0.0,0.0,0.0,0.0,0.0,0.0,0.0,0.0,0.0,0.0,0.0,0.0,0.0,0.0,0.0,0.0,-2.2968,-2.2948,-2.2195,-2.192,-2.1977,-2.2681,-2.3091,0.0,0.0,0.0,0.0,0.0,0.0,0.0,0.0,0.0,0.0,0.0,0.0,0.0,0.0,0.0,0.0,0.0,0.0,0.0,0.0,0.0,0.0,0.0,0.0,0.0,0.0,0.0,0.0,0.0,0.0,0.0,0.0,0.0,0.0,0.0,0.0,0.0,0.0,0.0,0.0,0.0,0.0,0.0,0.0,0.0,0.0,0.0,0.0,0.0,0.0,0.0,0.0,0.0,0.0,0.0,0.0,0.0,0.0,0.0,0.0,0.0,0.0,0.0,0.0,0.0,0.0,0.0,0.0,0.0,0.0,0.0,0.0,0.0,0.0,0.0,0.0,0.0,0.0,0.0,0.0,0.0,0.0,0.0,0.0,0.0,0.0,0.0,0.0,0.0,0.0,0.0,0.0,0.0,0.0,0.0,0.0,0.0,0.0,0.0,0.0,0.0,0.0,0.0,0.0,0.0,0.0,0.0,0.0,0.0,-2.3059,-2.2281,-2.2734,-2.438,-2.3052,-2.3091,0.0,0.0,0.0,0.0,0.0,0.0,0.0,0.0,0.0,0.0,0.0,0.0,0.0,0.0,0.0,0.0,0.0,0.0,0.0,0.0,0.0,0.0,0.0,0.0,0.0,0.0,0.0,0.0,0.0,0.0,0.0,0.0,0.0,0.0,0.0,0.0,0.0,0.0,0.0,0.0,0.0,0.0,0.0,0.0,0.0,0.0,0.0,0.0,0.0,0.0,0.0,0.0,0.0,0.0,0.0,0.0,0.0,0.0,0.0,0.0,0.0,0.0,0.0,0.0,0.0,0.0,0.0,0.0,0.0,0.0,0.0,0.0,0.0,0.0,0.0,0.0,0.0,0.0,0.0,0.0,0.0,0.0,0.0,0.0,0.0,0.0,0.0,0.0,0.0,0.0,0.0,0.0,0.0,0.0,0.0,0.0,0.0,0.0,0.0,0.0,0.0,0.0,0.0,0.0,0.0,0.0,0.0,0.0,0.0,-2.3558,-2.2459,-2.2635,-2.4243,-2.3324,-2.3421,-2.4653,0.0,0.0,0.0,0.0,0.0,0.0,0.0,0.0,0.0,0.0,0.0,0.0,0.0,0.0,0.0,0.0,0.0,0.0,0.0,0.0,0.0,0.0,0.0,0.0,0.0,0.0,0.0,0.0,0.0,0.0,0.0,0.0,0.0,0.0,0.0,0.0,0.0,0.0,0.0,0.0,0.0,0.0,0.0,0.0,0.0,0.0,0.0,0.0,0.0,0.0,0.0,0.0,0.0,0.0,0.0,0.0,0.0,0.0,0.0,0.0,0.0,0.0,0.0,0.0,0.0,0.0,0.0,0.0,0.0,0.0,0.0,0.0,0.0,0.0,0.0,0.0,0.0,0.0,0.0,0.0,0.0,0.0,0.0,0.0,0.0,0.0,0.0,0.0,0.0,0.0,0.0,0.0,0.0,0.0,0.0,0.0,0.0,0.0,0.0,0.0,0.0,0.0,0.0,0.0,0.0,0.0,0.0,0.0,-2.4395,-2.2854,-2.2152,-2.2387,-2.3734,-2.4104,0.0,0.0,0.0,0.0,0.0,0.0,0.0,0.0,0.0,0.0,0.0,0.0,0.0,0.0,0.0,0.0,0.0,0.0,0.0,0.0,0.0,0.0,0.0,0.0,0.0,0.0,0.0,0.0,0.0,0.0,0.0,0.0,0.0,0.0,0.0,0.0,0.0,0.0,0.0,0.0,0.0,0.0,0.0,0.0,0.0,0.0,0.0,0.0,0.0,0.0,0.0,0.0,0.0,0.0,0.0,0.0,0.0,0.0,0.0,0.0,0.0,0.0,0.0,0.0,0.0,0.0,0.0,0.0,0.0,0.0,0.0,0.0,0.0,0.0,0.0,0.0,0.0,0.0,0.0,0.0,0.0,0.0,0.0,0.0,0.0,0.0,0.0,0.0,0.0,0.0,0.0,0.0,0.0,0.0,0.0,0.0,0.0,0.0,0.0,0.0,0.0,0.0,0.0,0.0,0.0,0.0,0.0,0.0,0.0,-2.4349,-2.4561,-2.5293,-2.6546,-2.5805,-2.554,0.0,0.0,0.0,0.0,0.0,0.0,0.0,0.0,0.0,0.0,0.0,0.0,0.0,0.0,0.0,0.0,0.0,0.0,0.0,0.0,0.0,0.0,0.0,0.0,0.0,0.0,0.0,0.0,0.0,0.0,0.0,0.0,0.0,0.0,0.0,0.0,0.0,0.0,0.0,0.0,0.0,0.0,0.0,0.0,0.0,0.0,0.0,0.0,0.0,0.0,0.0,0.0,0.0,0.0,0.0,0.0,0.0,0.0,0.0,0.0,0.0,0.0,0.0,0.0,0.0,0.0,0.0,0.0,0.0,0.0,0.0,0.0,0.0,0.0,0.0,0.0,0.0,0.0,0.0,0.0,0.0,0.0,0.0,0.0,0.0,0.0,0.0,0.0,0.0,0.0,0.0,0.0,0.0,0.0,0.0,0.0,0.0,0.0,0.0,0.0,0.0,0.0,0.0,0.0,0.0,0.0,0.0,0.0,-2.4744,-2.4375,-2.5954,-2.7442,-2.8781,-2.7871,-2.6869,0.0,0.0,0.0,0.0,0.0,0.0,0.0,0.0,0.0,0.0,0.0,0.0,0.0,0.0,0.0,0.0,0.0,0.0,0.0,0.0,0.0,0.0,0.0,0.0,0.0,0.0,0.0,0.0,0.0,0.0,0.0,0.0,0.0,0.0,0.0,0.0,0.0,0.0,0.0,0.0,0.0,0.0,0.0,0.0,0.0,0.0,0.0,0.0,0.0,0.0,0.0,0.0,0.0,0.0,0.0,0.0,0.0,0.0,0.0,0.0,0.0,0.0,0.0,0.0,0.0,0.0,0.0,0.0,0.0,0.0,0.0,0.0,0.0,0.0,0.0,0.0,0.0,0.0,0.0,0.0,0.0,0.0,0.0,0.0,0.0,0.0,0.0,0.0,0.0,0.0,0.0,0.0,0.0,0.0,0.0,0.0,0.0,0.0,0.0,0.0,0.0,0.0,0.0,0.0,0.0,0.0,0.0,0.0,-2.5219,-2.4573,-2.7093,-2.8764,-2.9475,-2.9489,-2.7964,0.0,0.0,0.0,0.0,0.0,0.0,0.0,0.0,0.0,0.0,0.0,0.0,0.0,0.0,0.0,0.0,0.0,0.0,0.0,0.0,0.0,0.0,0.0,0.0,0.0,0.0,0.0,0.0,0.0,0.0,0.0,0.0,0.0,0.0,0.0,0.0,0.0,0.0,0.0,0.0,0.0,0.0,0.0,0.0,0.0,0.0,0.0,0.0,0.0,0.0,0.0,0.0,0.0,0.0,0.0,0.0,0.0,0.0,0.0,0.0,0.0,0.0,0.0,0.0,0.0,0.0,0.0,0.0,0.0,0.0,0.0,0.0,0.0,0.0,0.0,0.0,0.0,0.0,0.0,0.0,0.0,0.0,0.0,0.0,0.0,0.0,0.0,0.0,0.0,0.0,0.0,0.0,0.0,0.0,0.0,0.0,0.0,0.0,0.0,0.0,0.0,0.0,0.0,0.0,0.0,0.0,0.0,0.0,-2.4926,-2.5473,-2.7971,-2.9416,-2.9569,-2.8925,-2.7849,0.0,0.0,0.0,0.0,0.0,0.0,0.0,0.0,0.0,0.0,0.0,0.0,0.0,0.0,0.0,0.0,0.0,0.0,0.0,0.0,0.0,0.0,0.0,0.0,0.0,0.0,0.0,0.0,0.0,0.0,0.0,0.0,0.0,0.0,0.0,0.0,0.0,0.0,0.0,0.0,0.0,0.0,0.0,0.0,0.0,0.0,0.0,0.0,-1.9383,0.0,0.0,0.0,0.0,0.0,0.0,0.0,0.0,0.0,0.0,0.0,0.0,0.0,0.0,0.0,0.0,0.0,0.0,0.0,0.0,0.0,0.0,0.0,0.0,0.0,0.0,0.0,0.0,0.0,0.0,0.0,0.0,0.0,0.0,0.0,0.0,0.0,0.0,0.0,0.0,0.0,0.0,0.0,0.0,0.0,0.0,0.0,0.0,0.0,0.0,0.0,0.0,0.0,0.0,0.0,0.0,0.0,0.0,0.0,-2.5427,-2.6332,-2.8447,-2.9553,-2.9514,-2.8714,-2.7796,0.0,0.0,0.0,0.0,0.0,0.0,0.0,0.0,0.0,0.0,0.0,0.0,0.0,0.0,0.0,0.0,0.0,0.0,0.0,0.0,0.0,0.0,0.0,0.0,0.0,0.0,0.0,0.0,0.0,0.0,0.0,0.0,0.0,0.0,0.0,0.0,0.0,0.0,0.0,0.0,0.0,0.0,0.0,0.0,0.0,0.0,0.0,0.0,0.0,0.0,0.0,0.0,0.0,0.0,0.0,0.0,0.0,0.0,0.0,0.0,0.0,0.0,0.0,0.0,0.0,0.0,0.0,0.0,0.0,0.0,0.0,0.0,0.0,0.0,0.0,0.0,0.0,0.0,0.0,0.0,0.0,0.0,0.0,0.0,0.0,0.0,0.0,0.0,0.0,0.0,0.0,0.0,0.0,0.0,0.0,0.0,0.0,0.0,0.0,0.0,0.0,0.0,0.0,0.0,0.0,0.0,0.0,-2.532,-2.6178,-2.7184,-2.8696,-2.9518,-2.9483,-2.852,-2.7639,-2.6918,0.0,0.0,0.0,0.0,0.0,0.0,0.0,0.0,0.0,0.0,0.0,0.0,0.0,0.0,0.0,0.0,0.0,0.0,0.0,0.0,0.0,0.0,0.0,0.0,0.0,0.0,0.0,0.0,0.0,0.0,0.0,0.0,0.0,0.0,0.0,0.0,0.0,0.0,-1.7687,-1.9445,0.0,0.0,0.0,0.0,0.0,0.0,0.0,0.0,-2.1771,0.0,0.0,0.0,0.0,0.0,0.0,0.0,0.0,0.0,0.0,0.0,0.0,0.0,0.0,0.0,0.0,0.0,0.0,0.0,0.0,0.0,0.0,0.0,0.0,0.0,0.0,0.0,0.0,0.0,0.0,0.0,0.0,0.0,0.0,0.0,0.0,0.0,0.0,0.0,0.0,0.0,0.0,0.0,0.0,0.0,0.0,0.0,0.0,0.0,0.0,0.0,0.0,0.0,0.0,0.0,0.0,-2.5395,-2.56,-2.6442,-2.7967,-2.8977,-2.9503,-2.9464,-2.7965,-2.704,-2.6805,0.0,0.0,0.0,0.0,0.0,0.0,0.0,0.0,0.0,0.0,0.0,0.0,0.0,0.0,0.0,0.0,0.0,0.0,0.0,0.0,0.0,0.0,0.0,0.0,0.0,0.0,0.0,0.0,0.0,0.0,0.0,0.0,0.0,0.0,0.0,0.0,0.0,0.0,0.0,-1.9099,-2.0381,0.0,0.0,0.0,0.0,0.0,0.0,0.0,0.0,-2.2497,0.0,0.0,0.0,0.0,0.0,0.0,0.0,0.0,0.0,0.0,0.0,0.0,0.0,0.0,0.0,0.0,0.0,0.0,0.0,0.0,0.0,0.0,0.0,0.0,0.0,0.0,0.0,0.0,0.0,0.0,0.0,0.0,0.0,0.0,0.0,0.0,0.0,0.0,0.0,0.0,0.0,0.0,0.0,0.0,0.0,0.0,0.0,0.0,0.0,0.0,0.0,0.0,0.0,0.0,0.0,-2.5519,-2.5196,-2.5816,-2.7472,-2.8345,-2.8593,-2.814,-2.6909,-2.6178,0.0,0.0,0.0,0.0,0.0,0.0,0.0,0.0,0.0,0.0,0.0,0.0,0.0,0.0,0.0,0.0,0.0,0.0,0.0,0.0,0.0,0.0,0.0,0.0,0.0,0.0,0.0,0.0,0.0,0.0,0.0,0.0,0.0,0.0,0.0,0.0,0.0,0.0,0.0,0.0,-1.9586,-2.0317,-1.961,0.0,0.0,0.0,0.0,0.0,0.0,-2.2534,-2.2895,0.0,0.0,0.0,0.0,0.0,0.0,0.0,0.0,0.0,0.0,0.0,0.0,0.0,0.0,0.0,0.0,0.0,0.0,0.0,0.0,0.0,0.0,0.0,0.0,0.0,0.0,0.0,0.0,0.0,0.0,0.0,0.0,0.0,0.0,0.0,0.0,0.0,0.0,0.0,0.0,0.0,0.0,0.0,0.0,0.0,0.0,0.0,0.0,0.0,0.0,0.0,0.0,0.0,0.0,0.0,-2.5577,-2.4938,-2.5299,-2.6836,-2.7529,-2.7556,-2.6904,-2.6065,-2.5531,0.0,0.0,0.0,0.0,0.0,0.0,0.0,0.0,0.0,0.0,0.0,0.0,0.0,0.0,0.0,0.0,0.0,0.0,0.0,0.0,0.0,0.0,0.0,0.0,0.0,0.0,0.0,0.0,0.0,0.0,0.0,0.0,0.0,0.0,0.0,0.0,0.0,0.0,0.0,0.0,0.0,-2.0415,-2.0117,-2.113,0.0,0.0,0.0,0.0,-2.2905,-2.3214,0.0,0.0,0.0,0.0,0.0,0.0,0.0,0.0,0.0,0.0,0.0,0.0,0.0,0.0,0.0,0.0,0.0,0.0,0.0,0.0,0.0,0.0,0.0,0.0,0.0,0.0,0.0,0.0,0.0,0.0,0.0,0.0,0.0,0.0,0.0,0.0,0.0,0.0,0.0,0.0,0.0,0.0,0.0,0.0,0.0,0.0,0.0,0.0,0.0,0.0,0.0,0.0,0.0,0.0,0.0,0.0,-2.5565,-2.5498,-2.5931,-2.6862,-2.6986,-2.7006,-2.6889,-2.6048,-2.5531,0.0,0.0,0.0,0.0,0.0,0.0,0.0,0.0,0.0,0.0,0.0,0.0,0.0,0.0,0.0,0.0,0.0,0.0,0.0,0.0,0.0,0.0,0.0,0.0,0.0,0.0,0.0,0.0,0.0,0.0,0.0,0.0,0.0,0.0,0.0,0.0,0.0,0.0,0.0,0.0,0.0,-2.0899,-2.1559,-2.1848,-2.2532,0.0,0.0,-2.3154,-2.2789,-2.351,0.0,0.0,0.0,0.0,0.0,0.0,0.0,0.0,0.0,0.0,0.0,0.0,0.0,0.0,0.0,0.0,0.0,0.0,0.0,0.0,0.0,0.0,0.0,0.0,0.0,0.0,0.0,0.0,0.0,0.0,0.0,0.0,0.0,0.0,0.0,0.0,0.0,0.0,0.0,0.0,0.0,0.0,0.0,0.0,0.0,0.0,0.0,0.0,0.0,0.0,0.0,0.0,0.0,0.0,0.0,-2.43,-2.5512,-2.4632,-2.4782,-2.6106,-2.6164,-2.6164,-2.6145,-2.4844,-2.4523,0.0,0.0,0.0,0.0,0.0,0.0,0.0,0.0,0.0,0.0,0.0,0.0,0.0,0.0,0.0,0.0,0.0,0.0,0.0,0.0,0.0,0.0,0.0,0.0,0.0,0.0,0.0,0.0,0.0,0.0,0.0,0.0,0.0,0.0,0.0,0.0,0.0,0.0,0.0,0.0,0.0,0.0,-2.1918,-2.2365,0.0,0.0,0.0,-2.347,-2.3584,0.0,0.0,0.0,0.0,0.0,0.0,0.0,0.0,0.0,0.0,0.0,0.0,0.0,0.0,0.0,0.0,0.0,0.0,0.0,0.0,0.0,0.0,0.0,0.0,0.0,0.0,0.0,0.0,0.0,0.0,0.0,0.0,0.0,0.0,0.0,0.0,0.0,0.0,0.0,0.0,0.0,0.0,0.0,0.0,0.0,0.0,0.0,0.0,0.0,0.0,0.0,0.0,0.0,0.0,0.0,0.0,0.0,-2.5522,-2.3888,-2.3834,-2.5543,-2.5601,-2.5601,-2.5582,-2.4125,0.0,0.0,0.0,0.0,0.0,0.0,0.0,0.0,0.0,0.0,0.0,0.0,0.0,0.0,0.0,0.0,0.0,0.0,0.0,0.0,0.0,0.0,0.0,0.0,0.0,0.0,0.0,-2.0994,0.0,0.0,0.0,0.0,0.0,0.0,0.0,0.0,0.0,0.0,0.0,0.0,0.0,0.0,-2.292,-2.2599,-2.3005,-2.3434,0.0,0.0,-2.3854,-2.4118,-2.397,-2.3841,0.0,0.0,0.0,0.0,0.0,0.0,0.0,0.0,0.0,0.0,0.0,0.0,0.0,0.0,0.0,0.0,0.0,0.0,0.0,0.0,0.0,0.0,0.0,0.0,0.0,0.0,0.0,0.0,0.0,0.0,0.0,0.0,0.0,0.0,0.0,0.0,0.0,0.0,0.0,0.0,0.0,0.0,0.0,0.0,0.0,0.0,0.0,0.0,0.0,0.0,0.0,0.0,0.0,0.0,-2.3923,-2.5471,-2.3872,-2.3853,-2.5523,-2.5601,-2.5601,-2.5582,-2.4682,-2.46,0.0,0.0,0.0,0.0,0.0,0.0,0.0,0.0,0.0,0.0,0.0,0.0,0.0,0.0,0.0,0.0,0.0,0.0,0.0,0.0,0.0,0.0,0.0,0.0,0.0,0.0,0.0,0.0,0.0,0.0,0.0,0.0,0.0,0.0,0.0,0.0,0.0,0.0,0.0,0.0,0.0,-2.341,-2.4217,-2.3843,-2.3677,0.0,-2.4352,-2.43,-2.3899,-2.4579,-2.4878,-2.4046,0.0,0.0,0.0,0.0,0.0,0.0,0.0,0.0,0.0,0.0,0.0,0.0,0.0,0.0,0.0,0.0,0.0,0.0,0.0,0.0,0.0,0.0,0.0,0.0,0.0,0.0,0.0,0.0,0.0,0.0,0.0,0.0,0.0,0.0,0.0,0.0,0.0,0.0,0.0,0.0,0.0,0.0,0.0,0.0,0.0,0.0,0.0,0.0,0.0,0.0,0.0,0.0,0.0,-2.3883,-2.5543,-2.3892,-2.3853,-2.5523,-2.5601,-2.5601,-2.5601,-2.4241,-2.3888,0.0,0.0,0.0,0.0,0.0,0.0,0.0,0.0,0.0,0.0,0.0,0.0,0.0,0.0,0.0,0.0,0.0,0.0,0.0,0.0,0.0,0.0,0.0,0.0,0.0,0.0,0.0,0.0,-2.1351,-2.1013,-2.1303,0.0,0.0,0.0,0.0,0.0,0.0,0.0,0.0,0.0,0.0,-2.4137,-2.4522,-2.4316,0.0,0.0,-2.432,-2.4173,-2.3917,-2.4109,-2.4221,-2.3951,-2.444,0.0,0.0,0.0,0.0,0.0,0.0,0.0,0.0,0.0,0.0,0.0,0.0,0.0,0.0,0.0,0.0,0.0,0.0,0.0,0.0,0.0,0.0,0.0,0.0,0.0,0.0,0.0,0.0,0.0,0.0,0.0,0.0,0.0,0.0,0.0,0.0,0.0,0.0,0.0,0.0,0.0,0.0,0.0,0.0,0.0,0.0,0.0,0.0,0.0,0.0,0.0,0.0,-2.4105,-2.5582,-2.4144,-2.4105,-2.5582,-2.5601,-2.5601,-2.5562,-2.4164,-2.3642,0.0,0.0,0.0,0.0,0.0,0.0,0.0,0.0,0.0,0.0,0.0,0.0,0.0,0.0,0.0,0.0,0.0,0.0,0.0,0.0,0.0,0.0,0.0,0.0,0.0,0.0,0.0,0.0,-2.2238,-2.2072,-2.1658,0.0,0.0,0.0,0.0,0.0,0.0,0.0,0.0,0.0,0.0,-2.4575,-2.4575,-2.4733,-2.485,-2.4797,-2.4801,-2.4771,-2.4689,-2.452,-2.432,-2.4151,0.0,0.0,0.0,0.0,0.0,0.0,0.0,0.0,0.0,0.0,0.0,0.0,0.0,0.0,0.0,0.0,0.0,0.0,0.0,0.0,0.0,0.0,0.0,0.0,0.0,0.0,0.0,-2.5616,0.0,0.0,-2.5583,0.0,0.0,0.0,0.0,0.0,0.0,0.0,0.0,0.0,0.0,0.0,0.0,0.0,0.0,0.0,0.0,0.0,0.0,0.0,0.0,0.0,0.0,-2.4708,-2.5562,-2.4708,-2.4688,-2.5562,-2.5601,-2.5601,-2.5582,-2.4727,-2.4275,-2.4275,0.0,0.0,0.0,0.0,0.0,0.0,0.0,0.0,0.0,0.0,0.0,0.0,0.0,0.0,0.0,0.0,0.0,0.0,0.0,0.0,0.0,0.0,0.0,0.0,0.0,0.0,-2.4643,-2.3824,-2.2819,0.0,0.0,0.0,0.0,0.0,0.0,0.0,0.0,0.0,-2.4478,-2.4512,-2.4512,-2.4512,-2.5167,-2.5541,-2.5449,-2.5972,-2.6377,-2.6329,-2.61,-2.5661,0.0,0.0,0.0,0.0,0.0,0.0,0.0,0.0,0.0,0.0,0.0,0.0,0.0,0.0,0.0,0.0,0.0,0.0,0.0,0.0,0.0,0.0,0.0,0.0,0.0,0.0,0.0,-2.6449,-2.64,0.0,0.0,0.0,0.0,0.0,0.0,0.0,0.0,0.0,0.0,0.0,-2.6541,-2.6523,0.0,0.0,0.0,0.0,0.0,0.0,0.0,0.0,0.0,0.0,0.0,0.0,-2.4719,-2.5522,-2.4724,-2.4719,-2.5576,-2.5599,-2.5601,-2.5582,-2.476,-2.4022,-2.3464,0.0,0.0,0.0,0.0,0.0,0.0,0.0,0.0,0.0,0.0,0.0,0.0,0.0,0.0,0.0,0.0,0.0,0.0,0.0,0.0,0.0,0.0,0.0,0.0,0.0,-2.47,0.0,0.0,0.0,0.0,0.0,0.0,0.0,0.0,0.0,0.0,0.0,-2.451,-2.4689,-2.4704,-2.4685,-2.4704,-2.4737,-2.4764,0.0,0.0,0.0,0.0,0.0,0.0,0.0,0.0,0.0,0.0,0.0,0.0,0.0,0.0,-2.7007,-2.6827,-2.6649,-2.6531,-2.6531,0.0,0.0,0.0,0.0,0.0,0.0,0.0,0.0,0.0,0.0,0.0,0.0,0.0,0.0,-2.6952,-2.7694,-2.7168,0.0,0.0,0.0,0.0,0.0,0.0,0.0,0.0,-2.6962,-2.7558,-2.7908,-2.7901,-2.8342,-2.9103,-2.8588,-2.7851,0.0,0.0,0.0,0.0,0.0,0.0,0.0,0.0,-2.5329,-2.5582,-2.5051,-2.5031,-2.5582,-2.561,-2.5604,-2.5582,-2.4741,-2.4042,-2.3464,-2.3411,-2.3682,0.0,0.0,0.0,0.0,0.0,0.0,0.0,0.0,0.0,0.0,0.0,0.0,0.0,0.0,0.0,0.0,0.0,0.0,0.0,0.0,0.0,0.0,0.0,-2.4645,0.0,0.0,0.0,0.0,0.0,0.0,0.0,0.0,0.0,-2.4375,-2.4476,-2.4703,-2.5067,-2.4876,-2.4751,-2.4935,0.0,0.0,0.0,0.0,0.0,0.0,0.0,-2.5949,-2.5832,-2.6549,-2.7022,-2.6616,-2.6724,-2.7108,-2.79,0.0,0.0,-2.698,-2.6804,-2.6672,-2.669,-2.7132,-2.7607,-2.784,-2.8281,-2.8718,0.0,0.0,0.0,0.0,0.0,0.0,0.0,0.0,-2.6357,-2.7379,0.0,-2.7913,0.0,0.0,0.0,0.0,-2.5827,-2.6688,0.0,0.0,-2.7968,-2.8787,-2.9632,-2.9691,-3.0099,-3.086,-3.0821,-3.0392,-2.9537,-2.7069,0.0,0.0,0.0,0.0,0.0,0.0,-2.6443,-2.5648,-2.5579,-2.5598,-2.5609,-2.5605,-2.56,-2.5587,-2.4805,-2.4352,-2.4294,-2.4255,-2.4294,-2.4294,-2.4892,0.0,0.0,0.0,0.0,0.0,0.0,0.0,0.0,0.0,0.0,0.0,0.0,0.0,0.0,0.0,0.0,0.0,0.0,0.0,0.0,-2.4673,0.0,0.0,0.0,0.0,0.0,0.0,0.0,0.0,0.0,0.0,-2.4512,-2.4512,-2.4811,-2.5632,0.0,0.0,0.0,0.0,-2.5445,-2.5326,-2.6563,-2.7529,-2.757,-2.8003,-2.8047,-2.7299,0.0,0.0,-2.7273,-2.6766,-2.6693,-2.7399,-2.7628,-2.7477,-2.7407,-2.7452,-2.7453,-2.7471,-2.8062,-2.8605,-2.8667,-2.8757,-2.883,-3.2196,0.0,0.0,0.0,0.0,-2.9715,-3.0035,-3.0552,-3.0349,-3.031,-3.0357,-2.9913,0.0,0.0,0.0,0.0,0.0,0.0,-2.9664,-2.9726,-3.0582,-3.112,-3.1387,-3.1368,-3.1816,-3.2617,-3.2012,-3.1602,-3.1331,-2.9991,-2.8671,-2.7439,0.0,0.0,0.0,0.0,-2.5913,-2.5679,-2.5662,-2.5662,-2.5659,-2.5627,-2.5603,-2.5604,-2.5371,-2.4941,-2.4313,-2.4294,-2.4294,-2.4294,-2.4397,0.0,0.0,0.0,0.0,0.0,0.0,0.0,0.0,0.0,0.0,0.0,0.0,0.0,0.0,0.0,0.0,0.0,0.0,0.0,-2.4689,-2.4673,-2.4657,0.0,0.0,0.0,0.0,0.0,0.0,0.0,0.0,0.0,-2.4645,-2.4645,-2.5169,0.0,0.0,-2.5134,-2.6467,-2.5987,-2.5484,-2.5463,-2.61,0.0,-2.6794,-2.7307,-2.7646,-2.75,-2.7852,-2.833,-2.8959,-2.8895,-2.9029,-2.9789,-2.997,-2.997,-2.9845,-2.8985,-2.8341,-2.8323,-2.8902,-2.9427,-2.9481,-2.9898,-3.0314,-3.5796,-3.3827,-3.3144,-3.2656,-3.2363,-3.2343,-3.2625,-3.3041,-3.2745,-3.2882,-3.3236,-3.2257,-3.1446,-3.0801,-3.0072,0.0,0.0,0.0,-3.1307,-3.1344,-3.2194,-3.2792,-3.3105,-3.3144,-3.3573,-3.4371,-3.3554,-3.3124,-3.3105,-3.2246,-3.1138,-2.9722,0.0,-2.7265,-2.7376,-2.662,-2.623,-2.6191,-2.5878,-2.5702,-2.5703,-2.5638,-2.5598,-2.5601,-2.5615,-2.5351,-2.4844,-2.4818,-2.4824,-2.4818,-2.4729,-2.4919,0.0,0.0,0.0,0.0,0.0,0.0,0.0,0.0,0.0,0.0,0.0,-2.4561,-2.4582,0.0,0.0,0.0,-2.4673,-2.4723,-2.4719,-2.4723,0.0,0.0,0.0,0.0,0.0,0.0,0.0,-2.4516,-2.462,-2.4839,-2.5158,-2.5196,-2.5574,-2.6481,-2.5733,-2.5566,-2.6822,0.0,-2.6079,-2.6021,-2.6583,-2.7013,-2.709,-2.7597,-2.8015,-2.8095,-2.8463,-2.887,-2.9381,-2.9533,-2.9807,-3.0556,-3.1013,-3.136,-3.1652,-3.1141,-3.0476,-2.9853,-3.0301,-3.0854,-3.0976,-3.1616,-3.2182,-3.8863,-3.8668,-3.7067,-3.5857,-3.5018,-3.5018,-3.4998,-3.4959,-3.4159,-3.5115,-3.7067,-3.4764,-3.412,-3.4686,-3.3066,0.0,-3.125,-3.1973,-3.2363,-3.2441,-3.3241,-3.4022,-3.4783,-3.4803,-3.5213,-3.5971,-3.5193,-3.4803,-3.4744,-3.3983,-3.3124,-3.217,-3.0544,-2.9238,-2.83,-2.7519,-2.707,-2.6992,-2.6223,-2.5774,-2.5703,-2.564,-2.5601,-2.5609,-2.5601,-2.56,-2.5607,-2.5601,-2.5601,-2.5601,-2.5609,-2.5596,-2.5596,0.0,0.0,0.0,0.0,0.0,0.0,0.0,0.0,0.0,0.0,0.0,0.0,0.0,0.0,0.0,-2.4707,0.0,-2.4779,-2.4738,0.0,0.0,0.0,-2.4613,-2.4357,-2.4564,-2.4679,-2.4622,0.0,0.0,-2.6,-2.6113,-2.6045,-2.5854,-2.5817,-2.6079,-2.6837,-2.7065,-2.7065,-2.6931,-2.7676,-2.8197,-2.8088,-2.8511,-2.8837,-2.8842,-2.891,-2.8975,-2.9241,-2.9377,-2.9658,-3.0559,-3.1246,-3.1998,-3.2785,-3.3345,-3.3486,-3.1831,-3.2067,-3.2669,-3.2932,-3.3493,-3.4009,-4.1097,-4.0473,-4.005,-3.9039,-3.7692,-3.7672,-3.7672,-3.7672,-3.7458,-3.734,-3.7262,-3.6638,-3.613,-3.5623,-3.4569,-3.4334,-3.4744,-3.4295,-3.4452,-3.5076,-3.5291,-3.5486,-3.5701,-3.5701,-3.5798,-3.5971,-3.5779,-3.5701,-3.5681,-3.5464,-3.4608,-3.3105,-3.2016,-3.0751,-2.9308,-2.8428,-2.7647,-2.7002,-2.6804,-2.6374,-2.5714,-2.5683,-2.564,-2.5601,-2.5597,-2.56,-2.5601,-2.5601,-2.5601,-2.5601,-2.5609,-2.557,-2.5544,-2.6103,0.0,0.0,0.0,0.0,0.0,0.0,0.0,0.0,0.0,-2.5506,-2.4892,0.0,-2.4842,0.0,-2.4764,-2.4707,-2.4723,-2.4723,0.0,0.0,-2.4692,-2.4676,-2.4613,-2.466,-2.4936,-2.5576,-2.5665,-2.5984,-2.681,-2.6923,-2.6904,-2.6834,-2.6853,-2.7378,-2.8727,-2.8353,-2.7904,-2.7939,-2.8435,-2.8852,-2.883,-2.8953,-2.9056,-2.9056,-2.9056,-2.9263,-2.9894,-3.06,-3.1283,-3.2072,-3.289,-3.3462,-3.3635,-3.3887,-3.3919,-3.3623,-3.3642,-3.3854,-3.4478,-3.48,-3.5114,-4.1882,-4.1101,-4.1108,-4.0561,-3.9705,-3.9725,-3.9725,-3.9705,-3.9725,-3.9449,-3.8961,-3.859,-3.7731,-3.6579,-3.6072,-3.5896,-3.5994,-3.5896,-3.5916,-3.601,-3.6401,-3.6381,-3.601,-3.601,-3.601,-3.601,-3.601,-3.601,-3.601,-3.601,-3.5308,-3.3983,-3.3105,-3.2012,-3.0706,-2.9103,-2.8049,-2.7581,-2.68,-2.6177,-2.5726,-2.5697,-2.5859,-2.6156,-2.581,-2.5796,-2.6151,-2.5815,-2.5795,-2.6145,-2.6152,-2.6113,-2.6094,-2.6558,-2.6362,0.0,0.0,0.0,0.0,0.0,0.0,0.0,0.0,0.0,0.0,0.0,-2.4884,-2.4817,-2.4745,-2.4673,-2.4673,-2.4673,-2.4673,-2.4673,-2.4673,-2.4673,-2.4692,-2.5045,-2.5458,-2.5944,-2.632,-2.6848,-2.7636,-2.7749,-2.7899,-2.8256,-2.8331,-2.85,-2.897,-2.8933,-2.8877,-2.8876,-2.9154,-2.9314,-2.9251,-2.923,-2.9212,-2.923,-2.9212,-2.9418,-2.9927,-3.0413,-3.1009,-3.1805,-3.2608,-3.3297,-3.3655,-3.4064,-3.4316,-3.4363,-3.434,-3.4586,-3.533,-3.5218,-3.5256,-4.2108,-4.123,-4.1234,-4.1179,-4.1081,-4.1108,-4.1108,-4.1108,-4.1108,-4.1108,-4.1049,-4.0288,-3.9136,-3.7789,-3.7653,-3.7204,-3.654,-3.7165,-3.7048,-3.6381,-3.7126,-3.7009,-3.6166,-3.6284,-3.6264,-3.6166,-3.6166,-3.6166,-3.6147,-3.6049,-3.5564,-3.4705,-3.3944,-3.3124,-3.2207,-2.9943,-2.8615,-2.8283,-2.6702,-2.5863,-2.5863,-2.5863,-2.619,-2.682,-2.6058,-2.5954,-2.6681,-2.599,-2.5951,-2.6669,-2.6689,-2.6644,-2.6651,-2.6747,-2.6359,0.0,-2.5398,0.0,0.0,0.0,0.0,0.0,0.0,0.0,0.0,-2.5456,-2.4888,-2.4764,-2.4768,-2.4749,-2.4749,-2.4749,-2.4791,-2.487,-2.4888,-2.4911,-2.5027,-2.5684,-2.6207,-2.6284,-2.6942,-2.7655,-2.8426,-2.8557,-2.8894,-2.9439,-2.9551,-2.9345,-2.8838,-2.9232,-2.9608,-2.9701,-2.9701,-2.9589,-2.9472,-2.9433,-2.9433,-2.9433,-2.9433,-2.9511,-2.9683,-2.9852,-3.0171,-3.0977,-3.1878,-3.2629,-3.3419,-3.417,-3.4583,-3.4602,-3.458,-3.4861,-3.5574,-3.5368,-3.5315,-4.3305,-4.1913,-4.1974,-4.1629,-4.1037,-4.1078,-4.1108,-4.1108,-4.1108,-4.1108,-4.1088,-4.0932,-4.0659,-4.0327,-3.9644,-3.9234,-3.9039,-3.857,-3.8258,-3.8121,-3.8277,-3.7887,-3.7126,-3.7789,-3.775,-3.7087,-3.7048,-3.7048,-3.7028,-3.6342,-3.5564,-3.4725,-3.453,-3.4022,-3.3144,0.0,0.0,0.0,-2.7288,-2.6763,-2.6743,-2.6743,-2.6795,-2.688,-2.6058,0.0,-2.5821,-2.5698,-2.5679,-2.5834,-2.5835,0.0,0.0,0.0,0.0,0.0,0.0,0.0,0.0,0.0,0.0,0.0,-2.6577,-2.6197,-2.5568,-2.5335,-2.5157,-2.5024,-2.5012,-2.5031,-2.5031,-2.5031,-2.5228,-2.5769,-2.583,-2.6069,-2.6639,-2.6866,-2.7204,-2.788,-2.8069,-2.85,-2.927,-2.9457,-2.9495,-2.9645,-2.9701,-2.9645,-2.9476,-2.957,-2.9683,-2.9701,-2.9701,-2.9683,-2.9664,-2.9626,-2.9626,-2.9645,-2.9645,-2.9645,-2.972,-3.0246,-3.0922,-3.1673,-3.2574,-3.3362,-3.417,-3.4508,-3.4602,-3.4602,-3.4602,-3.4864,-3.5709,-3.5766,-3.5935,-4.3869,-4.2733,-4.2354,-4.1941,0.0,-4.1217,-4.1078,-4.1042,-4.1081,-4.1108,-4.1108,-4.1108,-4.0873,-4.0444,-3.9995,-3.9566,-3.9214,-3.9195,-3.898,-3.8629,-3.9019,-3.8746,-3.7946,-3.8394,-3.8375,-3.7965,-3.7946,-3.7946,-3.7906,-3.7067,-3.6423,-3.5955,-3.5135,-3.4471,-3.4003,-3.2304,-3.0645,-2.8947,-2.8088,-2.7444,-2.7034,-2.7015,-2.6968,-2.6929,-2.6062,0.0,0.0,0.0,0.0,0.0,0.0,0.0,0.0,-2.698,0.0,-2.6118,-2.6865,-2.7329,-2.7284,-2.7323,-2.7533,-2.8001,-2.7668,-2.7028,-2.6025,-2.5948,-2.5889,-2.5746,-2.5742,-2.5731,-2.575,-2.6101,-2.6466,-2.6803,-2.6847,-2.7001,-2.727,-2.7692,-2.8058,-2.8368,-2.8782,-2.9232,-2.9626,-2.9701,-2.9701,-2.9701,-2.9701,-2.9701,-2.9701,-2.9701,-2.9701,-2.9701,-2.9701,-2.9701,-2.9701,-2.9701,-2.9701,-2.9701,-2.9701,-2.9701,-2.9701,-3.0021,-3.0584,-3.1372,-3.2198,-3.3006,-3.3832,-3.4301,-3.4602,-3.4602,-3.4602,-3.4714,-3.5184,-3.524,-3.5653,-4.4296,-4.3493,-4.2703,-4.2237,-4.2014,-4.1331,-4.1022,-4.1013,-4.107,0.0,0.0,-4.1108,-4.0698,-4.0034,-4.0015,-3.9683,-3.91,-3.9741,-3.9663,-3.9081,-3.9722,-3.9585,-3.8827,-3.8983,-3.8963,-3.8807,-3.8807,-3.8824,-3.8785,-3.7946,-3.7458,-3.7184,-3.5857,-3.4998,-3.4588,-3.2578,-3.1016,-3.0062,-2.9025,-2.8186,-2.7485,-2.7464,-2.7375,-2.7226,-2.6323,-2.611,-2.6626,-2.5975,-2.5987,-2.6823,-2.6857,-2.6883,-2.7039,-2.7704,-2.7775,-2.7128,-2.7709,-2.84,-2.9024,-2.8609,-2.8609,-2.9276,-2.871,-2.7927,-2.6936,-2.6861,-2.6766,-2.6486,-2.6608,-2.6655,-2.651,-2.7209,-2.7731,-2.7853,-2.7879,-2.7867,-2.7928,-2.8487,-2.8885,-2.8794,-2.9286,-2.9719,-2.9683,-2.9701,-2.9701,-2.9701,-2.9701,-2.9701,-2.9701,-2.9701,-2.9701,-2.9701,-2.9701,-2.9701,-2.9701,-2.9701,-2.9701,-2.9701,-2.9701,-2.9701,-2.9701,-2.9814,-3.0208,-3.111,-3.1785,-3.2687,-3.3494,-3.4189,-3.4583,-3.4602,-3.4602,-3.4623,-3.4604,-3.4604,-3.5052,-4.4891,-4.41,-4.3313,-4.257,-4.1872,-4.1147,-4.0887,-4.1013,-4.1066,-4.1108,-4.1108,-4.1108,-4.103,-4.0912,-4.0912,-4.0854,-4.0759,-4.0873,-4.0854,-4.0756,-4.0854,-4.0464,-3.9702,-4.0405,-4.0366,-3.9663,-3.9644,-3.9624,-3.9546,-3.8804,-3.8063,-3.736,-3.7048,-3.6169,-3.4803,-3.4334,-3.3358,-3.1777,-3.0216,-2.9357,-2.924,-2.924,-2.8839,-2.8047,-2.7226,-2.6462,-2.58,-2.5691,-2.6002,-2.6836,-2.6898,-2.72,-2.7867,-2.8029,-2.8042,-2.7925,-2.8034,-2.8151,-2.8311,-2.8846,-2.9272,-2.9365,-2.9271,-2.8844,-2.7985,-2.7881,-2.7571,-2.6877,-2.745,-2.7547,-2.6931,-2.7572,-2.8338,-2.8802,-2.8895,-2.9097,-2.9555,-2.9756,-2.9794,-2.9661,-2.978,-2.9842,-2.9738,-2.9701,-2.9701,-2.9701,-2.9701,-2.9701,-2.9701,-2.9701,-2.9701,-2.9701,-2.9701,-2.9701,-2.9701,-2.9701,-2.9701,-2.9701,-2.9701,-2.9701,-2.9701,-3.0227,-3.0903,-3.1767,-3.2536,-3.34,-3.4207,-3.4489,-3.4583,-3.4602,-3.4602,-3.4645,-3.4727,-3.4685,-3.4714,-4.5283,-4.4802,-4.3609,-4.2868,-4.2395,-4.1242,-4.0809,-4.0902,-4.1006,-4.107,-4.1108,-4.1108,-4.1108,-4.1108,-4.1108,-4.1108,-4.1108,-4.1108,-4.1108,-4.1108,-4.1108,-4.0873,-4.0561,-4.0893,-4.0893,-4.0522,-4.0503,-4.0483,-4.0444,-3.9663,-3.8824,-3.7985,-3.7087,-3.6423,-3.6091,-3.5174,-3.4315,-3.3515,-3.1816,-3.0509,-2.963,-2.9611,-2.9166,-2.8295,-2.785,-2.7461,-2.7029,-2.7015,-2.7198,-2.7585,-2.7601,-2.7784,-2.8147,-2.8598,-2.8856,-2.8874,-2.9257,-2.9506,-2.9509,-2.9889,-3.0102,-3.0056,-3.0086,-2.9945,-2.9543,-2.9077,-2.8643,-2.8255,-2.8597,-2.8667,-2.8284,-2.8974,-2.9599,-2.9883,-2.9912,-2.9995,-3.0157,-3.0228,-3.0177,-3.0037,-3.0011,-2.995,-2.9842,-2.9789,-2.9773,-2.9719,-2.9701,-2.9701,-2.9701,-2.9701,-2.9701,-2.9701,-2.9701,-2.9701,-2.9701,-2.9701,-2.9701,-2.9701,-2.9701,-2.9701,-2.9739,-3.0377,-3.1166,-3.1973,-3.2818,-3.3663,-3.4451,-3.4602,-3.4602,-3.4602,-3.4602,-3.4645,-3.4685,-3.4645,-3.4623,-4.5457,-4.5342,-4.3701,-4.2797,-4.2343,-4.1171,-4.0699,-4.0771,-4.1079,-4.1143,-4.1066,-4.1085,-4.1108,-4.1108,-4.1108,-4.1108,-4.1108,-4.1108,-4.1108,-4.1108,-4.1108,-4.1108,-4.1108,-4.1108,-4.1108,-4.1108,-4.1108,-4.1108,-4.101,-4.0424,-3.9663,-3.8804,-3.734,-3.6833,-3.7243,-3.5974,-3.5096,-3.4647,-3.3378,-3.1856,-3.0235,-3.016,-2.9669,-2.8674,-2.8549,-2.8436,-2.8241,-2.8202,-2.8294,-2.847,-2.8496,-2.8572,-2.8795,-2.942,-2.9799,-2.9831,-3.0349,-3.0711,-3.0697,-3.0695,-3.068,-3.0626,-3.0676,-3.069,-3.0651,-3.0088,-2.9583,-2.9467,-2.955,-2.9613,-2.947,-3.0083,-3.0621,-3.0604,-3.0615,-3.052,-3.04,-3.0359,-3.0314,-3.0171,-3.0163,-3.0095,-2.9981,-2.9953,-2.9888,-2.979,-2.9719,-2.9701,-2.9701,-2.9701,-2.9701,-2.9701,-2.9701,-2.9701,-2.9701,-2.9701,-2.9701,-2.9701,-2.9701,-2.9701,-2.9814,-3.0377,-3.1166,-3.1973,-3.2799,-3.3644,-3.4395,-3.4602,-3.4602,-3.4602,-3.4602,-3.4623,-3.4623,-3.4645,-3.4645,-4.5418,-4.515,-4.3561,-4.1987,-4.0809,-4.0592,-4.0549,-4.0713,-4.1455,-4.1477,-4.0999,-4.1066,-4.1147,-4.1108,-4.1127,-4.1147,-4.1108,-4.1108,-4.1108,-4.1108,-4.1108,-4.1108,-4.1108,-4.1108,-4.1108,-4.1108,-4.1108,-4.1108,-4.1108,-4.0952,-4.0522,-3.9683,-3.8785,-3.7965,-3.7399,-3.7126,-3.6286,-3.4744,-3.4549,-3.3612,-3.1992,-3.1856,-3.1094,-2.9533,-2.9476,-2.9088,-2.8444,-2.822,-2.8594,-2.9297,-2.9389,-2.9732,-3.0415,-3.0625,-3.0644,-3.0582,-3.0651,-3.0693,-3.0706,-3.0698,-3.0697,-3.071,-3.0729,-3.0736,-3.0717,-3.0651,-3.0243,-2.9758,-3.0127,-3.0171,-2.9574,-3.0188,-3.0637,-3.0604,-3.0615,-3.0606,-3.0569,-3.0588,-3.051,-3.0294,-3.0283,-3.0234,-3.0103,-3.008,-3.0007,-2.9905,-2.979,-2.9719,-2.9719,-2.972,-2.9701,-2.9701,-2.9701,-2.9701,-2.9701,-2.9701,-2.9701,-2.9701,-2.9701,-2.9701,-2.9852,-3.0377,-3.1165,-3.1954,-3.2818,-3.3663,-3.4301,-3.4602,-3.4602,-3.4602,-3.4602,-3.4602,-3.4604,-3.4666,-3.4708,-4.5418,-4.5226,-4.3522,-4.1876,-4.0475,-4.0432,-4.0463,-4.0566,-4.1446,-4.1712,-4.1655,-4.2227,-4.2008,-4.116,-4.1612,-4.1596,-4.1108,-4.1108,-4.1108,-4.1108,-4.1108,-4.1108,-4.1108,-4.1108,-4.1108,-4.1108,-4.1108,-4.1108,-4.103,-4.06,-4.0385,-4.0405,-3.9273,-3.8648,-3.8687,-3.7789,-3.6931,-3.6267,-3.572,-3.4861,-3.369,-3.2617,-3.1797,-3.1114,-3.0567,-3.0157,-2.9826,-2.9754,-2.9894,-3.0227,-3.027,-3.0428,-3.0761,-3.079,-3.0795,-3.0739,-3.0767,-3.0732,-3.0693,-3.0743,-3.0735,-3.0711,-3.1183,-3.1262,-3.08,-3.1631,-3.1681,-3.0477,-3.0496,-3.0528,-3.0253,-3.0506,-3.0665,-3.0621,-3.0604,-3.0606,-3.0598,-3.0617,-3.0559,-3.05,-3.0481,-3.04,-3.0266,-3.0144,-3.0075,-3.0007,-2.9905,-2.9842,-2.9806,-2.9756,-2.9701,-2.9701,-2.9701,-2.9701,-2.9701,-2.9701,-2.9701,-2.9701,-2.9701,-2.9701,-2.9795,-3.0377,-3.1146,-3.1936,-3.2762,-3.3588,-3.4433,-3.4583,-3.4602,-3.4602,-3.4602,-3.4602,-3.4602,-3.4645,-3.4645,-4.5359,-4.5129,-4.375,-4.2317,-4.1015,-4.1051,-4.1051,-4.1165,-4.203,-4.2382,-4.2383,-4.3578,-4.3249,-4.1939,-4.2225,-4.2045,-4.1479,-4.1205,-4.1108,-4.1127,-4.1342,-4.1342,-4.1147,-4.1615,-4.1674,-4.1479,-4.1479,-4.1342,-4.1069,-4.0503,-4.0483,-4.0815,-3.9878,-3.9449,-3.9605,-3.8316,-3.7536,-3.7223,-3.6462,-3.5678,-3.494,-3.3593,-3.2578,-3.2109,-3.1485,-3.1055,-3.0801,-3.0801,-3.0801,-3.0782,-3.0801,-3.0919,-3.1153,-3.1172,-3.1257,-3.1443,-3.1286,-3.1122,-3.1079,-3.0901,-3.076,-3.0794,-3.152,-3.1765,-3.1465,-3.2441,-3.2672,-3.1654,-3.1195,-3.1033,-3.0719,-3.0707,-3.0653,-3.0602,-3.0613,-3.0615,-3.0607,-3.0617,-3.0617,-3.0617,-3.0588,-3.0559,-3.0389,-3.0266,-3.0157,-3.0144,-3.0037,-2.9937,-2.9905,-2.9806,-2.9737,-2.9701,-2.9701,-2.9701,-2.9701,-2.9701,-2.9701,-2.9701,-2.9701,-2.9701,-2.9701,-3.0265,-3.0809,-3.141,-3.2424,-3.3287,-3.3963,-3.4245,-3.4567,-3.4583,-3.4602,-3.4602,-3.4602,-3.4602,-3.4602,-4.5298,-4.5163,-4.4322,-4.3406,-4.268,-4.2623,-4.2642,-4.2585,-4.3561,-4.3578,-4.325,-4.4833,-4.4785,-4.3305,-4.2802,-4.2415,-4.224,-4.1557,-4.1264,-4.1322,-4.2006,-4.1908,-4.1244,-4.2767,-4.3118,-4.2376,-4.2337,-4.1967,-4.1244,-4.1127,-4.1049,-4.1088,-4.0991,-4.0561,-3.9858,-3.9,-3.8141,-3.7477,-3.6579,-3.5991,-3.5857,-3.5037,-3.3768,-3.2422,-3.209,-3.168,-3.0977,-3.0821,-3.0821,-3.0821,-3.086,-3.1192,-3.1934,-3.2031,-3.2383,-3.2992,-3.2478,-3.2051,-3.1953,-3.1381,-3.094,-3.0997,-3.1806,-3.2088,-3.206,-3.2933,-3.3289,-3.3028,-3.2365,-3.1744,-3.0913,-3.0746,-3.068,-3.0613,-3.0613,-3.0604,-3.0607,-3.0617,-3.0617,-3.0617,-3.0617,-3.0588,-3.0559,-3.04,-3.0325,-3.0271,-3.0171,-3.0066,-2.9965,-2.9921,-2.9841,-2.9756,-2.9701,-2.9683,-2.9701,-2.9701,-2.9701,-2.9701,-2.9701,-2.9701,-2.9701,-2.9833,-3.0321,-3.0847,-3.1655,-3.2482,-3.3287,-3.3888,-3.4323,-3.4492,-3.4564,-3.4583,-3.4602,-3.4602,-3.4602,-4.4953,-4.4456,-4.4131,-4.352,-4.2814,-4.2775,-4.2775,-4.2871,-4.3674,-4.3982,-4.4047,-4.5086,-4.5355,-4.4882,-4.4191,-4.3621,-4.3224,-4.29,-4.2767,-4.2786,-4.3099,-4.306,-4.2884,-4.343,-4.3567,-4.3274,-4.3235,-4.3079,-4.2806,-4.2767,-4.2474,-4.2006,-4.1927,-4.1498,-4.0639,-3.978,-3.9195,-3.8804,-3.7575,-3.6813,-3.6716,-3.5974,-3.4959,-3.3827,-3.3202,-3.2539,-3.166,-3.1641,-3.1641,-3.1641,-3.1641,-3.2012,-3.2812,-3.2929,-3.3066,-3.3319,-3.3112,-3.292,-3.2902,-3.2652,-3.2459,-3.2537,-3.3261,-3.3475,-3.3268,-3.4082,-3.4514,-3.3577,-3.3583,-3.2992,-3.1715,-3.1022,-3.0661,-3.0602,-3.0613,-3.0615,-3.0607,-3.0617,-3.0617,-3.0617,-3.0617,-3.0617,-3.0588,-3.055,-3.0491,-3.0471,-3.0344,-3.0241,-3.0157,-3.0095,-2.9981,-2.9874,-2.9823,-2.9789,-2.9683,-2.9701,-2.9701,-2.9701,-2.9701,-2.9701,-2.9701,-2.9701,-3.0077,-3.0622,-3.1242,-3.1807,-3.2691,-3.3482,-3.3895,-3.4022,-3.4135,-3.4583,-3.4602,-3.4602,-3.4602,-4.4953,-4.4456,-4.4418,-4.4131,-4.3634,-4.3596,-4.3596,-4.3673,-4.4188,-4.4498,-4.4727,-4.5259,-4.5568,-4.5645,-4.5237,-4.4818,-4.4351,-4.3938,-4.3704,-4.3743,-4.3977,-4.3957,-4.384,-4.427,-4.4387,-4.4153,-4.4114,-4.3977,-4.3723,-4.3704,-4.3235,-4.2435,-4.2396,-4.1967,-4.1108,-4.0229,-3.9702,-3.9214,-3.8024,-3.7184,-3.6872,-3.6303,-3.574,-3.5154,-3.453,-3.369,-3.2578,-3.2539,-3.2519,-3.2519,-3.2519,-3.291,-3.3729,-3.41,-3.4237,-3.4215,-3.3964,-3.3807,-3.3768,-3.3554,-3.3378,-3.3437,-3.4161,-3.4425,-3.3984,-3.5127,-3.5178,-3.4515,-3.4205,-3.3906,-3.2869,-3.1762,-3.0967,-3.069,-3.0604,-3.0722,-3.0917,-3.0772,-3.0636,-3.0617,-3.0617,-3.0617,-3.0617,-3.0617,-3.0598,-3.0617,-3.0481,-3.0389,-3.0314,-3.0234,-3.0103,-2.9996,-2.9965,-2.9886,-2.9823,-2.979,-2.9738,-2.9719,-2.9701,-2.9701,-2.9701,-2.9701,-2.987,-3.0415,-3.0923,-3.1431,-3.2109,-3.2901,-3.3296,-3.3424,-3.4022,-3.4602,-3.4602,-3.4602,-3.4623,-4.5277,-4.522,-4.5277,-4.5182,-4.5067,-4.5048,-4.5201,-4.5105,-4.5182,-4.5165,-4.5186,-4.5438,-4.5472,-4.5539,-4.5601,-4.5704,-4.5382,-4.4429,-4.3966,-4.4009,-4.4657,-4.4602,-4.4055,-4.5382,-4.5656,-4.5031,-4.4992,-4.4602,-4.3977,-4.3957,-4.3509,-4.2669,-4.2552,-4.2123,-4.1166,-4.0385,-3.9527,-3.8863,-3.7985,-3.7048,-3.6166,-3.6088,-3.5974,-3.5913,-3.5835,-3.5076,-3.3554,-3.3437,-3.3417,-3.3398,-3.3398,-3.3827,-3.4666,-3.5369,-3.5893,-3.5659,-3.5135,-3.4764,-3.4627,-3.4022,-3.369,-3.3788,-3.4315,-3.4812,-3.4882,-3.5483,-3.5848,-3.5519,-3.4986,-3.4478,-3.4147,-3.2964,-3.1717,-3.082,-3.0857,-3.1051,-3.1468,-3.1101,-3.0636,-3.0694,-3.0675,-3.0617,-3.0617,-3.0617,-3.0617,-3.0598,-3.0569,-3.0491,-3.0389,-3.0337,-3.0247,-3.0144,-3.0109,-3.0052,-2.9965,-2.9907,-2.9825,-2.9756,-2.9701,-2.9701,-2.9701,-2.9701,-2.9701,-3.0133,-3.0433,-3.0922,-3.1484,-3.2278,-3.3034,-3.3336,-3.403,-3.4572,-3.4687,-3.4689,-3.4687,-4.5277,-4.5277,-4.5277,-4.5277,-4.5277,-4.5277,-4.5277,-4.5277,-4.5277,-4.5277,-4.5298,-4.5341,-4.5361,-4.54,-4.5571,-4.566,-4.5631,-4.5327,-4.5266,-4.537,-4.5699,-4.5734,-4.5617,-4.6027,-4.6163,-4.5929,-4.589,-4.5753,-4.55,-4.546,-4.5051,-4.425,-4.3548,-4.2845,-4.1947,-4.1147,-4.0522,-4.021,-3.8902,-3.8043,-3.7672,-3.6599,-3.603,-3.601,-3.601,-3.5698,-3.5191,-3.4627,-3.4315,-3.4295,-3.4295,-3.4705,-3.5467,-3.5857,-3.601,-3.5991,-3.5779,-3.5603,-3.5584,-3.5349,-3.5112,-3.521,-3.5447,-3.5586,-3.5593,-3.5834,-3.5957,-3.5882,-3.556,-3.5203,-3.4525,-3.4032,-3.3219,-3.2483,-3.1882,-3.1787,-3.2377,-3.1961,-3.1507,-3.1352,-3.0946,-3.0636,-3.0617,-3.0636,-3.0617,-3.0617,-3.0617,-3.0559,-3.052,-3.0481,-3.043,-3.029,-3.0266,-3.0184,-3.0095,-3.0022,-2.9965,-2.9874,-2.979,-2.9701,-2.9701,-2.9701,-2.9701,-2.9812,-3.0111,-3.054,-3.108,-3.1817,-3.2654,-3.3317,-3.3942,-3.4357,-3.4697,-3.4791,-3.4771,-4.5277,-4.5277,-4.5277,-4.5277,-4.5277,-4.5277,-4.5317,-4.5338,-4.5319,-4.5319,-4.5339,-4.532,-4.532,-4.5341,-4.5491,-4.5558,-4.5574,-4.5777,-4.5897,-4.5998,-4.6164,-4.6245,-4.63,-4.63,-4.63,-4.63,-4.63,-4.63,-4.63,-4.6261,-4.5851,-4.4972,-4.4133,-4.3235,-4.2396,-4.1557,-4.0991,-4.0522,-3.9585,-3.8882,-3.8375,-3.7204,-3.6482,-3.644,-3.6166,-3.603,-3.5974,-3.5467,-3.5174,-3.5193,-3.5174,-3.5467,-3.5955,-3.601,-3.601,-3.601,-3.601,-3.5991,-3.601,-3.5932,-3.601,-3.601,-3.601,-3.601,-3.5994,-3.6016,-3.5968,-3.5918,-3.5818,-3.5593,-3.5097,-3.461,-3.4332,-3.4197,-3.3055,-3.2648,-3.2977,-3.2938,-3.2609,-3.228,-3.1603,-3.1159,-3.1043,-3.0714,-3.0636,-3.0617,-3.0617,-3.0617,-3.0617,-3.0598,-3.051,-3.0441,-3.043,-3.0344,-3.0196,-3.0144,-3.0122,-3.0011,-2.9891,-2.9773,-2.9719,-2.9701,-2.9701,-2.979,-3.003,-3.0509,-3.1048,-3.1922,-3.276,-3.3313,-3.3864,-3.4434,-3.487,-3.487,-3.487,-4.5277,-4.5277,-4.5277,-4.5277,-4.5277,-4.5317,-4.5338,-4.5398,-4.5418,-4.54,-4.5381,-4.5381,-4.54,-4.5419,-4.5475,-4.5512,-4.553,-4.5677,-4.5794,-4.5854,-4.5988,-4.6151,-4.6264,-4.6277,-4.63,-4.63,-4.63,-4.63,-4.63,-4.628,-4.589,-4.5168,-4.4328,-4.343,-4.2728,-4.1693,-4.0932,-4.0405,-3.9937,-3.937,-3.8726,-3.7848,-3.7282,-3.7204,-3.656,-3.6127,-3.5991,-3.5913,-3.5932,-3.5974,-3.5896,-3.5913,-3.601,-3.601,-3.601,-3.601,-3.601,-3.601,-3.601,-3.601,-3.601,-3.601,-3.601,-3.601,-3.6013,-3.6001,-3.597,-3.5934,-3.5898,-3.5864,-3.5648,-3.5145,-3.5,-3.5398,-3.4274,-3.3518,-3.3334,-3.3924,-3.377,-3.3189,-3.2454,-3.1835,-3.1739,-3.112,-3.081,-3.0617,-3.0617,-3.0617,-3.0617,-3.0617,-3.0617,-3.0588,-3.055,-3.0481,-3.0344,-3.0344,-3.0297,-3.0144,-3.0022,-2.9921,-2.9773,-2.9738,-2.9738,-2.9825,-2.9948,-3.0459,-3.1074,-3.1873,-3.2635,-3.3227,-3.3878,-3.4604,-3.4945,-3.4982,-3.4982,-4.5277,-4.5277,-4.5277,-4.5277,-4.5317,-4.5338,-4.5398,-4.5418,-4.54,-4.5419,-4.5419,-4.5419,-4.5419,-4.5419,-4.5495,-4.5495,-4.5531,-4.562,-4.5731,-4.58,-4.5848,-4.5979,-4.6138,-4.6245,-4.63,-4.63,-4.63,-4.63,-4.63,-4.63,-4.6163,-4.5929,-4.5031,-4.4524,-4.4153,-4.2728,-4.2006,-4.1537,-4.0366,-3.9761,-3.9429,-3.8687,-3.7926,-3.7301,-3.7087,-3.6638,-3.6108,-3.601,-3.601,-3.601,-3.601,-3.601,-3.601,-3.601,-3.601,-3.601,-3.601,-3.601,-3.601,-3.601,-3.601,-3.601,-3.601,-3.601,-3.601,-3.6016,-3.6007,-3.5974,-3.5918,-3.5903,-3.584,-3.5577,-3.5551,-3.562,-3.5154,-3.4872,-3.4833,-3.4601,-3.4292,-3.4002,-3.3267,-3.2609,-3.2068,-3.1681,-3.1313,-3.0888,-3.0714,-3.0694,-3.0772,-3.0617,-3.0617,-3.0617,-3.0588,-3.0559,-3.053,-3.052,-3.046,-3.0283,-3.0184,-3.0089,-2.9918,-2.979,-2.9789,-2.9857,-2.9907,-3.0288,-3.0914,-3.1626,-3.2333,-3.3312,-3.417,-3.4996,-3.5088,-3.5124,-3.5124,-4.4929,-4.491,-4.4929,-4.4995,-4.5087,-4.5154,-4.5279,-4.54,-4.5438,-4.5477,-4.5477,-4.5495,-4.5495,-4.5494,-4.5531,-4.5531,-4.555,-4.5586,-4.5635,-4.5715,-4.5786,-4.5891,-4.6024,-4.6164,-4.6231,-4.6216,-4.6292,-4.63,-4.63,-4.63,-4.63,-4.6105,-4.5421,-4.4836,-4.425,-4.3177,-4.2201,-4.1732,-4.0815,-4.0346,-4.0268,-3.9527,-3.8961,-3.8336,-3.8043,-3.7438,-3.6657,-3.6225,-3.601,-3.601,-3.601,-3.601,-3.601,-3.601,-3.601,-3.601,-3.601,-3.601,-3.601,-3.601,-3.601,-3.601,-3.601,-3.6016,-3.6018,-3.6021,-3.6007,-3.601,-3.5956,-3.5951,-3.5931,-3.582,-3.5747,-3.5706,-3.5704,-3.5704,-3.5704,-3.5259,-3.4988,-3.4756,-3.4195,-3.3499,-3.2899,-3.259,-3.2154,-3.1758,-3.1391,-3.1275,-3.1159,-3.0868,-3.0617,-3.0617,-3.0656,-3.0666,-3.0685,-3.0685,-3.083,-3.0681,-3.0671,-3.051,-3.0343,-3.0148,-3.0054,-3.0105,-3.0029,-3.0288,-3.1161,-3.1989,-3.2889,-3.3843,-3.4677,-3.5078,-3.5155,-3.5174,-3.5174,-4.4402,-4.4411,-4.4411,-4.4546,-4.4795,-4.4872,-4.5115,-4.5342,-4.5476,-4.5531,-4.5587,-4.5586,-4.5586,-4.5586,-4.5586,-4.5586,-4.5586,-4.5586,-4.5586,-4.5635,-4.5712,-4.5822,-4.5844,-4.6024,-4.6091,-4.6131,-4.624,-4.6273,-4.628,-4.63,-4.63,-4.6163,-4.5539,-4.4836,-4.4387,-4.3313,-4.2318,-4.1947,-4.1518,-4.1244,-4.1069,-4.0424,-3.9819,-3.9429,-3.8746,-3.8043,-3.7262,-3.6618,-3.6166,-3.601,-3.601,-3.601,-3.601,-3.601,-3.601,-3.601,-3.601,-3.601,-3.601,-3.601,-3.601,-3.601,-3.601,-3.6016,-3.6003,-3.6005,-3.6021,-3.6018,-3.6011,-3.5996,-3.5964,-3.5866,-3.5786,-3.5725,-3.5704,-3.5715,-3.5704,-3.5704,-3.5704,-3.5684,-3.4949,-3.4601,-3.4214,-3.3789,-3.317,-3.2483,-3.2145,-3.1874,-3.1739,-3.1565,-3.1081,-3.0617,-3.0694,-3.081,-3.081,-3.083,-3.1062,-3.1168,-3.1251,-3.1184,-3.104,-3.0844,-3.0591,-3.0557,-3.0971,-3.1435,-3.206,-3.2893,-3.3544,-3.4042,-3.4653,-3.4971,-3.5176,-3.516,-3.516,-4.4438,-4.4493,-4.4447,-4.4584,-4.4732,-4.4957,-4.5115,-4.5201,-4.5457,-4.5586,-4.5586,-4.5586,-4.5586,-4.5586,-4.5586,-4.5586,-4.5586,-4.5586,-4.5586,-4.5603,-4.5601,-4.5651,-4.5703,-4.5852,-4.5987,-4.6057,-4.6131,-4.6206,-4.6273,-4.6277,-4.63,-4.6241,-4.6085,-4.589,-4.55,-4.4621,-4.4367,-4.3938,-4.2825,-4.2142,-4.1986,-4.1342,-4.06,-3.9976,-3.9117,-3.8219,-3.7497,-3.7145,-3.6716,-3.6205,-3.601,-3.601,-3.601,-3.601,-3.601,-3.601,-3.601,-3.601,-3.601,-3.601,-3.601,-3.601,-3.601,-3.6013,-3.6016,-3.6018,-3.6016,-3.6013,-3.6018,-3.5975,-3.5945,-3.5904,-3.5826,-3.5747,-3.5706,-3.5706,-3.5715,-3.5704,-3.5704,-3.5646,-3.551,-3.5182,-3.4543,-3.4389,-3.3866,-3.3276,-3.287,-3.2502,-3.2367,-3.228,-3.1777,-3.1217,-3.1333,-3.1545,-3.1507,-3.1487,-3.1526,-3.1661,-3.1718,-3.2122,-3.1985,-3.1821,-3.1674,-3.1837,-3.2172,-3.2577,-3.2626,-3.3189,-3.3743,-3.4184,-3.4565,-3.4884,-3.5091,-3.5108,-3.5143,-4.4023,-4.4084,-4.4084,-4.4221,-4.4495,-4.4795,-4.4985,-4.514,-4.5457,-4.5586,-4.5586,-4.5586,-4.5586,-4.5586,-4.5586,-4.5586,-4.5586,-4.5586,-4.5586,-4.5586,-4.5603,-4.5603,-4.5603,-4.5688,-4.5835,-4.5949,-4.6007,-4.6084,-4.6176,-4.6211,-4.6221,-4.63,-4.63,-4.5929,-4.5734,-4.5265,-4.4699,-4.4211,-4.3567,-4.3001,-4.2884,-4.2572,-4.1908,-4.0912,-3.9878,-3.8882,-3.8551,-3.7653,-3.7126,-3.6657,-3.6245,-3.601,-3.601,-3.601,-3.601,-3.601,-3.601,-3.601,-3.601,-3.601,-3.601,-3.601,-3.601,-3.6016,-3.6016,-3.6016,-3.601,-3.601,-3.5996,-3.597,-3.5956,-3.5923,-3.5859,-3.5776,-3.5707,-3.5697,-3.5715,-3.5704,-3.5704,-3.5704,-3.5665,-3.5452,-3.5162,-3.493,-3.4891,-3.4466,-3.3886,-3.3518,-3.3305,-3.3151,-3.2648,-3.228,-3.2319,-3.2348,-3.229,-3.2212,-3.2126,-3.2164,-3.2154,-3.2801,-3.3233,-3.3064,-3.2894,-3.2936,-3.2908,-3.2588,-3.2733,-3.3323,-3.3787,-3.3942,-3.4264,-3.4718,-3.5038,-3.5092,-3.5126,-4.3566,-4.3615,-4.3634,-4.3828,-4.4192,-4.4538,-4.4776,-4.5007,-4.5381,-4.5513,-4.555,-4.5568,-4.5586,-4.5586,-4.5586,-4.5586,-4.5586,-4.5586,-4.5586,-4.5586,-4.5586,-4.5586,-4.5603,-4.5618,-4.5665,-4.5766,-4.5859,-4.5969,-4.6049,-4.6098,-4.617,-4.6245,-4.63,-4.6046,-4.5402,-4.5207,-4.507,-4.4524,-4.4133,-4.3879,-4.3821,-4.3665,-4.304,-4.2084,-4.1108,-4.0015,-3.9409,-3.8394,-3.7458,-3.7262,-3.6462,-3.6088,-3.601,-3.601,-3.601,-3.601,-3.601,-3.601,-3.601,-3.601,-3.601,-3.601,-3.601,-3.6016,-3.6021,-3.6016,-3.6013,-3.601,-3.6013,-3.6013,-3.5999,-3.5933,-3.5894,-3.5826,-3.5747,-3.5718,-3.5706,-3.5704,-3.5704,-3.5704,-3.5704,-3.5568,-3.5568,-3.5491,-3.5626,-3.5607,-3.4969,-3.4466,-3.4234,-3.404,-3.3576,-3.3112,-3.3073,-3.288,-3.2773,-3.3518,-3.3344,-3.2977,-3.288,-3.3479,-3.4176,-3.3923,-3.3647,-3.35,-3.3352,-3.3196,-3.3219,-3.3756,-3.4014,-3.3866,-3.413,-3.4718,-3.4964,-3.5094,-3.5127,-4.36,-4.3771,-4.3753,-4.3846,-4.4079,-4.4318,-4.4493,-4.4599,-4.5055,-4.5263,-4.5283,-4.5514,-4.5586,-4.5586,-4.5586,-4.5586,-4.5586,-4.5586,-4.5586,-4.5586,-4.5586,-4.5586,-4.5586,-4.5586,-4.562,-4.5651,-4.5752,-4.5847,-4.5949,-4.6041,-4.6091,-4.6144,-4.6236,-4.6081,-4.6046,-4.6066,-4.589,-4.548,-4.507,-4.4797,-4.466,-4.4133,-4.3411,-4.2611,-4.1927,-4.1108,-3.9917,-3.8941,-3.8043,-3.7321,-3.6482,-3.6127,-3.6069,-3.6069,-3.601,-3.601,-3.601,-3.601,-3.601,-3.601,-3.601,-3.601,-3.601,-3.601,-3.6013,-3.6013,-3.601,-3.601,-3.601,-3.601,-3.6013,-3.5937,-3.5899,-3.586,-3.5806,-3.5771,-3.5728,-3.5695,-3.5704,-3.5704,-3.5704,-3.5704,-3.5704,-3.5704,-3.5704,-3.5704,-3.5414,-3.493,-3.4621,-3.464,-3.4601,-3.4137,-3.3731,-3.3441,-3.317,-3.4292,-3.4775,-3.4156,-3.4021,-3.4253,-3.4679,-3.4524,-3.4339,-3.4017,-3.4176,-3.436,-3.4414,-3.4391,-3.4277,-3.4188,-3.4491,-3.483,-3.4907,-3.4983,-3.5075,-4.3719,-4.3851,-4.3851,-4.3897,-4.4048,-4.4308,-4.4402,-4.4493,-4.4943,-4.5201,-4.5282,-4.5476,-4.5586,-4.5586,-4.5586,-4.5586,-4.5586,-4.5586,-4.5586,-4.5586,-4.5586,-4.5586,-4.5586,-4.5586,-4.5586,-4.562,-4.5668,-4.5752,-4.5835,-4.5894,-4.6007,-4.6105,-4.6172,-4.6236,-4.6296,-4.6261,-4.63,-4.6163,-4.587,-4.5656,-4.5578,-4.4797,-4.3957,-4.3216,-4.2572,-4.1732,-4.0659,-3.9663,-3.9078,-3.8473,-3.736,-3.6813,-3.656,-3.6264,-3.603,-3.6069,-3.603,-3.601,-3.601,-3.601,-3.601,-3.601,-3.601,-3.601,-3.601,-3.601,-3.601,-3.601,-3.601,-3.601,-3.6013,-3.5933,-3.589,-3.5846,-3.582,-3.5784,-3.5737,-3.5706,-3.5715,-3.5715,-3.5704,-3.5704,-3.5704,-3.5704,-3.5704,-3.5704,-3.5704,-3.5414,-3.5027,-3.5085,-3.5201,-3.5007,-3.4563,-3.4331,-3.4021,-3.4582,-3.5317,-3.4911,-3.4689,-3.493,-3.5143,-3.4949,-3.4659,-3.4339,-3.4681,-3.5136,-3.4828,-3.451,-3.4508,-3.4527,-3.4699,-3.4832,-3.485,-3.4907,-3.5115,-4.3818,-4.3897,-4.3897,-4.3929,-4.4005,-4.4192,-4.4308,-4.4374,-4.4776,-4.503,-4.5118,-4.5381,-4.555,-4.5605,-4.5586,-4.5586,-4.5586,-4.5586,-4.5586,-4.5586,-4.5586,-4.5586,-4.5586,-4.5586,-4.5586,-4.5603,-4.5603,-4.5651,-4.5742,-4.5794,-4.5908,-4.6005,-4.6068,-4.6138,-4.6236,-4.6273,-4.6296,-4.63,-4.63,-4.63,-4.6105,-4.5617,-4.4738,-4.3801,-4.3001,-4.2201,-4.1049,-4.0151,-3.9761,-3.9253,-3.8434,-3.7575,-3.7419,-3.6735,-3.6362,-3.6443,-3.6205,-3.603,-3.601,-3.601,-3.601,-3.601,-3.601,-3.601,-3.601,-3.601,-3.601,-3.601,-3.601,-3.601,-3.5994,-3.595,-3.5895,-3.5841,-3.5821,-3.5795,-3.5743,-3.5718,-3.5718,-3.5697,-3.5695,-3.5704,-3.5704,-3.5704,-3.5704,-3.5704,-3.5704,-3.5704,-3.5394,-3.5452,-3.5549,-3.5588,-3.5414,-3.5259,-3.5007,-3.4717,-3.5104,-3.4911,-3.4698,-3.4775,-3.5104,-3.5336,-3.5007,-3.4717,-3.5123,-3.5427,-3.5039,-3.4751,-3.4855,-3.4887,-3.4864,-3.4887,-3.4926,-3.5267,-3.5642,-4.3818,-4.3897,-4.3897,-4.3897,-4.3929,-4.3961,-4.3929,-4.3961,-4.4308,-4.4546,-4.4687,-4.5096,-4.54,-4.5568,-4.5586,-4.5586,-4.5586,-4.5586,-4.5586,-4.5586,-4.5586,-4.5586,-4.5586,-4.5586,-4.5586,-4.5586,-4.5586,-4.5603,-4.5651,-4.5761,-4.5815,-4.5886,-4.6008,-4.6111,-4.613,-4.6231,-4.63,-4.63,-4.63,-4.63,-4.628,-4.6124,-4.5207,-4.4153,-4.3469,-4.2767,-4.1361,-4.0464,-3.9956,-3.98,-3.9,-3.8492,-3.8297,-3.7614,-3.7692,-3.7575,-3.7028,-3.603,-3.6186,-3.6205,-3.6284,-3.6284,-3.6108,-3.603,-3.601,-3.601,-3.601,-3.601,-3.601,-3.601,-3.601,-3.5996,-3.5953,-3.5898,-3.5867,-3.5834,-3.5807,-3.5715,-3.5717,-3.5707,-3.5695,-3.5715,-3.5704,-3.5704,-3.5704,-3.5704,-3.5704,-3.5704,-3.5704,-3.5704,-3.5704,-3.5704,-3.5684,-3.553,-3.5472,-3.5259,-3.5143,-3.4988,-3.4911,-3.4833,-3.5162,-3.5491,-3.5356,-3.524,-3.5588,-3.5568,-3.5118,-3.4981,-3.5193,-3.5211,-3.5124,-3.5064,-3.5016,-3.5505,-3.6126,-4.3929,-4.3942,-4.3929,-4.3897,-4.3897,-4.3851,-4.3837,-4.3883,-4.4121,-4.4093,-4.4102,-4.4817,-4.5322,-4.5531,-4.5586,-4.5586,-4.5586,-4.5586,-4.5586,-4.5586,-4.5586,-4.5586,-4.5586,-4.5586,-4.5586,-4.5586,-4.5586,-4.5586,-4.562,-4.5671,-4.5706,-4.5819,-4.5893,-4.5949,-4.6008,-4.6125,-4.6176,-4.6206,-4.6245,-4.63,-4.63,-4.6202,-4.5714,-4.4484,-4.3977,-4.3001,-4.1947,-4.101,-4.0561,-4.0385,-3.9741,-3.9292,-3.9078,-3.8551,-3.8238,-3.8394,-3.7965,-3.7536,-3.7458,-3.7028,-3.6989,-3.7009,-3.6657,-3.601,-3.601,-3.601,-3.601,-3.601,-3.601,-3.601,-3.601,-3.601,-3.597,-3.5937,-3.5976,-3.5876,-3.5821,-3.5749,-3.5702,-3.5718,-3.5706,-3.5715,-3.5704,-3.5704,-3.5704,-3.5704,-3.5704,-3.5704,-3.5704,-3.5704,-3.5704,-3.5704,-3.5665,-3.5588,-3.5568,-3.5491,-3.5491,-3.5394,-3.5394,-3.5356,-3.5433,-3.5549,-3.5452,-3.5452,-3.5626,-3.5472,-3.5143,-3.5226,-3.5444,-3.5432,-3.5364,-3.5431,-3.5529,-3.6026,-3.6725,-4.3974,-4.3974,-4.3929,-4.3897,-4.3897,-4.3837,-4.3771,-4.3786,-4.3955,-4.3866,-4.3905,-4.4653,-4.5282,-4.5476,-4.5568,-4.5586,-4.5586,-4.5586,-4.5586,-4.5586,-4.5586,-4.5586,-4.5586,-4.5586,-4.5586,-4.5586,-4.5586,-4.5586,-4.5586,-4.562,-4.5651,-4.5742,-4.58,-4.5829,-4.5906,-4.5998,-4.6076,-4.6131,-4.624,-4.63,-4.63,-4.63,-4.5773,-4.4992,-4.4153,-4.3294,-4.2435,-4.1537,-4.1088,-4.0893,-4.0503,-4.0132,-3.9995,-3.937,-3.9136,-3.9253,-3.9039,-3.8961,-3.8648,-3.8238,-3.7985,-3.7809,-3.7438,-3.6443,-3.6362,-3.6225,-3.601,-3.601,-3.601,-3.601,-3.6049,-3.6186,-3.6218,-3.6207,-3.6191,-3.6018,-3.589,-3.5878,-3.5799,-3.5698,-3.5707,-3.5706,-3.5715,-3.5715,-3.5704,-3.5704,-3.5704,-3.5704,-3.5704,-3.5704,-3.5704,-3.5704,-3.5684,-3.5646,-3.5646,-3.5646,-3.5684,-3.5704,-3.5704,-3.5704,-3.5665,-3.5665,-3.5626,-3.5665,-3.5704,-3.5626,-3.5414,-3.5557,-3.5662,-3.5596,-3.5605,-3.5905,-3.6195,-3.6699,-3.7529,-4.3897,-4.3897,-4.3992,-4.3942,-4.3897,-4.3818,-4.3719,-4.3686,-4.3649,-4.3849,-4.413,-4.4773,-4.5084,-4.5282,-4.5457,-4.5568,-4.5605,-4.5586,-4.5586,-4.5586,-4.5586,-4.5586,-4.5586,-4.5586,-4.5586,-4.5586,-4.5586,-4.5586,-4.5586,-4.5586,-4.5603,-4.5601,-4.5712,-4.5786,-4.5829,-4.5886,-4.6005,-4.6098,-4.624,-4.63,-4.63,-4.6222,-4.589,-4.507,-4.4192,-4.3294,-4.2454,-4.1596,-4.1108,-4.1088,-4.0912,-4.0834,-4.062,-4.0112,-4.0015,-4.0249,-4.0015,-4.0034,-3.9976,-3.8882,-3.8024,-3.8063,-3.7828,-3.7204,-3.7184,-3.6462,-3.6147,-3.6303,-3.6521,-3.6362,-3.6482,-3.6579,-3.6838,-3.6823,-3.683,-3.6679,-3.6445,-3.6083,-3.5988,-3.5793,-3.5814,-3.5998,-3.622,-3.6317,-3.588,-3.5841,-3.5704,-3.5704,-3.5704,-3.5704,-3.5704,-3.5704,-3.5704,-3.5684,-3.5684,-3.5704,-3.5704,-3.5704,-3.5704,-3.5704,-3.5704,-3.5704,-3.5704,-3.5704,-3.5704,-3.5704,-3.5704,-3.5704,-3.5693,-3.5704,-3.5825,-3.6112,-3.6928,-3.769,-3.8676,-4.3883,-4.3818,-4.3883,-4.3851,-4.3818,-4.3786,-4.3771,-4.3738,-4.3701,-4.3923,-4.426,-4.4228,-4.4459,-4.4916,-4.5222,-4.5342,-4.54,-4.5531,-4.5586,-4.5586,-4.5586,-4.5586,-4.5586,-4.5586,-4.5586,-4.5586,-4.5586,-4.5586,-4.5586,-4.5586,-4.5586,-4.562,-4.5668,-4.5668,-4.5708,-4.5828,-4.5969,-4.6098,-4.6216,-4.63,-4.63,-4.63,-4.6144,-4.5792,-4.4289,-4.3665,-4.306,-4.1791,-4.1322,-4.1108,-4.1108,-4.1108,-4.1108,-4.0678,-4.0737,-4.103,-4.0659,-4.0776,-4.0834,-3.9663,-3.8882,-3.8414,-3.8277,-3.8082,-3.8102,-3.7711,-3.7614,-3.7633,-3.7497,-3.736,-3.7672,-3.7887,-3.7968,-3.7789,-3.7624,-3.7477,-3.7069,-3.666,-3.6431,-3.6332,-3.6445,-3.661,-3.6851,-3.7084,-3.6482,-3.5949,-3.5811,-3.5723,-3.58,-3.5723,-3.5704,-3.5704,-3.5704,-3.5704,-3.5704,-3.5704,-3.5704,-3.5704,-3.5704,-3.5704,-3.5704,-3.5704,-3.5704,-3.5704,-3.5704,-3.5704,-3.5704,-3.5704,-3.5704,-3.5704,-3.5936,-3.6292,-3.7288,-3.8504,-3.9455,-4.3291,-4.3697,-4.3494,-4.3582,-4.3786,-4.3804,-4.3804,-4.3804,-4.3804,-4.391,-4.4154,-4.3874,-4.4077,-4.4638,-4.5052,-4.5201,-4.5283,-4.5457,-4.5568,-4.5586,-4.5586,-4.5586,-4.5586,-4.5586,-4.5586,-4.5586,-4.5586,-4.5586,-4.5586,-4.5586,-4.5586,-4.5586,-4.5586,-4.5603,-4.5648,-4.579,-4.594,-4.6049,-4.6211,-4.63,-4.63,-4.63,-4.63,-4.5968,-4.4582,-4.3762,-4.3157,-4.2084,-4.1205,-4.1108,-4.1108,-4.1108,-4.1108,-4.1108,-4.1108,-4.1108,-4.1108,-4.1108,-4.0932,-4.0581,-3.98,-3.9195,-3.9019,-3.8961,-3.8941,-3.8785,-3.8355,-3.8434,-3.8492,-3.8629,-3.8687,-3.8707,-3.8609,-3.8394,-3.8726,-3.8584,-3.7793,-3.727,-3.7084,-3.6927,-3.7014,-3.7027,-3.7512,-3.7734,-3.7559,-3.6919,-3.6469,-3.6323,-3.6207,-3.6033,-3.5704,-3.5704,-3.5704,-3.5704,-3.5704,-3.5704,-3.5704,-3.5704,-3.5704,-3.5704,-3.5704,-3.5704,-3.5704,-3.5704,-3.5704,-3.5704,-3.5723,-3.5723,-3.5723,-3.5704,-3.6091,-3.6574,-3.7588,-3.873,-3.9612,-4.1962,-4.345,-4.2834,-4.3014,-4.366,-4.3804,-4.3804,-4.3804,-4.3837,-4.3865,-4.3974,-4.4109,-4.4233,-4.4493,-4.4872,-4.5052,-4.514,-4.5381,-4.5568,-4.555,-4.5586,-4.5586,-4.5586,-4.5586,-4.5586,-4.5586,-4.5586,-4.5586,-4.5586,-4.5586,-4.5586,-4.5586,-4.5586,-4.5586,-4.562,-4.5809,-4.5899,-4.593,-4.617,-4.6245,-4.6273,-4.6277,-4.63,-4.5909,-4.4602,-4.3723,-4.3333,-4.2006,-4.1186,-4.1108,-4.1108,-4.1108,-4.1108,-4.1108,-4.1108,-4.1108,-4.1108,-4.1108,-4.1088,-4.1049,-4.0542,-3.9858,-3.9702,-3.9624,-3.9585,-3.9253,-3.8941,-3.9237,-3.9022,-3.8882,-3.898,-3.9253,-3.9234,-3.9312,-3.9663,-3.9493,-3.8671,-3.8135,-3.799,-3.7748,-3.7439,-3.7356,-3.7948,-3.8384,-3.8462,-3.8044,-3.737,-3.6991,-3.6751,-3.6422,-3.6054,-3.5706,-3.5706,-3.5706,-3.5706,-3.5715,-3.5704,-3.5704,-3.5704,-3.5704,-3.5704,-3.5704,-3.5704,-3.5723,-3.5916,-3.6091,-3.5936,-3.5762,-3.5916,-3.6129,-3.6477,-3.7038,-3.8005,-3.8895,-3.9746,-4.1165,-4.1782,-4.2224,-4.2584,-4.2883,-4.3564,-4.3851,-4.3865,-4.3947,-4.3961,-4.3974,-4.4079,-4.4091,-4.425,-4.4447,-4.4688,-4.4776,-4.5161,-4.5322,-4.5362,-4.5495,-4.5586,-4.5586,-4.5586,-4.5586,-4.5586,-4.5586,-4.5586,-4.5586,-4.5586,-4.5586,-4.5586,-4.5586,-4.5586,-4.5635,-4.5747,-4.5841,-4.5871,-4.6024,-4.6156,-4.6176,-4.6245,-4.6257,-4.6179,-4.454,-4.37,-4.3505,-4.1924,-4.1186,-4.1108,-4.1108,-4.1108,-4.1108,-4.1108,-4.1108,-4.1108,-4.1108,-4.1108,-4.1108,-4.1069,-4.0991,-4.0581,-4.019,-4.0151,-4.0424,-4.0444,-4.0291,-4.0174,-4.0037,-4.0054,-4.0444,-4.0483,-4.0464,-4.0464,-4.0561,-4.0213,-3.9642,-3.9312,-3.9041,-3.8681,-3.8369,-3.8944,-3.9537,-3.9485,-3.9477,-3.9285,-3.8656,-3.7705,-3.7279,-3.69,-3.6522,-3.5941,-3.5708,-3.5707,-3.5755,-3.6123,-3.6043,-3.5927,-3.5831,-3.5704,-3.5704,-3.582,-3.5839,-3.5936,-3.6226,-3.6497,-3.6477,-3.6458,-3.6477,-3.6671,-3.698,-3.7406,-3.8218,-3.9011,-3.9758,-4.0159,-4.0857,-4.1313,-4.1673,-4.2128,-4.3342,-4.3902,-4.3929,-4.3961,-4.3974,-4.4005,-4.3974,-4.3974,-4.4004,-4.3998,-4.4252,-4.4363,-4.4507,-4.5065,-4.5125,-4.5362,-4.5495,-4.5568,-4.5586,-4.5586,-4.5586,-4.5586,-4.5586,-4.5586,-4.5586,-4.5586,-4.5586,-4.5586,-4.5586,-4.5635,-4.5712,-4.5814,-4.5841,-4.5959,-4.6041,-4.6049,-4.6059,-4.5988,-4.5409,-4.4426,-4.3504,-4.2928,-4.2057,-4.1108,-4.1108,-4.1108,-4.1108,-4.1108,-4.1108,-4.1108,-4.1108,-4.1108,-4.1108,-4.1108,-4.1108,-4.1069,-4.101,-4.0503,-4.0561,-4.0971,-4.0912,-4.0971,-4.0991,-4.1108,-4.1088,-4.1049,-4.1108,-4.1088,-4.1069,-4.0952,-4.0584,-4.0416,-4.0058,-3.9852,-3.9509,-3.9374,-4.0156,-4.0738,-4.0746,-4.0565,-4.0285,-3.996,-3.8945,-3.7961,-3.7597,-3.7277,-3.6781,-3.6493,-3.6716,-3.6832,-3.6947,-3.6742,-3.6248,-3.6218,-3.6295,-3.611,-3.6284,-3.6207,-3.6265,-3.6826,-3.7232,-3.7232,-3.7232,-3.7096,-3.7174,-3.7444,-3.7947,-3.8508,-3.9178,-3.9894,-3.8938,-4.0562,-4.0107,-4.0417,-4.1464,-4.2904,-4.3721,-4.3955,-4.3892,-4.3905,-4.4005,-4.3961,-4.3961,-4.3899,-4.3474,-4.3577,-4.3951,-4.375,-4.4216,-4.4775,-4.4975,-4.5228,-4.5493,-4.5586,-4.5586,-4.5586,-4.5586,-4.5586,-4.5586,-4.5586,-4.5586,-4.5586,-4.5586,-4.5586,-4.5635,-4.57,-4.5776,-4.5794,-4.5847,-4.5908,-4.5949,-4.593,-4.5589,-4.4934,-4.4051,-4.3208,-4.251,-4.1616,-4.1222,-4.1108,-4.1108,-4.1108,-4.1108,-4.1108,-4.1108,-4.1108,-4.1108,-4.1108,-4.1108,-4.1108,-4.1108,-4.1108,-4.1049,-4.1088,-4.1088,-4.1108,-4.1108,-4.1108,-4.1108,-4.1108,-4.1108,-4.1108,-4.1108,-4.1108,-4.1108,-4.0955,-4.086,-4.0679,-4.0527,-4.0288,-4.0059,-4.0411,-4.0812,-4.0968,-4.0974,-4.0842,-4.0511,-4.0251,-3.9331,-3.861,-3.8291,-3.7942,-3.7802,-3.7996,-3.8016,-3.7773,-3.7549,-3.7073,-3.7362,-3.7448,-3.7146,-3.6817,-3.6867,-3.7099,-3.7669,-3.7909,-3.7754,-3.7638,-3.7541,-3.7715,-3.8025,-3.8334,-3.8876,-3.9437,-4.0087,-3.822,-3.9079,-3.9566,-4.0068,-4.0591,-4.1675,-4.2835,-4.3856,-4.3417,-4.3398,-4.4005,-4.3974,-4.3806,-4.3931,-4.3241,-4.3114,-4.2969,-4.29,-4.3258,-4.3757,-4.4372,-4.4901,-4.5321,-4.5547,-4.5566,-4.5566,-4.5566,-4.5586,-4.5586,-4.5586,-4.5586,-4.5586,-4.549,-4.5509,-4.5543,-4.5635,-4.5555,-4.5545,-4.5582,-4.568,-4.5699,-4.5669,-4.5168,-4.4443,-4.3731,-4.2934,-4.2163,-4.1471,-4.114,-4.1088,-4.1108,-4.1108,-4.1108,-4.1108,-4.1108,-4.1108,-4.1108,-4.1108,-4.1108,-4.1108,-4.1108,-4.1108,-4.1108,-4.1108,-4.1108,-4.1108,-4.1108,-4.1108,-4.1108,-4.1108,-4.1108,-4.1108,-4.1108,-4.1108,-4.1108,-4.1072,-4.0996,-4.0967,-4.0819,-4.0762,-4.0543,-4.0578,-4.0965,-4.1001,-4.1016,-4.1041,-4.0986,-4.0815,-4.0537,-3.9774,-3.9321,-3.8985,-3.8817,-3.8933,-3.8602,-3.8313,-3.8171,-3.8024,-3.8363,-3.8429,-3.7964,-3.7693,-3.7646,-3.7906,-3.8407,-3.8384,-3.8141,-3.8005,-3.7881,-3.8315,-3.8644,-3.8914,-3.9243,-3.9785,-4.0242,-3.7395,-3.7805,-3.8465,-3.9332,-4.0182,-4.0444,-4.1523,-4.2779,-4.2519,-4.2649,-4.302,-4.3002,-4.3058,-4.2853,-4.2196,-4.1954,-4.2251,-4.1754,-4.2093,-4.3353,-4.3631,-4.4225,-4.4787,-4.5281,-4.5316,-4.5316,-4.5393,-4.5586,-4.5528,-4.5566,-4.5586,-4.5547,-4.5355,-4.5124,-4.4968,-4.466,-4.4506,-4.4675,-4.4877,-4.5117,-4.5138,-4.4943,-4.4292,-4.3722,-4.3073,-4.2509,-4.1805,-4.1162,-4.11,-4.107,-4.1074,-4.1108,-4.1108,-4.1108,-4.1108,-4.1108,-4.1108,-4.1108,-4.1108,-4.1108,-4.1108,-4.1108,-4.1108,-4.1108,-4.1108,-4.1108,-4.1108,-4.1108,-4.1108,-4.1108,-4.1108,-4.1108,-4.1108,-4.1108,-4.1108,-4.1108,-4.1097,-4.1103,-4.1068,-4.1051,-4.1015,-4.0996,-4.1035,-4.1053,-4.1053,-4.1073,-4.1074,-4.1015,-4.0878,-4.0547,-4.0232,-4.0006,-3.9809,-3.9711,-3.9351,-3.9108,-3.9071,-3.9141,-3.9411,-3.9342,-3.881,-3.8849,-3.9051,-3.909,-3.9138,-3.8961,-3.8686,-3.8357,-3.826,-3.8655,-3.8876,-3.8953,-3.934,-4.0094,-4.0474,-3.6484,-3.6736,-3.7007,-3.832,-3.9927,-3.938,-3.9955,-4.1311,-4.133,-4.1516,-4.1646,-4.1646,-4.1776,-4.1813,-4.1163,-4.107,-4.1107,-4.0803,-4.1202,-4.2945,-4.2918,-4.3308,-4.4019,-4.471,-4.4533,-4.4587,-4.472,-4.4874,-4.524,-4.524,-4.5201,-4.5374,-4.4797,-4.4412,-4.4162,-4.3739,-4.3585,-4.366,-4.3814,-4.3981,-4.4023,-4.3506,-4.2701,-4.2113,-4.1865,-4.1628,-4.1067,-4.0867,-4.0994,-4.1011,-4.1061,-4.1108,-4.1108,-4.1108,-4.1108,-4.1108,-4.1108,-4.1108,-4.1108,-4.1108,-4.1108,-4.1108,-4.1108,-4.1108,-4.1108,-4.1108,-4.1108,-4.1114,-4.1114,-4.1111,-4.1108,-4.1108,-4.1108,-4.1108,-4.1108,-4.1108,-4.1114,-4.1119,-4.1099,-4.1101,-4.1084,-4.1068,-4.1068,-4.109,-4.1072,-4.1111,-4.111,-4.1087,-4.1052,-4.0955,-4.0858,-4.0723,-4.056,-4.0363,-4.0398,-4.0202,-4.0143,-4.0256,-4.0344,-4.013,-3.9539,-3.9917,-4.0585,-4.007,-3.945,-3.9467,-3.9251,-3.8717,-3.8357,-3.8636,-3.8798,-3.8856,-3.9398,-4.023,-4.0597,-3.5659,-3.5937,-3.6406,-3.7359,-3.8432,-3.8284,-3.8748,-3.9677,-3.9695,-4.042,-4.1404,-4.1534,-4.1497,-4.1256,-4.0624,-4.0476,-4.0401,-4.0058,-4.0344,-4.114,-4.1663,-4.2295,-4.2848,-4.3426,-4.3425,-4.3475,-4.3605,-4.3876,-4.4047,-4.4278,-4.4316,-4.3893,-4.3758,-4.3835,-4.3374,-4.2951,-4.2835,-4.2739,-4.2585,-4.2854,-4.3104,-4.3124,-4.2701,-4.2075,-4.1721,-4.1384,-4.0986,-4.0867,-4.0948,-4.1006,-4.1051,-4.1085,-4.1108,-4.1108,-4.1108,-4.1108,-4.1108,-4.1108,-4.1108,-4.1108,-4.1108,-4.1108,-4.1108,-4.1108,-4.1108,-4.1108,-4.1111,-4.1116,-4.1116,-4.1111,-4.1108,-4.1108,-4.1108,-4.1108,-4.1108,-4.1108,-4.1108,-4.1108,-4.1108,-4.1108,-4.1108,-4.1108,-4.1111,-4.1111,-4.1114,-4.1114,-4.1116,-4.1094,-4.1097,-4.1048,-4.1032,-4.0952,-4.0996,-4.0933,-4.1026,-4.0944,-4.0682,-4.0641,-4.0665,-4.0461,-4.0189,-4.0315,-4.048,-4.0043,-3.9635,-3.9489,-3.9157,-3.8551,-3.8365,-3.8462,-3.8501,-3.8462,-3.9379,-4.0307,-4.0597,-3.4804,-3.5055,-3.5739,-3.6497,-3.7137,-3.722,-3.7738,-3.8488,-3.8562,-3.9287,-4.0364,-4.0476,-4.0476,-4.0476,-3.9993,-3.977,-3.9695,-3.9342,-3.9872,-4.0427,-4.0703,-4.1216,-4.1753,-4.2229,-4.2293,-4.2374,-4.2812,-4.3059,-4.3049,-4.3393,-4.3508,-4.3066,-4.3297,-4.3028,-4.2489,-4.2258,-4.2027,-4.1873,-4.147,-4.1623,-4.2047,-4.1931,-4.1777,-4.1285,-4.1161,-4.0949,-4.09,-4.0779,-4.084,-4.091,-4.0974,-4.1033,-4.1066,-4.1078,-4.1108,-4.1108,-4.1108,-4.1108,-4.1108,-4.1108,-4.1108,-4.1108,-4.1108,-4.1108,-4.1108,-4.1108,-4.1111,-4.1114,-4.1114,-4.1108,-4.1108,-4.1108,-4.1108,-4.1108,-4.1108,-4.1108,-4.1108,-4.1108,-4.1108,-4.1108,-4.1111,-4.1114,-4.1111,-4.1108,-4.1111,-4.1111,-4.1108,-4.1111,-4.1111,-4.1111,-4.1111,-4.1114,-4.1107,-4.1093,-4.1069,-4.1026,-4.0925,-4.0928,-4.0935,-4.0761,-4.051,-4.0383,-4.0218,-4.0005,-3.9685,-3.9248,-3.8829,-3.8449,-3.7923,-3.7788,-3.7873,-3.7959,-3.912,-4.0172,-4.0268,-3.3862,-3.411,-3.4925,-3.566,-3.6186,-3.6242,-3.6823,-3.7652,-3.7745,-3.8116,-3.8729,-3.8804,-3.8822,-3.8934,-3.8785,-3.8785,-3.8767,-3.8711,-3.937,-3.9844,-4.0293,-4.0484,-4.0853,-4.1369,-4.1301,-4.1471,-4.1877,-4.2216,-4.245,-4.2758,-4.2816,-4.2662,-4.2277,-4.1777,-4.145,-4.1046,-4.0739,-4.0835,-4.07,-4.0604,-4.0546,-4.0489,-4.0604,-4.0585,-4.0489,-4.0489,-4.053,-4.0602,-4.0694,-4.0768,-4.0866,-4.0954,-4.1011,-4.1057,-4.1078,-4.1085,-4.1108,-4.1108,-4.1108,-4.1108,-4.1108,-4.1108,-4.1108,-4.1108,-4.1108,-4.1108,-4.1111,-4.1111,-4.1108,-4.1108,-4.1108,-4.1108,-4.1108,-4.1108,-4.1108,-4.1108,-4.1108,-4.1108,-4.1108,-4.1108,-4.1111,-4.1114,-4.1114,-4.1111,-4.1108,-4.1108,-4.1111,-4.1111,-4.1111,-4.1111,-4.1111,-4.1111,-4.1116,-4.1089,-4.1074,-4.105,-4.1003,-4.098,-4.0957,-4.0924,-4.0858,-4.0655,-4.0461,-4.0257,-3.9879,-3.9578,-3.9044,-3.8607,-3.8054,-3.7635,-3.776,-3.8117,-3.8783,-3.9642,-3.9777,-3.2652,-3.3381,-3.3604,-3.4291,-3.5257,-3.534,-3.5972,-3.6824,-3.6935,-3.7039,-3.7225,-3.7243,-3.7448,-3.8079,-3.7392,-3.7281,-3.7615,-3.7875,-3.8098,-3.8412,-3.9069,-3.9444,-3.9658,-3.9833,-4.0151,-4.0498,-4.0786,-4.0921,-4.1527,-4.1873,-4.17,-4.1181,-4.1854,-4.1431,-4.0777,-4.0489,-4.0489,-4.0489,-4.0489,-4.0489,-4.0489,-4.0489,-4.0489,-4.0489,-4.0489,-4.0489,-4.0534,-4.0629,-4.07,-4.0742,-4.078,-4.0874,-4.0921,-4.0974,-4.1028,-4.1074,-4.1081,-4.1085,-4.1085,-4.1108,-4.1108,-4.1108,-4.1108,-4.1108,-4.1108,-4.1108,-4.1108,-4.1108,-4.1108,-4.1108,-4.1108,-4.1108,-4.1108,-4.1108,-4.1108,-4.1108,-4.1108,-4.1111,-4.1111,-4.1111,-4.1114,-4.1114,-4.1111,-4.1108,-4.1108,-4.1108,-4.1108,-4.1111,-4.1116,-4.1116,-4.1111,-4.1111,-4.1111,-4.1086,-4.1074,-4.1074,-4.1048,-4.1007,-4.0903,-4.0699,-4.0688,-4.0878,-4.0694,-4.0305,-4.0325,-4.0238,-3.9646,-3.8734,-3.8714,-3.8393,-3.8216,-3.8418,-3.893,-3.9189,-3.9371]}]]